[[{"header":{"parameterUnit":"m.s-1","parameterCategory":1,"la1":30.6,"la2":28.766,"lo1":-90.7593,"lo2":-88.6598,"dy":0.0162,"dx":0.0183,"nx":116,"ny":114,"refTime":"2024-05-22T06:00:00:Z","depth":0,"parameterNumber":2,"parameterNumberName":"U-component_of_WINDS"},"data":[0.0,0.0,0.0,0.0,0.0,0.0,0.0,0.0,0.0,0.0,0.0,0.0,0.0,0.0,0.0,0.0,0.0,0.0,0.0,0.0,0.0,0.0,0.0,0.0,0.0,0.0,0.0,0.0,0.0,0.0,0.0,0.0,0.0,0.0,0.0,0.0,0.0,0.0,0.0,0.0,0.0,0.0,0.0,0.0,0.0,0.0,0.0,0.0,0.0,0.0,0.0,0.0,0.0,0.0,0.0,0.0,0.0,0.0,0.0,0.0,0.0,0.0,0.0,0.0,0.0,0.0,0.0,0.0,0.0,0.0,0.0,0.0,0.0,0.0,0.0,0.0,0.0,0.0,0.0,0.0,0.0,0.0,0.0,0.0,0.0,0.0,0.0,0.0,0.0,0.0,0.0,0.0,0.0,0.0,0.0,0.0,0.0,0.0,0.0,0.0,0.0,0.0,0.0,0.0,0.0,0.0,0.0,0.0,0.0,0.0,0.0,0.0,0.0,0.0,0.0,0.0,0.0,0.0,0.0,0.0,0.0,0.0,0.0,0.0,0.0,0.0,0.0,0.0,0.0,0.0,0.0,0.0,0.0,0.0,0.0,0.0,0.0,0.0,0.0,0.0,0.0,0.0,0.0,0.0,0.0,0.0,0.0,0.0,0.0,0.0,0.0,0.0,0.0,0.0,0.0,0.0,0.0,0.0,0.0,0.0,0.0,0.0,0.0,0.0,0.0,0.0,0.0,0.0,0.0,0.0,0.0,0.0,0.0,0.0,0.0,0.0,0.0,0.0,0.0,0.0,0.0,0.0,0.0,0.0,0.0,0.0,0.0,0.0,0.0,0.0,0.0,0.0,0.0,0.0,0.0,0.0,0.0,0.0,0.0,0.0,0.0,0.0,0.0,0.0,0.0,0.0,0.0,0.0,0.0,0.0,0.0,0.0,0.0,0.0,0.0,0.0,0.0,0.0,0.0,0.0,0.0,0.0,0.0,0.0,0.0,0.0,0.0,0.0,0.0,0.0,0.0,0.0,0.0,0.0,0.0,0.0,0.0,0.0,0.0,0.0,0.0,0.0,0.0,0.0,0.0,0.0,0.0,0.0,0.0,0.0,0.0,0.0,0.0,0.0,0.0,0.0,0.0,0.0,0.0,0.0,0.0,0.0,0.0,0.0,0.0,0.0,0.0,0.0,0.0,0.0,0.0,0.0,0.0,0.0,0.0,0.0,0.0,0.0,0.0,0.0,0.0,0.0,0.0,0.0,0.0,0.0,0.0,0.0,0.0,0.0,0.0,0.0,0.0,0.0,0.0,0.0,0.0,0.0,0.0,0.0,0.0,0.0,0.0,0.0,0.0,0.0,0.0,0.0,0.0,0.0,0.0,0.0,0.0,0.0,0.0,0.0,0.0,0.0,0.0,0.0,0.0,0.0,0.0,0.0,0.0,0.0,0.0,0.0,0.0,0.0,0.0,0.0,0.0,0.0,0.0,0.0,0.0,0.0,0.0,0.0,0.0,0.0,0.0,0.0,0.0,0.0,0.0,0.0,0.0,0.0,0.0,0.0,0.0,0.0,0.0,0.0,0.0,0.0,0.0,0.0,0.0,0.0,0.0,0.0,0.0,0.0,0.0,0.0,0.0,0.0,0.0,0.0,0.0,0.0,0.0,0.0,0.0,0.0,0.0,0.0,0.0,0.0,0.0,0.0,0.0,0.0,0.0,0.0,0.0,0.0,0.0,0.0,0.0,0.0,0.0,0.0,0.0,0.0,0.0,0.0,0.0,0.0,0.0,0.0,0.0,0.0,0.0,0.0,0.0,0.0,0.0,0.0,0.0,0.0,0.0,0.0,0.0,0.0,0.0,0.0,0.0,0.0,0.0,0.0,0.0,0.0,0.0,0.0,0.0,0.0,0.0,0.0,0.0,0.0,0.0,0.0,0.0,0.0,0.0,0.0,0.0,0.0,0.0,0.0,0.0,0.0,0.0,0.0,0.0,0.0,0.0,0.0,0.0,0.0,0.0,0.0,0.0,0.0,0.0,0.0,0.0,0.0,0.0,0.0,0.0,0.0,0.0,0.0,0.0,0.0,0.0,0.0,0.0,0.0,0.0,0.0,0.0,0.0,0.0,0.0,0.0,0.0,0.0,0.0,0.0,0.0,0.0,0.0,0.0,0.0,0.0,0.0,0.0,0.0,0.0,0.0,0.0,0.0,0.0,0.0,0.0,0.0,0.0,0.0,0.0,0.0,0.0,0.0,0.0,0.0,0.0,0.0,0.0,0.0,0.0,0.0,0.0,0.0,0.0,0.0,0.0,0.0,0.0,0.0,0.0,0.0,0.0,0.0,0.0,0.0,0.0,0.0,0.0,0.0,0.0,0.0,0.0,0.0,0.0,0.0,0.0,0.0,0.0,0.0,0.0,0.0,0.0,0.0,0.0,0.0,0.0,0.0,0.0,0.0,0.0,0.0,0.0,0.0,0.0,0.0,0.0,0.0,0.0,0.0,0.0,0.0,0.0,0.0,0.0,0.0,0.0,0.0,0.0,0.0,0.0,0.0,0.0,0.0,0.0,0.0,0.0,0.0,0.0,0.0,0.0,0.0,0.0,0.0,0.0,0.0,0.0,0.0,0.0,0.0,0.0,0.0,0.0,0.0,0.0,0.0,0.0,0.0,0.0,0.0,0.0,0.0,0.0,0.0,0.0,0.0,0.0,0.0,0.0,0.0,0.0,0.0,0.0,0.0,0.0,0.0,0.0,0.0,0.0,0.0,0.0,0.0,0.0,0.0,0.0,0.0,0.0,0.0,0.0,0.0,0.0,0.0,0.0,0.0,0.0,0.0,0.0,0.0,0.0,0.0,0.0,0.0,0.0,0.0,0.0,0.0,0.0,0.0,0.0,0.0,0.0,0.0,0.0,0.0,0.0,0.0,0.0,0.0,0.0,0.0,0.0,0.0,0.0,0.0,0.0,0.0,0.0,0.0,0.0,0.0,0.0,0.0,0.0,0.0,0.0,0.0,0.0,0.0,0.0,0.0,0.0,0.0,0.0,0.0,0.0,0.0,0.0,0.0,0.0,0.0,0.0,0.0,0.0,0.0,0.0,0.0,0.0,0.0,0.0,0.0,0.0,0.0,0.0,0.0,0.0,0.0,0.0,0.0,0.0,0.0,0.0,0.0,0.0,0.0,0.0,0.0,0.0,0.0,0.0,0.0,0.0,0.0,0.0,0.0,0.0,0.0,0.0,0.0,0.0,0.0,0.0,0.0,0.0,0.0,0.0,0.0,0.0,0.0,0.0,0.0,0.0,0.0,0.0,0.0,0.0,0.0,0.0,0.0,0.0,0.0,0.0,0.0,0.0,0.0,0.0,0.0,0.0,0.0,0.0,0.0,0.0,0.0,0.0,0.0,0.0,0.0,0.0,0.0,0.0,0.0,0.0,0.0,0.0,0.0,0.0,0.0,0.0,0.0,0.0,0.0,0.0,0.0,0.0,0.0,0.0,0.0,0.0,0.0,0.0,0.0,0.0,0.0,0.0,0.0,0.0,0.0,0.0,0.0,0.0,0.0,0.0,0.0,0.0,0.0,0.0,0.0,0.0,0.0,0.0,0.0,0.0,0.0,0.0,0.0,0.0,0.0,0.0,0.0,0.0,0.0,0.0,0.0,0.0,0.0,0.0,0.0,0.0,0.0,0.0,0.0,0.0,0.0,0.0,0.0,0.0,0.0,0.0,0.0,0.0,0.0,0.0,0.0,0.0,0.0,0.0,0.0,0.0,0.0,0.0,0.0,0.0,0.0,0.0,0.0,0.0,0.0,0.0,0.0,0.0,0.0,0.0,0.0,0.0,0.0,0.0,0.0,0.0,0.0,0.0,0.0,0.0,0.0,0.0,0.0,0.0,0.0,0.0,0.0,0.0,0.0,0.0,0.0,0.0,0.0,0.0,0.0,0.0,0.0,0.0,0.0,0.0,0.0,0.0,0.0,0.0,0.0,0.0,0.0,0.0,0.0,0.0,0.0,0.0,0.0,0.0,0.0,0.0,0.0,0.0,0.0,0.0,0.0,0.0,0.0,0.0,0.0,0.0,0.0,0.0,0.0,0.0,0.0,0.0,0.0,0.0,0.0,0.0,0.0,0.0,0.0,0.0,0.0,0.0,0.0,0.0,0.0,0.0,0.0,0.0,0.0,0.0,0.0,0.0,0.0,0.0,0.0,0.0,0.0,0.0,0.0,0.0,0.0,0.0,0.0,0.0,0.0,0.0,0.0,0.0,0.0,0.0,0.0,0.0,0.0,0.0,0.0,0.0,0.0,0.0,0.0,0.0,0.0,0.0,0.0,0.0,0.0,0.0,0.0,0.0,0.0,0.0,0.0,0.0,0.0,0.0,0.0,0.0,0.0,0.0,0.0,0.0,0.0,0.0,0.0,0.0,0.0,0.0,0.0,0.0,0.0,0.0,0.0,0.0,0.0,0.0,0.0,0.0,0.0,0.0,0.0,0.0,0.0,0.0,0.0,0.0,0.0,0.0,0.0,0.0,0.0,0.0,0.0,0.0,0.0,0.0,0.0,0.0,0.0,0.0,0.0,0.0,0.0,0.0,0.0,0.0,0.0,0.0,0.0,0.0,0.0,0.0,0.0,0.0,0.0,0.0,0.0,0.0,0.0,0.0,0.0,0.0,0.0,0.0,0.0,0.0,0.0,0.0,0.0,0.0,0.0,0.0,0.0,0.0,0.0,0.0,0.0,0.0,0.0,0.0,0.0,0.0,0.0,0.0,0.0,0.0,0.0,0.0,0.0,0.0,0.0,0.0,0.0,0.0,0.0,0.0,0.0,0.0,0.0,0.0,0.0,0.0,0.0,0.0,0.0,0.0,0.0,0.0,0.0,0.0,0.0,0.0,0.0,0.0,0.0,0.0,0.0,0.0,0.0,0.0,0.0,0.0,0.0,0.0,0.0,0.0,0.0,0.0,0.0,0.0,0.0,0.0,0.0,0.0,0.0,0.0,0.0,0.0,0.0,0.0,0.0,0.0,0.0,0.0,0.0,0.0,0.0,0.0,0.0,0.0,0.0,0.0,0.0,0.0,0.0,0.0,0.0,0.0,0.0,0.0,0.0,0.0,0.0,0.0,0.0,0.0,0.0,0.0,0.0,0.0,0.0,0.0,0.0,0.0,0.0,0.0,0.0,0.0,0.0,0.0,0.0,0.0,0.0,0.0,0.0,0.0,0.0,0.0,0.0,0.0,0.0,0.0,0.0,0.0,0.0,0.0,0.0,0.0,0.0,0.0,0.0,0.0,0.0,0.0,0.0,0.0,0.0,0.0,0.0,0.0,0.0,0.0,0.0,0.0,0.0,0.0,0.0,0.0,0.0,0.0,0.0,0.0,0.0,0.0,0.0,0.0,0.0,0.0,0.0,0.0,0.0,0.0,0.0,0.0,0.0,0.0,0.0,0.0,0.0,0.0,0.0,0.0,0.0,0.0,0.0,0.0,0.0,0.0,0.0,0.0,0.0,0.0,0.0,0.0,0.0,0.0,0.0,0.0,0.0,0.0,0.0,0.0,0.0,0.0,0.0,0.0,0.0,0.0,0.0,0.0,0.0,0.0,0.0,0.0,0.0,0.0,0.0,0.0,0.0,0.0,0.0,0.0,0.0,0.0,0.0,0.0,0.0,0.0,0.0,0.0,0.0,0.0,0.0,0.0,0.0,0.0,0.0,0.0,0.0,0.0,0.0,0.0,0.0,0.0,0.0,0.0,0.0,0.0,0.0,0.0,0.0,0.0,0.0,0.0,0.0,0.0,0.0,0.0,0.0,0.0,0.0,0.0,0.0,0.0,0.0,0.0,0.0,0.0,0.0,0.0,0.0,0.0,0.0,0.0,0.0,0.0,0.0,0.0,0.0,0.0,0.0,0.0,0.0,0.0,0.0,0.0,0.0,0.0,0.0,0.0,0.0,0.0,0.0,0.0,0.0,0.0,0.0,0.0,0.0,0.0,0.0,0.0,0.0,0.0,0.0,0.0,0.0,0.0,0.0,0.0,0.0,0.0,0.0,0.0,0.0,0.0,0.0,0.0,0.0,0.0,0.0,0.0,0.0,0.0,0.0,0.0,0.0,-3.7168,-3.5819,0.0,0.0,0.0,0.0,0.0,0.0,0.0,0.0,0.0,0.0,0.0,0.0,0.0,0.0,0.0,0.0,0.0,0.0,0.0,0.0,0.0,0.0,0.0,-2.4664,-2.5778,-2.6167,-2.6577,-2.7186,-2.8077,0.0,0.0,0.0,0.0,0.0,-2.5101,-2.4694,-2.5077,-2.6293,-2.6548,-2.7415,-2.8866,-2.9139,-2.7979,-2.5687,0.0,0.0,0.0,0.0,0.0,0.0,0.0,0.0,0.0,0.0,0.0,0.0,0.0,0.0,0.0,0.0,0.0,0.0,0.0,0.0,0.0,0.0,0.0,0.0,0.0,0.0,0.0,0.0,0.0,0.0,0.0,0.0,0.0,0.0,0.0,0.0,0.0,0.0,0.0,0.0,0.0,0.0,0.0,0.0,0.0,0.0,0.0,0.0,0.0,0.0,0.0,0.0,0.0,0.0,0.0,0.0,0.0,0.0,0.0,0.0,0.0,0.0,0.0,0.0,0.0,0.0,0.0,0.0,0.0,0.0,-4.0297,-3.8964,0.0,0.0,0.0,0.0,0.0,0.0,0.0,0.0,0.0,0.0,0.0,0.0,0.0,0.0,0.0,0.0,0.0,0.0,0.0,0.0,0.0,-2.2707,-2.2995,-2.4929,-2.6311,-2.6614,-2.7297,-2.8066,-2.895,-2.8227,0.0,0.0,0.0,-2.6337,-2.6246,-2.5966,-2.681,-2.8817,-2.8641,-2.9765,-3.2102,-3.2968,-3.1295,-2.7537,-2.7138,0.0,0.0,0.0,0.0,0.0,0.0,0.0,0.0,0.0,0.0,0.0,0.0,0.0,0.0,0.0,0.0,0.0,0.0,0.0,0.0,0.0,0.0,0.0,0.0,0.0,0.0,0.0,0.0,0.0,0.0,0.0,0.0,0.0,0.0,0.0,0.0,0.0,0.0,0.0,0.0,0.0,0.0,0.0,0.0,0.0,0.0,0.0,0.0,0.0,0.0,0.0,0.0,0.0,0.0,0.0,0.0,0.0,0.0,0.0,0.0,0.0,0.0,0.0,-4.5243,-4.5613,-4.619,-4.619,-4.6621,-4.7217,-4.4044,-4.3141,-4.3691,-4.1082,0.0,0.0,0.0,0.0,0.0,0.0,0.0,0.0,0.0,0.0,0.0,0.0,0.0,0.0,0.0,0.0,0.0,0.0,0.0,-2.3122,-2.4537,-2.5598,-2.6778,-2.8248,-2.8476,-2.89,-2.9704,-2.9003,0.0,0.0,-2.6688,-2.5898,-2.5221,-2.7201,-2.832,-2.8474,-3.1829,-3.3795,-3.4481,-3.5578,-3.566,-3.4816,-3.2601,-3.1592,-3.1348,0.0,0.0,0.0,0.0,0.0,0.0,0.0,0.0,0.0,0.0,0.0,0.0,0.0,0.0,0.0,0.0,0.0,0.0,0.0,0.0,0.0,0.0,0.0,0.0,0.0,0.0,0.0,0.0,0.0,0.0,0.0,0.0,0.0,0.0,0.0,0.0,0.0,0.0,0.0,0.0,0.0,-3.5442,-3.6358,0.0,0.0,0.0,0.0,0.0,0.0,0.0,0.0,0.0,0.0,0.0,0.0,0.0,-4.5268,-4.589,-4.7552,-4.83,-4.8234,-4.8924,-4.9304,-4.939,-4.939,-4.9804,-5.0493,-4.9976,0.0,-4.5439,-4.4811,0.0,0.0,0.0,0.0,0.0,0.0,0.0,0.0,0.0,0.0,0.0,0.0,0.0,0.0,0.0,0.0,0.0,0.0,0.0,0.0,0.0,-2.6835,-2.8275,-2.9953,-3.0958,-3.145,-3.1318,-3.0541,-2.9518,-2.8237,-2.7373,-2.6773,-2.6406,-2.7803,-2.9523,-3.1537,-3.5659,-3.7655,-3.7671,-3.8631,-3.9032,-3.8884,-3.7299,-3.5355,-3.3128,-3.0797,0.0,0.0,0.0,0.0,0.0,0.0,0.0,0.0,0.0,0.0,0.0,0.0,0.0,0.0,0.0,0.0,0.0,0.0,0.0,0.0,0.0,0.0,0.0,0.0,0.0,0.0,0.0,0.0,0.0,0.0,0.0,0.0,0.0,0.0,0.0,0.0,0.0,0.0,0.0,-3.4978,-3.7228,-3.7189,-3.7938,-3.7762,0.0,0.0,0.0,0.0,0.0,0.0,0.0,0.0,0.0,-4.5953,-4.7551,-4.8618,-4.9131,-4.9952,-5.0732,-5.1407,-5.1752,-5.2132,-5.2546,-5.2546,-5.2718,-5.3028,-5.3028,-5.1971,-5.0126,-4.7852,-4.5822,-4.393,0.0,0.0,0.0,0.0,-4.075,-4.1634,0.0,0.0,0.0,0.0,0.0,0.0,0.0,0.0,0.0,0.0,0.0,0.0,-2.6664,-2.8343,-3.001,-3.1686,-3.3164,-3.3638,-3.2785,-3.1962,-3.0673,-2.8779,-2.7941,-2.7399,-2.7172,-2.876,-3.1435,-3.5195,-3.8718,-4.0406,-4.043,-4.1269,-4.1652,-4.1615,-4.1013,-3.8865,-3.555,-3.3513,-3.1494,-2.9475,0.0,0.0,0.0,0.0,0.0,0.0,0.0,0.0,0.0,0.0,0.0,0.0,0.0,0.0,0.0,0.0,0.0,0.0,0.0,0.0,0.0,0.0,0.0,0.0,0.0,0.0,0.0,0.0,0.0,0.0,0.0,0.0,0.0,0.0,0.0,0.0,0.0,-3.7077,-3.8899,-3.8735,-3.9852,-3.9639,0.0,0.0,0.0,0.0,0.0,0.0,-4.5773,-4.7232,-4.8513,-4.9631,-5.0602,-5.1367,-5.1977,-5.2166,-5.2839,-5.3977,-5.4167,-5.4563,-5.5081,-5.4891,-5.4787,-5.4787,-5.4581,-5.434,-5.3805,-5.0443,-4.87,-4.7901,-4.5233,-4.411,-4.4042,-4.4372,-4.4946,-4.5841,0.0,0.0,0.0,0.0,0.0,0.0,0.0,0.0,0.0,0.0,0.0,-2.6702,-2.84,-3.0067,-3.1762,-3.343,-3.4358,-3.4491,-3.3695,-3.2823,-3.1242,-2.8817,-2.7941,-2.7115,-2.6273,-3.06,-3.4692,-3.8464,-4.0189,-4.1409,-4.2111,-4.2968,-4.3369,-4.3369,-4.3332,-4.2359,-4.0526,-3.7386,-3.5514,-3.4234,-2.9604,0.0,0.0,0.0,0.0,0.0,0.0,0.0,0.0,0.0,0.0,0.0,0.0,0.0,0.0,0.0,0.0,0.0,0.0,0.0,0.0,0.0,0.0,0.0,0.0,0.0,0.0,0.0,0.0,0.0,0.0,0.0,0.0,0.0,0.0,0.0,0.0,0.0,0.0,-4.2901,-4.343,0.0,0.0,0.0,0.0,-4.3815,-4.5003,-4.6688,-4.9117,-4.8938,-4.9746,-5.1946,-5.208,-5.2822,-5.4322,-5.5029,-5.5426,-5.5512,-5.6271,-5.665,-5.6667,-5.5891,-5.5531,-5.5529,-5.4805,-5.4589,-5.4606,-5.2468,-5.1072,-5.0077,-4.8323,-4.7369,-4.7027,-4.7501,-4.8125,-4.89,0.0,0.0,0.0,0.0,0.0,-2.0668,-2.1484,-2.2235,-2.3169,-2.4503,-2.6051,-2.7866,-3.0067,-3.18,-3.3695,-3.5893,-3.6329,-3.6386,-3.6102,-3.3771,-3.2492,-3.2691,-3.089,-3.0881,-3.2983,-3.5529,-3.795,-4.0244,-4.1846,-4.2765,-4.3041,-4.3351,-4.3515,-4.3515,-4.3515,-4.3167,-4.247,-3.9753,-3.7533,-3.555,-3.2228,-2.9794,0.0,0.0,0.0,0.0,0.0,0.0,0.0,0.0,0.0,0.0,0.0,0.0,0.0,0.0,0.0,0.0,0.0,0.0,0.0,0.0,0.0,0.0,0.0,0.0,0.0,0.0,0.0,0.0,0.0,0.0,0.0,0.0,0.0,0.0,0.0,0.0,0.0,-4.5517,-4.5971,0.0,-4.4058,-4.4203,-4.5023,-4.6595,-4.7838,-4.9329,-5.1153,-5.1566,-5.258,-5.4308,-5.4376,-5.4908,-5.5977,-5.6236,-5.6374,-5.6391,-5.6667,-5.6805,-5.6788,-5.6512,-5.6374,-5.6357,-5.6098,-5.5798,-5.5424,-5.4215,-5.3355,-5.266,-5.1351,-5.0678,-5.0395,-5.0349,-5.068,-5.1166,0.0,0.0,0.0,0.0,-2.1007,-2.0781,-2.1802,-2.2645,-2.3699,-2.5304,-2.7398,-2.9477,-3.1402,-3.3619,-3.5723,-3.7666,-3.8092,-3.7997,-3.7438,-3.5059,-3.379,-3.4055,-3.2784,-3.3543,-3.669,-3.8534,-4.0137,-4.1466,-4.2837,-4.3515,-4.3515,-4.3515,-4.3515,-4.3515,-4.3515,-4.3515,-4.3404,-4.1789,-3.9882,-3.7679,-3.4963,-3.3041,-3.1568,0.0,0.0,0.0,0.0,0.0,0.0,0.0,0.0,0.0,0.0,0.0,0.0,0.0,0.0,0.0,0.0,0.0,0.0,0.0,0.0,0.0,0.0,0.0,0.0,0.0,0.0,0.0,0.0,0.0,0.0,0.0,0.0,0.0,0.0,0.0,-4.5388,-4.7548,-4.8188,-4.8039,-4.7111,-4.7387,-4.8167,-4.9389,-5.0524,-5.1804,-5.3287,-5.3856,-5.4718,-5.5977,-5.6012,-5.6271,-5.6788,-5.7047,-5.7167,-5.7167,-5.7426,-5.7547,-5.7529,-5.7288,-5.7167,-5.7167,-5.6909,-5.6577,-5.6159,-5.5684,-5.5189,-5.463,-5.3287,-5.2683,-5.2621,-5.2382,-5.2479,-5.2706,0.0,0.0,0.0,-2.1851,-2.1024,-2.1008,-2.2474,-2.3415,-2.4528,-2.6121,-2.9189,-3.1526,-3.2379,-3.5457,-3.7799,-3.8652,-3.9399,-3.9142,-3.758,-3.6604,-3.5022,-3.2634,-3.3483,-3.4923,-3.6864,-3.9373,-4.1167,-4.2239,-4.3078,-4.3515,-4.3515,-4.3515,-4.3515,-4.3515,-4.3515,-4.3515,-4.3515,-4.3515,-4.2598,-4.0893,-3.7734,-3.6868,-3.6978,0.0,0.0,0.0,0.0,0.0,0.0,0.0,0.0,0.0,0.0,0.0,0.0,0.0,0.0,0.0,0.0,0.0,0.0,0.0,0.0,0.0,0.0,0.0,0.0,0.0,0.0,0.0,0.0,0.0,0.0,0.0,0.0,0.0,-4.3356,-4.4253,-4.6011,-4.9177,-5.0118,-5.0154,-4.9284,-5.0397,-5.1494,-5.2205,-5.3028,-5.4098,-5.5497,-5.5632,-5.6012,-5.6805,-5.684,-5.684,-5.6874,-5.7581,-5.7943,-5.7943,-5.8668,-5.9012,-5.8995,-5.8271,-5.7943,-5.7892,-5.7185,-5.6857,-5.684,-5.684,-5.6552,-5.5928,-5.4023,-5.3399,-5.3534,-5.3534,-5.3501,-5.3501,0.0,0.0,-2.2726,-2.1845,-2.0988,-2.0964,-2.2526,-2.293,-2.4053,-2.6799,-2.9531,-3.197,-3.3998,-3.668,-3.8671,-3.9513,-3.866,-3.8414,-3.9161,-3.559,-3.3979,-3.5191,-3.7475,-3.9552,-4.1295,-4.1664,-4.2269,-4.315,-4.3387,-4.3515,-4.3515,-4.3515,-4.3515,-4.3515,-4.3515,-4.3515,-4.3515,-4.3515,-4.3239,-4.2653,-4.0616,-3.8854,-3.729,0.0,0.0,0.0,0.0,0.0,0.0,0.0,0.0,0.0,0.0,0.0,0.0,0.0,0.0,0.0,0.0,0.0,0.0,0.0,0.0,0.0,0.0,0.0,0.0,0.0,0.0,0.0,0.0,0.0,0.0,0.0,0.0,-4.3539,-4.4931,-4.7937,-5.0745,-5.2779,-5.2966,-5.3074,-5.3378,-5.3049,-5.308,-5.3822,-5.4581,-5.5184,-5.5598,-5.6167,-5.6822,-5.7581,-5.7598,-5.7857,-5.8392,-5.8616,-5.8719,-5.8719,-5.8909,-5.9012,-5.9012,-5.8806,-5.8719,-5.8702,-5.8495,-5.8099,-5.7565,-5.7329,-5.7,-5.6487,-5.5371,-5.4655,-5.4192,-5.3965,-5.3718,-5.3501,0.0,-2.3057,-2.2299,-2.1791,-2.1276,-2.149,-2.3102,-2.3299,-2.4402,-2.7613,-3.0173,-3.2672,-3.5173,-3.7401,-3.902,-3.9824,-3.8698,-3.8054,-3.8338,-3.5628,-3.5173,-3.7727,-4.0064,-4.1849,-4.3039,-4.3018,-4.3172,-4.3515,-4.3515,-4.3515,-4.3515,-4.3515,-4.348,-4.3445,-4.3497,-4.348,-4.3445,-4.3497,-4.3515,-4.3423,-4.2488,-4.1258,-3.9824,-3.7991,-3.6909,-3.6101,-3.427,-3.4215,-3.4821,-3.3518,0.0,0.0,0.0,0.0,0.0,0.0,0.0,0.0,0.0,0.0,0.0,0.0,0.0,0.0,0.0,0.0,0.0,0.0,0.0,0.0,0.0,0.0,0.0,0.0,-4.4198,-4.6947,-4.8212,-5.047,-5.2758,-5.4789,-5.4647,-5.4617,-5.517,-5.4416,-5.4184,-5.4925,-5.5374,-5.5891,-5.6546,-5.7012,-5.7598,-5.834,-5.8374,-5.8581,-5.9012,-5.9012,-5.9012,-5.9012,-5.9012,-5.9012,-5.9012,-5.9012,-5.9012,-5.9012,-5.9012,-5.8771,-5.8341,-5.8101,-5.7689,-5.7133,0.0,0.0,0.0,0.0,-5.3767,-5.3501,0.0,-2.2221,-2.1694,-2.1694,-2.1703,-2.2252,-2.386,-2.4042,-2.5163,-2.8393,-3.0918,-3.3373,-3.5922,-3.778,-3.9115,-3.9843,-3.9153,-3.8064,-3.6585,-3.672,-3.7889,-4.0186,-4.1658,-4.2643,-4.3123,-4.3688,-4.3851,-4.3626,-4.3517,-4.3517,-4.3626,-4.3626,-4.3592,-4.354,-4.3701,-4.3738,-4.3686,-4.3646,-4.3626,-4.3643,-4.3551,-4.3515,-4.3167,-4.023,-3.9551,-3.9772,-3.6655,-3.5683,-3.5683,-3.4798,0.0,0.0,0.0,0.0,0.0,0.0,0.0,0.0,0.0,0.0,0.0,0.0,0.0,0.0,0.0,0.0,0.0,0.0,0.0,0.0,0.0,0.0,0.0,0.0,-4.7827,-5.1279,-5.227,-5.2472,-5.3405,-5.5741,-5.5556,-5.5344,-5.5584,-5.5017,-5.4943,-5.5701,-5.5822,-5.6477,-5.784,-5.7978,0.0,0.0,0.0,-5.9012,-5.9012,-5.9012,-5.9012,-5.9012,-5.9012,-5.9012,-5.9012,-5.9012,-5.9012,-5.9012,-5.9012,-5.9012,-5.8978,-5.884,-5.8428,-5.7703,-5.5806,-5.5272,-5.5365,-5.4319,-5.3751,-5.3501,0.0,-2.1811,-2.1694,-2.1694,-2.1692,-2.2253,-2.3929,-2.4073,-2.517,-2.8439,-3.0934,-3.3373,-3.5922,-3.8281,-3.973,-3.99,-3.9153,-3.8557,-3.8235,0.0,-4.0843,-4.1971,-4.2765,-4.3444,-4.3959,-4.3828,-4.3962,-4.4382,-4.3633,-4.3651,-4.4382,-4.4382,-4.4382,-4.44,-4.5132,-4.5443,-4.537,-4.4728,-4.447,-4.4415,-4.3754,-4.3515,-4.3368,-4.2084,-4.1699,-4.157,-3.9643,-3.979,-4.0671,-3.9203,-3.8193,-3.7422,-3.6762,0.0,0.0,0.0,0.0,0.0,0.0,0.0,0.0,0.0,0.0,0.0,0.0,0.0,0.0,0.0,0.0,0.0,0.0,0.0,0.0,-4.5938,-4.9386,-5.2491,-5.4623,-5.5464,-5.6061,-5.6575,-5.6317,-5.631,-5.6954,-5.6029,-5.5736,-5.6512,-5.7116,-5.7598,-5.7892,-5.8478,-5.8857,-5.9012,-5.9012,-5.9012,-5.9012,-5.9012,-5.9012,-5.9012,-5.9012,0.0,-5.9012,-5.9012,-5.9012,-5.9012,-5.9012,-5.9012,-5.8978,-5.8684,-5.8273,-5.7635,-5.5823,-5.4974,-5.4686,-5.3889,-5.3568,-5.3501,-2.1791,-2.1694,-2.1986,-2.286,-2.301,-2.342,-2.471,-2.4779,-2.586,-2.913,-3.0544,-3.2353,-3.524,-3.631,-3.6963,-3.7361,-3.703,-3.7344,0.0,-3.9918,-4.1391,-4.3027,-4.3712,-4.418,-4.4439,-4.4423,-4.4626,-4.5099,-4.4725,-4.4856,-4.5456,-4.5314,-4.5242,-4.5205,-4.57,-4.5883,-4.5792,-4.504,-4.4691,-4.4635,-4.3809,-4.3515,-4.346,-4.3039,-4.2892,-4.28,-4.1974,-4.1956,-4.2176,-4.1368,-4.0304,-3.9221,-3.8833,-3.6696,-3.4202,0.0,0.0,0.0,0.0,0.0,0.0,0.0,0.0,0.0,0.0,0.0,0.0,0.0,0.0,-3.9855,0.0,0.0,-4.6691,-4.9111,-5.1571,-5.3904,-5.5923,-5.6547,-5.6841,-5.695,-5.6575,-5.6326,-5.6379,-5.5906,-5.5943,-5.6736,-5.7478,-5.8064,-5.8443,-5.8806,-5.9012,-5.9012,-5.9012,-5.9202,-5.9599,-5.9599,-5.9789,-6.0151,-6.0151,-5.9961,-5.9599,-5.9599,-5.9392,-5.9012,-5.9012,-5.9012,-5.8978,-5.8823,-5.8531,-5.8118,-5.6951,-5.5925,-5.5039,-5.4498,-5.394,-5.3501,-2.2272,-2.2214,-2.2643,-2.4042,-2.4305,-2.4587,-2.5457,-2.548,-2.6434,-2.934,-2.993,-3.1202,-3.4102,-3.4131,-3.4188,-3.4832,-3.5192,0.0,0.0,-3.9897,-4.1491,-4.3834,-4.4443,-4.4706,-4.4635,-4.5017,-4.5382,-4.5716,-4.5834,-4.6101,-4.6423,-4.6284,-4.6159,-4.6047,-4.6324,-4.6397,-4.6231,-4.548,-4.5076,-4.4874,-4.4066,-4.3626,-4.3515,-4.3515,-4.3515,-4.3515,-4.3515,-4.2983,-4.2323,-4.2488,-4.157,-4.0359,-4.0359,-3.8878,-3.6941,-3.5795,-3.4818,0.0,0.0,0.0,0.0,0.0,0.0,0.0,0.0,0.0,-3.8077,-4.048,-4.1667,-4.3095,-4.5865,-4.7829,-4.9719,-5.1885,-5.3702,-5.5317,-5.662,-5.6932,-5.7083,-5.7261,-5.6809,-5.6247,-5.5684,-5.5844,-5.628,-5.696,-5.7702,-5.8374,-5.8978,-5.9012,-5.9081,-5.9237,-5.9237,-5.9616,-6.0409,-6.0409,-6.0703,-6.1306,-6.1306,-6.0996,-6.0409,-6.0409,-5.9978,-5.9237,-5.9081,-5.8978,-5.8909,-5.8961,-5.8875,-5.872,-5.8255,-5.7183,-5.582,-5.5374,-5.453,-5.3651,0.0,-2.4005,-2.4066,-2.4275,-2.4294,-2.4577,-2.5386,-2.5445,-2.6024,-2.7742,-2.9216,-3.0765,-3.2491,-3.3922,-3.4794,-3.4889,-3.6253,0.0,-3.9654,-4.1256,-4.2924,-4.4687,-4.4845,-4.4739,-4.4443,-4.5214,-4.5779,-4.6033,-4.6006,-4.6305,-4.6928,-4.7203,-4.7149,-4.6908,-4.7995,-4.831,-4.7975,-4.7168,-4.6415,-4.57,-4.4892,-4.414,-4.3515,-4.3515,-4.3515,-4.3515,-4.3515,-4.2983,-4.2415,-4.3112,-4.2763,-4.2029,-4.2029,-4.1352,-4.0107,-3.7806,0.0,-3.5725,-3.4867,-3.5217,-3.6145,-3.7555,-3.75,-3.823,0.0,0.0,-4.2288,-4.4709,-4.5865,-4.6764,-4.7829,-4.9976,-5.1903,-5.2913,-5.5023,-5.6602,-5.6785,-5.7428,-5.7863,-5.7909,-5.7358,-5.6832,-5.6405,-5.7031,-5.7555,-5.7753,-5.8478,-5.8926,-5.9012,-5.9012,-5.934,-6.003,-6.0064,-6.0427,-6.1168,-6.1185,-6.122,-6.1306,-6.1306,-6.1254,-6.1185,-6.1185,-6.0771,-6.003,-5.9323,-5.8823,-5.8561,-5.8753,-5.8875,-5.8927,-5.8686,-5.7892,-5.6722,-5.5855,-5.4937,-5.4141,0.0,-2.47,-2.5056,-2.5051,-2.5068,-2.5175,-2.5512,-2.5506,-2.6035,-2.7601,-2.8338,-2.9317,-3.0901,-3.1625,-3.2189,-3.271,-3.4718,-3.686,-3.9058,-4.1219,-4.3152,-4.4838,-4.4895,-4.4839,-4.4758,-4.587,-4.66,-4.6905,-4.7508,-4.7946,-4.8212,-4.8212,-4.8052,-4.7772,-4.8273,-4.8421,-4.8233,-4.6948,-4.6214,-4.5792,-4.4507,-4.3791,-4.3515,-4.3515,-4.3221,-4.28,-4.28,-4.2286,0.0,0.0,-4.157,-4.0983,-4.146,-4.1056,-4.012,-3.8603,-3.8255,0.0,-3.8483,-3.8742,0.0,0.0,-4.051,-4.1611,-4.4122,-4.4544,-4.5076,-4.7498,-4.8269,-4.8912,-5.0215,-5.1683,-5.3115,0.0,-5.5849,-5.6969,-5.7428,-5.7795,-5.7862,-5.7522,-5.7546,-5.7592,-5.7549,-5.7319,-5.7553,-5.8398,-5.88,-5.9012,-5.9012,-5.9012,-5.9375,-6.0168,-6.0202,-6.0771,-6.1979,-6.1996,-6.2203,-6.2634,-6.2634,-6.241,-6.1996,-6.1996,-6.1341,-6.0168,-5.984,-5.934,-5.8823,-5.9013,-5.9115,-5.9166,-5.92,-5.8333,-5.693,-5.6359,-5.53,-5.422,0.0,-2.5147,-2.5602,-2.5598,-2.5609,-2.5596,-2.5573,-2.5527,-2.6076,-2.7682,-2.7816,-2.8345,-2.993,-2.9988,-3.0143,-3.0787,-3.3126,-3.5552,-3.7856,-4.0555,-4.2829,-4.4497,-4.4781,-4.4919,-4.4967,-4.6169,-4.696,-4.7365,-4.8371,-4.8945,-4.9104,-4.9005,-4.88,-4.8514,-4.8623,-4.8476,-4.8126,-4.6946,-4.6154,-4.5586,-4.4408,-4.3767,-4.3478,-4.324,-4.2671,-4.1974,-4.1974,-4.1313,0.0,0.0,-3.9717,-3.9368,-4.0178,-4.0047,-3.9533,-3.9405,-3.9772,-4.0359,-4.093,0.0,0.0,-4.2031,-4.3149,-4.4433,-4.5461,-4.614,-4.7186,-4.9389,-5.0031,-5.0545,-5.1775,-5.3023,-5.4234,-5.5409,-5.6455,-5.7336,-5.7923,-5.7997,-5.7839,-5.7382,-5.7589,-5.7947,-5.8492,-5.7758,-5.7685,-5.8756,-5.8927,-5.9081,-5.9267,-5.9305,-5.9702,-6.0478,-6.072,-6.1461,-6.2772,-6.2789,-6.3065,-6.36,-6.36,-6.3307,-6.2789,-6.2582,-6.1754,-6.0496,-6.0289,-5.9737,-5.9012,-5.9166,-5.9234,-5.9319,-5.947,-5.8482,-5.6999,-5.7028,-5.6033,-5.464,0.0,0.0,-2.5602,-2.5598,-2.5609,-2.5573,-2.5518,-2.5495,-2.6076,-2.7691,-2.7907,-2.8466,-2.9932,-2.9977,-2.9916,-2.9934,-3.2274,-3.4453,-3.6168,-3.9399,-4.1977,-4.3663,-4.4478,-4.4895,-4.4895,-4.5767,-4.6479,-4.7015,-4.7885,-4.8592,-4.912,-4.9416,-4.9386,-4.9104,-4.942,-4.8957,-4.7914,-4.7858,-4.678,-4.5121,-4.5066,-4.4417,-4.3423,-4.2635,-4.1846,-4.1132,-4.1132,0.0,0.0,-3.7878,-3.7584,-3.7713,-3.8524,-3.8762,0.0,-4.0581,-4.104,0.0,0.0,0.0,-4.3608,-4.4415,-4.5223,-4.6232,-4.7829,-4.8214,-4.871,-5.0417,-5.1371,-5.194,-5.1977,-5.3922,-5.5559,-5.5574,-5.6932,-5.796,-5.7997,-5.7997,-5.7997,-5.7973,-5.7474,-5.7685,0.0,-5.8727,-5.8499,-5.8602,-5.8855,-5.9283,-5.9923,-6.0096,-6.0496,-6.1237,-6.2013,-6.2789,-6.3548,-6.3565,-6.3565,-6.36,-6.36,-6.3582,-6.3531,-6.2824,-6.2048,-6.1237,-6.0513,-5.9737,-5.9012,-5.9012,-5.9115,-5.9319,-5.9319,-5.8366,-5.7101,-5.801,-5.7282,-5.5782,0.0,0.0,0.0,-2.7154,-2.7267,-2.7237,-2.716,-2.6714,-2.6541,-2.7043,-2.8034,0.0,0.0,0.0,0.0,0.0,0.0,-3.4415,-3.6093,-3.9342,-4.1681,-4.2791,-4.4156,-4.4895,-4.4895,-4.5748,-4.6278,-4.6479,-4.7311,-4.7697,-4.771,-4.7814,-4.7725,-4.7463,-4.7554,-4.7408,-4.6999,-4.6477,-4.6221,-4.6065,-4.4948,-4.4528,-4.4467,-4.3656,-4.2181,-4.0345,0.0,0.0,0.0,-3.5922,-3.5495,-3.5367,-3.7309,0.0,0.0,-4.0471,-4.1095,-4.1444,0.0,0.0,-4.4745,-4.6636,-4.7297,-4.8067,-5.0251,-5.0747,-5.1059,-5.2179,-5.1756,-5.1536,-5.2601,-5.3023,-5.3739,-5.5335,-5.6492,-5.7391,-5.7923,-5.7997,-5.7997,-5.7997,-5.7821,0.0,0.0,0.0,0.0,-5.9889,-5.9284,-5.9187,-5.9952,-6.0561,-6.0979,-6.1272,-6.2509,-6.331,-6.3582,-6.36,-6.36,-6.36,-6.36,-6.36,-6.3582,-6.3324,-6.2806,-6.2048,-6.1272,-6.0496,-5.9754,-5.9237,-5.9047,-5.9081,-5.9081,-5.8459,-5.7646,-5.7939,-5.7714,-5.7092,0.0,0.0,0.0,0.0,0.0,0.0,0.0,0.0,0.0,0.0,0.0,0.0,0.0,0.0,0.0,0.0,0.0,0.0,-3.5202,-3.7883,-3.9911,-4.1029,-4.2393,-4.3114,-4.3114,-4.3663,-4.4383,-4.5312,-4.5824,-4.6429,-4.7145,-4.7145,-4.7043,-4.6899,-4.6899,-4.6715,-4.6415,-4.5923,-4.5786,-4.5806,-4.4121,-4.3621,-4.3726,-4.2261,-4.0559,0.0,0.0,0.0,-3.4144,-3.3508,-3.3316,0.0,0.0,0.0,0.0,-4.0256,-4.1262,-4.2488,-4.4893,-4.5553,-4.614,-4.8581,-4.9187,-4.9682,-5.1555,-5.1775,-5.1793,-5.2619,-5.172,-5.1041,-5.1775,-5.172,-5.227,-5.4399,-5.5427,-5.6418,-5.7813,-5.7997,-5.7997,-5.7997,-5.7997,-5.7997,0.0,0.0,0.0,-6.0456,-5.9467,-5.9487,-6.1024,-6.1415,-6.1749,-6.2075,-6.3239,-6.3799,-6.3582,-6.36,-6.36,-6.36,-6.36,-6.36,-6.36,-6.36,-6.3186,-6.2444,-6.1651,-6.0875,-6.0133,-5.934,-5.9012,-5.9012,-5.9012,-5.8564,-5.7909,-5.7976,-5.7942,-5.7753,0.0,0.0,0.0,0.0,0.0,0.0,0.0,0.0,0.0,0.0,0.0,0.0,0.0,0.0,0.0,0.0,0.0,0.0,0.0,0.0,0.0,-3.85,-3.9437,-3.99,-3.99,-3.99,-4.1075,-4.3512,-4.3512,-4.4706,-4.7018,-4.7018,-4.7018,-4.7018,-4.7018,-4.6582,-4.588,-4.588,-4.5312,-4.428,-4.2661,-4.1841,-4.1367,-3.879,0.0,0.0,0.0,0.0,0.0,0.0,0.0,0.0,0.0,0.0,0.0,0.0,0.0,-4.4176,-4.6526,-4.7223,-4.7865,-5.027,-5.0857,-5.1059,-5.1811,-5.1387,-5.102,-5.1665,-5.1132,-5.0325,0.0,0.0,-5.1132,-5.2913,-5.3885,-5.5244,-5.7666,-5.7997,-5.7997,0.0,0.0,0.0,0.0,0.0,0.0,-6.0346,0.0,-6.0088,-6.2955,-6.2657,-6.2734,-6.3476,-6.4231,-6.4306,-6.36,-6.36,-6.36,-6.36,-6.36,-6.3637,-6.3656,-6.3637,-6.324,-6.2568,-6.1704,-6.0892,-6.0185,-5.9357,-5.9012,-5.9012,-5.9012,-5.8581,-5.7961,-5.8178,-5.8112,-5.7857,0.0,0.0,0.0,0.0,0.0,0.0,0.0,0.0,0.0,0.0,0.0,0.0,0.0,0.0,0.0,0.0,0.0,0.0,0.0,0.0,0.0,0.0,0.0,-3.99,-3.99,-3.99,-4.0222,-4.0866,-4.0866,-4.1188,-4.1814,-4.1814,-4.1814,-4.1814,-4.1814,-4.17,-4.151,-4.151,-4.1715,-4.1971,0.0,-4.0688,-4.0878,0.0,0.0,0.0,0.0,0.0,0.0,0.0,0.0,0.0,0.0,0.0,-4.2194,0.0,0.0,-4.6434,-4.7645,-4.8912,-5.016,-5.1389,-5.1621,-5.1614,-5.1799,-5.1606,-5.096,-4.949,-4.8043,-4.7202,0.0,0.0,0.0,-5.2525,-5.3885,0.0,-5.7666,-5.7997,0.0,-5.7997,0.0,-5.8896,-5.8896,-5.9446,0.0,0.0,-6.0058,-6.0429,-6.2947,-6.3542,-6.3706,-6.3509,-6.4698,-6.4788,-6.3619,-6.36,-6.36,-6.36,-6.36,-6.384,-6.4323,-6.3821,-6.3773,-6.3956,-6.209,-6.1185,-6.0909,-5.9564,-5.9012,-5.9012,-5.9012,-5.8909,-5.8737,-5.8771,-5.8771,-5.8702,0.0,0.0,0.0,0.0,0.0,0.0,0.0,0.0,0.0,0.0,0.0,0.0,0.0,0.0,0.0,0.0,0.0,0.0,0.0,0.0,0.0,0.0,-3.6955,-3.7702,-3.7702,-3.8092,-3.8452,-3.8812,0.0,0.0,-3.99,-3.99,-3.99,-3.99,-3.99,-3.99,-3.99,-3.99,0.0,0.0,0.0,0.0,0.0,0.0,0.0,0.0,0.0,0.0,0.0,0.0,0.0,-3.8967,-4.05,-4.231,-4.4104,-4.5279,0.0,-4.8453,-4.9609,-5.0618,-5.1518,-5.2325,-5.221,-5.1781,-5.1373,-5.0396,-4.9113,-4.7453,-4.6119,0.0,0.0,0.0,0.0,0.0,0.0,0.0,-5.7134,-5.7776,-5.8125,0.0,-5.8927,0.0,-5.9703,-6.0144,-6.0731,0.0,-6.0944,-6.157,-6.3929,-6.4546,-6.4847,-6.4902,-6.5663,-6.5433,-6.4057,-6.3749,-6.36,-6.3582,-6.3913,-6.4218,-6.4601,-6.4515,-6.4532,-6.4479,-6.2578,-6.1571,-6.1185,-5.9651,-5.9012,-5.9012,-5.9012,-5.9012,-5.8978,-5.865,-5.8737,-5.8961,0.0,0.0,0.0,0.0,0.0,0.0,0.0,0.0,0.0,0.0,-3.0825,0.0,0.0,0.0,0.0,0.0,0.0,0.0,0.0,0.0,0.0,0.0,-3.4832,-3.4908,-3.4908,-3.5628,-3.6377,0.0,0.0,0.0,0.0,0.0,0.0,0.0,0.0,0.0,0.0,0.0,0.0,0.0,0.0,0.0,0.0,0.0,0.0,0.0,0.0,0.0,0.0,0.0,-3.9829,-3.9612,-4.115,-4.3741,-4.6342,-4.6978,-4.8483,-5.0216,-5.161,-5.2068,-5.2325,-5.3002,-5.2559,-5.1676,-5.0657,-4.8513,-4.6429,-4.5276,0.0,-4.3432,-4.1845,-4.4327,-4.7002,-4.8173,0.0,-5.4066,-5.6602,-5.7556,-5.8309,-5.9093,-5.9276,-5.9661,-6.0493,-6.0658,-6.1006,-6.1704,-6.2133,-6.3228,-6.5202,-6.5505,-6.596,-6.6689,-6.6618,-6.5958,-6.4754,-6.4057,-6.3785,-6.3877,-6.4376,-6.4703,-6.4889,-6.5382,-6.535,-6.4767,-6.3133,-6.2101,-6.1432,-5.9805,-5.9132,-5.9132,-5.9047,-5.9047,-5.9062,-5.8322,-5.8528,-5.9011,0.0,0.0,0.0,0.0,0.0,0.0,0.0,0.0,0.0,0.0,-3.2028,-3.1642,0.0,0.0,0.0,0.0,0.0,0.0,0.0,0.0,0.0,0.0,-3.4548,-3.4908,-3.4908,0.0,0.0,0.0,0.0,0.0,0.0,0.0,0.0,0.0,0.0,0.0,0.0,0.0,0.0,0.0,0.0,0.0,0.0,0.0,0.0,0.0,0.0,0.0,0.0,0.0,-4.1288,-4.3057,-4.5297,-4.6874,-4.8049,-4.8854,-5.0286,-5.1628,-5.1903,-5.2491,-5.3002,-5.3045,-5.2352,-5.1262,-4.9716,-4.7411,0.0,0.0,0.0,-4.0137,-3.9355,-4.1856,0.0,-4.8709,0.0,0.0,0.0,0.0,-5.8309,0.0,0.0,0.0,0.0,0.0,0.0,0.0,-6.3896,-6.4885,-6.5275,-6.593,-6.6455,-6.6689,-6.6112,-6.5671,-6.5447,-6.4754,-6.4686,-6.5252,-6.4822,-6.5222,-6.6313,-6.5829,-6.5878,-6.6211,-6.4077,-6.3057,-6.2776,-6.0698,-5.9826,-5.9761,-5.9233,-5.9317,-5.9744,-5.9061,-5.9246,-5.9744,0.0,0.0,0.0,0.0,0.0,0.0,0.0,-3.2106,-3.2435,-3.4216,-3.406,-3.3627,-3.3209,-3.3538,-3.3912,0.0,0.0,0.0,0.0,0.0,0.0,0.0,0.0,0.0,0.0,0.0,0.0,0.0,0.0,0.0,0.0,0.0,0.0,0.0,0.0,0.0,0.0,0.0,0.0,0.0,0.0,0.0,0.0,0.0,0.0,0.0,0.0,0.0,0.0,0.0,-4.1382,-4.3846,-4.581,-4.7607,-4.9132,-4.9898,-5.1,-5.2087,-5.2509,-5.2913,-5.3164,-5.302,-5.1734,-4.9896,-4.7709,0.0,0.0,0.0,0.0,-3.8651,-3.7899,0.0,0.0,0.0,0.0,0.0,0.0,0.0,0.0,0.0,0.0,0.0,0.0,0.0,0.0,0.0,-6.3961,-6.4861,-6.5283,-6.6457,-6.7157,-6.7202,-6.6523,-6.6174,-6.6174,-6.5479,-6.5285,-6.559,-6.5657,-6.6069,-6.6707,-6.6689,-6.6453,-6.5924,-6.4439,-6.3376,-6.2562,-6.1082,-6.045,-6.045,-6.0107,-6.017,-6.0419,-6.0107,-5.9966,-5.9955,0.0,0.0,0.0,0.0,0.0,0.0,0.0,-3.2832,-3.3291,-3.5912,-3.6214,-3.5853,-3.5027,-3.4935,-3.5102,0.0,0.0,0.0,0.0,0.0,0.0,0.0,0.0,0.0,0.0,0.0,0.0,0.0,0.0,0.0,0.0,0.0,0.0,0.0,0.0,0.0,0.0,0.0,0.0,0.0,0.0,0.0,0.0,0.0,0.0,0.0,0.0,0.0,0.0,0.0,-4.0507,-4.3016,-4.4362,-4.6873,-4.9462,-5.0169,-5.1145,-5.2179,-5.2986,-5.3185,-5.3127,-5.2779,-5.102,-4.864,-4.5853,-4.3322,0.0,0.0,-3.7279,-3.7509,-3.6665,0.0,0.0,0.0,0.0,0.0,0.0,0.0,0.0,0.0,0.0,0.0,0.0,0.0,0.0,0.0,-6.3613,-6.453,-6.5503,-6.6916,-6.7687,-6.7687,-6.7192,-6.6899,-6.6899,-6.6204,-6.5891,-6.6064,-6.6493,-6.6783,-6.6928,-6.7277,-6.6784,-6.5581,-6.4647,-6.3615,-6.2442,-6.1519,-6.1102,-6.112,-6.0956,-6.0985,-6.1091,-6.0956,-6.0676,-6.0393,0.0,0.0,0.0,0.0,0.0,0.0,0.0,-3.4221,-3.5111,-3.7727,-3.8053,-3.7693,-3.6773,-3.6671,-3.6394,0.0,0.0,0.0,0.0,0.0,0.0,0.0,0.0,0.0,0.0,0.0,0.0,0.0,0.0,0.0,0.0,0.0,0.0,0.0,0.0,0.0,0.0,0.0,0.0,0.0,0.0,0.0,0.0,0.0,0.0,0.0,0.0,0.0,0.0,0.0,0.0,-4.0609,-4.1307,-4.4691,-4.86,-4.9444,0.0,0.0,-5.2986,-5.3185,-5.2959,-5.1977,-5.0456,-4.8336,-4.4989,0.0,0.0,0.0,-3.5965,-3.5797,-3.5054,-3.7558,0.0,0.0,0.0,0.0,0.0,0.0,0.0,0.0,0.0,0.0,0.0,0.0,0.0,-6.278,-6.3613,-6.4769,-6.6311,-6.721,-6.7687,-6.7687,-6.766,-6.7615,-6.7615,-6.6928,-6.6899,-6.7488,-6.6957,-6.7032,-6.7596,-6.6908,-6.6523,-6.6305,-6.4765,-6.4024,-6.3818,-6.2377,-6.1796,-6.1741,-6.1149,-6.1265,-6.1741,-6.1102,-6.1236,-6.163,0.0,0.0,0.0,0.0,0.0,0.0,-3.4003,-3.3949,-3.4921,-3.86,-3.8639,-3.8363,-3.8512,-3.807,-3.7196,-3.5825,0.0,0.0,0.0,0.0,0.0,0.0,0.0,0.0,0.0,0.0,0.0,0.0,0.0,0.0,0.0,0.0,0.0,0.0,0.0,0.0,0.0,0.0,0.0,0.0,0.0,0.0,0.0,0.0,0.0,0.0,0.0,0.0,0.0,0.0,0.0,0.0,-3.9013,-4.157,0.0,0.0,-4.926,-5.0841,-5.2123,-5.2839,-5.2941,-5.1867,-5.0055,-4.7498,-4.3555,0.0,0.0,-3.5113,-3.4736,-3.4987,-3.4688,-3.6129,-3.8427,0.0,-4.4272,-4.7239,0.0,0.0,0.0,0.0,0.0,0.0,0.0,0.0,0.0,-6.278,-6.3613,-6.4365,-6.5007,-6.6274,-6.7192,-6.7696,-6.7687,-6.7687,-6.7687,-6.7433,-6.7433,-6.7687,-6.7433,-6.7195,-6.6971,-6.6641,-6.5962,-6.5007,-6.4365,-6.3796,-6.3257,-6.2687,-6.2438,-6.2412,-6.2166,-6.2219,-6.2412,-6.2121,-6.1987,-6.1869,0.0,0.0,0.0,0.0,0.0,-3.1375,-3.3993,-3.3856,-3.4833,-3.8708,-3.8683,-3.8523,-3.9145,-3.844,-3.742,-3.6151,-3.5584,0.0,0.0,0.0,0.0,0.0,0.0,0.0,0.0,0.0,-3.6206,-3.6206,0.0,0.0,0.0,0.0,0.0,0.0,0.0,0.0,0.0,0.0,0.0,0.0,0.0,0.0,0.0,0.0,0.0,0.0,0.0,0.0,0.0,0.0,0.0,0.0,0.0,0.0,0.0,0.0,-4.7388,-4.926,-5.1132,-5.2068,-5.2226,-5.1155,-4.9289,-4.6532,0.0,0.0,-3.8246,-3.4226,-3.4045,-3.4534,-3.4298,-3.5354,-3.7101,-3.9659,-4.2336,-4.5315,-4.8728,0.0,0.0,0.0,0.0,0.0,0.0,0.0,0.0,-6.278,-6.3374,-6.3833,-6.409,-6.5154,-6.6164,-6.6953,-6.699,-6.699,-6.699,-6.7228,-6.7228,-6.699,-6.7228,-6.6916,-6.6145,-6.5907,-6.5154,-6.409,-6.3833,-6.3374,-6.278,-6.278,-6.278,-6.278,-6.278,-6.278,-6.278,-6.278,-6.2534,-6.2121,0.0,0.0,0.0,0.0,0.0,0.0,-3.3993,-3.4345,-3.5264,-3.7966,-3.8306,-3.8306,-3.8306,-3.7529,-3.6958,-3.68,-3.5883,0.0,0.0,0.0,0.0,0.0,0.0,0.0,0.0,0.0,-3.6206,-3.6206,-3.7002,-3.7401,0.0,0.0,0.0,0.0,0.0,0.0,0.0,0.0,0.0,0.0,0.0,0.0,0.0,0.0,0.0,0.0,0.0,0.0,0.0,0.0,0.0,0.0,0.0,0.0,0.0,0.0,-4.5241,-4.7663,-5.0141,-5.082,-5.0578,-4.9496,-4.8012,-4.5529,0.0,-3.9405,-3.8246,-3.4226,-3.4045,-3.4371,-3.3556,-3.5426,-3.7376,-3.8273,-4.2555,-4.6359,-4.8067,0.0,0.0,0.0,0.0,0.0,0.0,0.0,0.0,-6.278,-6.2798,0.0,-6.4035,-6.4108,-6.4494,-6.5319,-6.5338,-6.5338,-6.5338,-6.6109,-6.6109,-6.5338,-6.6127,-6.609,-6.5301,-6.4494,-6.4108,-6.4035,-6.3191,-6.2798,-6.278,-6.278,-6.278,-6.278,-6.278,-6.278,-6.278,-6.278,-6.2798,-6.267,0.0,0.0,0.0,0.0,0.0,0.0,0.0,-3.3043,-3.4146,-3.6182,-3.7019,-3.7646,-3.8241,-3.7515,-3.7168,-3.7585,-3.621,0.0,0.0,0.0,0.0,0.0,0.0,0.0,0.0,-3.6291,-3.7306,-3.7912,-3.8717,-3.9104,-3.9085,-3.8281,0.0,0.0,0.0,0.0,0.0,0.0,0.0,0.0,0.0,0.0,0.0,0.0,0.0,0.0,0.0,0.0,0.0,0.0,0.0,0.0,0.0,0.0,0.0,0.0,0.0,0.0,-4.559,-4.6984,-4.7696,-4.5623,-4.4672,-4.3269,-3.9457,-3.8154,-3.6941,-3.4009,-3.361,-3.3701,-3.3447,-3.4948,-3.7239,-4.0405,-4.3177,0.0,0.0,0.0,0.0,0.0,0.0,0.0,0.0,0.0,-6.278,-6.278,-6.278,-6.2909,-6.3209,-6.3209,-6.3851,-6.5264,-6.5319,-6.5319,-6.5319,-6.5558,-6.5558,-6.5319,-6.5576,-6.5264,-6.4457,-6.4218,-6.3759,-6.3209,-6.2909,-6.278,-6.278,-6.278,-6.278,-6.278,-6.278,-6.278,-6.278,-6.278,-6.2456,-6.1942,0.0,0.0,0.0,0.0,0.0,0.0,0.0,-3.2179,-3.3164,-3.4922,-3.5657,-3.6482,-3.7684,-3.726,-3.7177,-3.7903,-3.6865,0.0,0.0,0.0,0.0,0.0,0.0,0.0,-3.5382,-3.6708,-3.7978,-3.9153,-3.9976,-4.0544,-4.0828,-4.0025,-3.9172,-3.8319,0.0,0.0,0.0,0.0,0.0,0.0,0.0,0.0,0.0,0.0,0.0,0.0,0.0,0.0,0.0,0.0,0.0,0.0,0.0,0.0,0.0,0.0,-3.8686,0.0,0.0,-4.4105,-4.4876,-4.3524,-4.2686,-4.1414,-3.8425,-3.7122,-3.5946,-3.3846,-3.3393,-3.3393,-3.3393,-3.4966,-3.7057,-3.937,-4.2191,0.0,0.0,0.0,0.0,0.0,0.0,0.0,0.0,-6.2432,-6.278,-6.278,-6.278,-6.278,-6.278,-6.278,-6.3301,-6.4328,-6.4365,-6.4365,-6.4365,-6.4677,-6.4677,-6.4365,-6.4695,-6.442,-6.3613,-6.3613,-6.3319,-6.278,-6.278,-6.278,0.0,-6.278,-6.278,-6.278,-6.278,-6.278,-6.2768,-6.2475,-6.2034,-6.1502,0.0,0.0,0.0,0.0,0.0,0.0,0.0,-3.1717,-3.2397,-3.4093,-3.4355,-3.5034,-3.6701,-3.6773,-3.7021,-3.7805,0.0,0.0,0.0,0.0,0.0,0.0,0.0,0.0,-3.6187,-3.7059,-3.8338,-4.0089,-4.0885,-4.1719,-4.2552,-4.1738,-4.0885,-3.9957,-3.9153,-3.7856,0.0,0.0,0.0,0.0,0.0,0.0,0.0,0.0,0.0,0.0,0.0,0.0,0.0,0.0,0.0,0.0,0.0,0.0,0.0,0.0,0.0,0.0,0.0,0.0,0.0,0.0,0.0,-3.9725,-3.7374,-3.6254,0.0,-3.3719,-3.3393,-3.3447,-3.3628,-3.5483,-3.6908,-3.656,-4.0422,0.0,0.0,0.0,0.0,0.0,0.0,0.0,0.0,-6.1924,-6.278,-6.278,-6.278,-6.278,-6.278,-6.278,-6.278,-6.278,-6.278,-6.278,-6.278,-6.3594,-6.3594,-6.2798,-6.3613,-6.3576,-6.278,-6.278,-6.278,-6.278,-6.278,-6.278,-6.278,-6.278,-6.278,-6.278,-6.275,-6.2713,-6.2622,-6.1814,-6.1465,-6.1208,0.0,0.0,0.0,0.0,0.0,0.0,0.0,0.0,0.0,0.0,-3.3996,-3.4779,-3.5751,-3.6415,-3.7026,0.0,0.0,0.0,0.0,0.0,0.0,0.0,0.0,0.0,-3.6206,-3.7647,-3.9513,-4.1814,-4.2022,-4.2867,-4.4289,-4.3493,-4.2318,-4.0847,-3.9995,-3.8698,0.0,0.0,0.0,0.0,0.0,0.0,0.0,0.0,0.0,0.0,0.0,-3.4835,0.0,0.0,0.0,0.0,0.0,0.0,0.0,0.0,-3.4981,-3.5518,-3.6454,0.0,-3.8269,-3.7815,-3.7323,-3.6633,0.0,-3.5023,-3.4606,0.0,0.0,0.0,-3.5817,-3.6125,-3.7462,-4.1651,0.0,0.0,0.0,0.0,0.0,0.0,0.0,0.0,0.0,-6.256,-6.278,-6.278,-6.278,-6.278,-6.278,-6.278,-6.278,-6.278,-6.278,-6.278,-6.278,-6.3007,-6.3007,-6.278,-6.3025,-6.3007,-6.278,-6.278,-6.278,-6.278,-6.278,-6.278,-6.278,-6.278,-6.278,-6.275,-6.2126,-6.1887,-6.1777,-6.0988,-6.0291,-5.9698,0.0,0.0,0.0,0.0,0.0,0.0,0.0,0.0,0.0,0.0,0.0,-3.4701,-3.5506,-3.6594,0.0,0.0,0.0,0.0,0.0,0.0,0.0,0.0,0.0,-3.6946,-3.7344,-3.8235,-3.9922,-4.2401,-4.2401,-4.3265,-4.4895,-4.4459,-4.336,-4.1681,-4.0081,-3.885,0.0,0.0,0.0,0.0,0.0,0.0,0.0,0.0,0.0,0.0,-3.5058,-3.4932,0.0,-3.5519,-3.5549,-3.533,0.0,0.0,0.0,0.0,-3.4399,-3.4527,-3.4912,-3.608,-3.7179,-3.7124,-3.6726,-3.6236,-3.5802,0.0,0.0,0.0,0.0,0.0,0.0,0.0,0.0,0.0,0.0,0.0,0.0,0.0,0.0,0.0,0.0,0.0,0.0,-6.2535,-6.278,-6.278,-6.278,-6.278,-6.278,-6.278,-6.278,-6.278,-6.278,-6.278,-6.278,-6.278,-6.278,-6.278,-6.278,-6.278,-6.278,-6.278,-6.278,-6.278,-6.278,-6.278,-6.2762,-6.2401,-6.2254,-6.2181,-6.1355,-6.1043,-6.0951,-6.0162,-5.9551,-5.9148,0.0,0.0,0.0,0.0,0.0,0.0,0.0,0.0,0.0,0.0,0.0,0.0,0.0,0.0,0.0,0.0,0.0,0.0,0.0,0.0,0.0,0.0,-3.7645,-3.7997,-3.886,-3.8869,-4.0089,-4.259,-4.2458,-4.3265,-4.4895,-4.4895,-4.4023,-4.2299,-4.0063,-3.9012,-3.8879,0.0,0.0,0.0,0.0,0.0,0.0,0.0,0.0,0.0,0.0,0.0,0.0,-3.5816,-3.5698,-3.5232,-3.5896,0.0,0.0,0.0,0.0,0.0,-3.4931,-3.6278,-3.7471,-3.7765,-3.7433,-3.6957,0.0,0.0,0.0,0.0,0.0,0.0,0.0,0.0,0.0,0.0,0.0,0.0,0.0,0.0,0.0,0.0,0.0,0.0,-6.1096,-6.1935,-6.2388,-6.2388,-6.2542,-6.2622,-6.2622,-6.275,-6.278,-6.278,-6.278,-6.278,-6.278,-6.278,-6.278,-6.278,-6.278,-6.278,-6.278,-6.278,-6.275,-6.2622,-6.2622,-6.2567,-6.2383,-6.1704,-6.141,-6.1337,-6.0529,-6.0236,-6.0126,-5.9294,-5.9001,-5.8933,0.0,0.0,0.0,0.0,0.0,0.0,0.0,0.0,0.0,0.0,0.0,0.0,0.0,0.0,0.0,0.0,0.0,0.0,0.0,0.0,0.0,-3.9346,-3.8742,-3.8815,-3.9692,-3.9667,-4.0908,-4.3493,-4.2773,-4.3265,-4.4895,-4.4895,-4.4023,-4.2344,-4.1294,-4.0412,-3.9711,-3.9711,0.0,0.0,0.0,0.0,0.0,0.0,0.0,0.0,0.0,0.0,0.0,-3.5236,-3.4931,-3.4394,-3.5018,0.0,0.0,0.0,0.0,0.0,-3.5679,-3.7168,-3.7825,-3.586,-3.6224,-3.6712,-3.5292,0.0,0.0,0.0,0.0,0.0,0.0,0.0,0.0,0.0,0.0,0.0,0.0,0.0,0.0,0.0,0.0,-5.9322,-6.0149,-6.045,-6.0597,-6.0597,-6.1343,-6.1777,-6.1777,-6.2438,-6.278,-6.278,-6.278,-6.278,-6.278,-6.278,-6.278,-6.278,-6.278,-6.278,-6.278,-6.278,-6.2438,-6.1777,-6.1777,-6.1392,-6.0768,-6.0639,-6.0584,-6.0511,-5.9698,-5.9368,-5.9276,-5.8492,-5.818,-5.8162,0.0,0.0,0.0,0.0,0.0,0.0,0.0,0.0,0.0,0.0,0.0,0.0,0.0,0.0,0.0,0.0,0.0,0.0,0.0,0.0,-3.992,-4.0438,-3.9652,-3.963,-4.0518,-4.0515,-4.1559,-4.3701,-4.3739,-4.4156,-4.4876,-4.3966,-4.3152,-4.2344,-4.1075,-4.0279,-3.99,-3.99,-3.99,0.0,0.0,0.0,0.0,0.0,0.0,0.0,0.0,0.0,0.0,0.0,-3.5055,-3.477,-3.4945,0.0,0.0,0.0,0.0,0.0,-3.4743,-3.6109,-3.7021,-3.5809,-3.7322,-3.8899,-3.8122,0.0,0.0,0.0,0.0,0.0,0.0,0.0,0.0,0.0,0.0,0.0,0.0,0.0,0.0,0.0,0.0,-5.895,-5.9315,-5.9926,-6.0304,-6.0304,-6.0725,-6.0951,-6.0951,-6.13,-6.1502,-6.1502,-6.1502,-6.1502,-6.1502,-6.1502,-6.1722,-6.2144,-6.2144,-6.1924,-6.1502,-6.1502,-6.13,-6.0951,-6.0951,-6.075,-6.0382,-5.9942,-5.9758,-5.9685,-5.8877,-5.8547,-5.851,-5.8143,-5.7997,-5.7997,0.0,0.0,0.0,0.0,0.0,0.0,0.0,0.0,0.0,0.0,0.0,0.0,0.0,0.0,0.0,0.0,0.0,0.0,0.0,-3.9656,-3.9991,-4.0752,-4.0259,-4.0516,-4.168,-4.1309,-4.2051,-4.3985,-4.48,-4.5293,-4.5445,-4.3587,-4.259,-4.2337,-4.0866,-4.0089,-3.99,-3.99,-3.9889,0.0,0.0,0.0,0.0,0.0,0.0,0.0,0.0,0.0,0.0,0.0,0.0,0.0,0.0,0.0,0.0,-3.399,-3.3807,-3.388,-3.4284,-3.5312,-3.6362,-3.6633,0.0,-4.0349,-4.0715,-4.0264,0.0,0.0,0.0,0.0,0.0,0.0,0.0,0.0,0.0,0.0,0.0,-5.6042,-5.6722,-5.7216,-5.8025,-5.8531,-5.8531,-5.9298,-5.9784,-5.9784,-5.9992,-6.0126,-6.0126,-6.0309,-6.0401,-6.0401,-6.0401,-6.0401,-6.0401,-6.0401,-6.0713,-6.1318,-6.1318,-6.1006,-6.0401,-6.0401,-6.0309,-6.0126,-6.0126,-6.0015,-5.9795,-5.9189,-5.8933,-5.8854,-5.8235,-5.7997,-5.7997,-5.7997,-5.7997,-5.7997,0.0,0.0,0.0,0.0,0.0,0.0,0.0,0.0,0.0,0.0,0.0,0.0,0.0,0.0,0.0,0.0,0.0,0.0,0.0,-3.9263,-3.9664,-3.9799,-4.0439,-4.1655,-4.3462,-4.1938,-4.2316,-4.4819,-4.5672,-4.6487,-4.7169,-4.4743,-4.317,-4.2363,-4.1491,-4.0658,-3.99,-3.99,-3.9848,-3.9728,-3.8934,0.0,0.0,0.0,0.0,0.0,0.0,0.0,0.0,0.0,0.0,0.0,0.0,0.0,-3.3862,-3.3825,-3.3807,-3.4137,-3.5697,-3.6211,-3.6652,-3.8141,-3.8593,0.0,-4.0477,-4.0701,0.0,-4.245,0.0,0.0,0.0,0.0,0.0,0.0,0.0,0.0,0.0,0.0,-5.7504,-5.7577,-5.7656,-5.7692,-5.7692,-5.7867,-5.7998,-5.7998,-5.8789,-5.9276,-5.9276,-5.9997,-6.0401,-6.0401,-6.0401,-6.0401,-6.0401,-6.0401,-6.0438,-6.0493,-6.0493,-6.0456,-6.0401,-6.0401,-5.9997,-5.9276,-5.9276,-5.8877,-5.8162,-5.8107,-5.8088,-5.807,-5.8015,-5.7997,-5.7997,-5.7997,-5.7997,-5.7997,0.0,0.0,0.0,0.0,0.0,0.0,0.0,0.0,0.0,0.0,0.0,0.0,0.0,0.0,0.0,0.0,0.0,0.0,0.0,-3.8844,-3.9452,-4.0518,-4.046,-4.1209,-4.2925,-4.3249,-4.4164,-4.571,-4.6032,-4.6601,-4.7321,-4.4308,-4.2716,-4.2344,-4.098,-4.0203,-3.99,-3.9867,-3.9815,-3.9773,-3.9418,0.0,0.0,0.0,0.0,0.0,0.0,0.0,0.0,0.0,-3.4124,-3.3959,-3.3829,-3.3807,-3.3807,-3.3807,-3.3807,-3.3935,-3.4578,-3.5514,-3.6688,-3.8303,-3.904,0.0,0.0,-4.314,-4.4235,-4.5915,-4.6205,0.0,0.0,0.0,0.0,0.0,0.0,0.0,-5.728,-5.7562,-5.7697,-5.7601,-5.7673,-5.7721,-5.7721,-5.7857,-5.7909,-5.7909,-5.8249,-5.8455,-5.8455,-5.8749,-5.8914,-5.8914,-5.8914,-5.8914,-5.8914,-5.8914,-5.8914,-5.8914,-5.941,-5.9391,-5.8914,-5.8914,-5.8749,-5.8455,-5.8455,-5.829,-5.7997,-5.7997,-5.7997,-5.7997,-5.7997,-5.7997,-5.7997,-5.7997,-5.7997,-5.7997,0.0,0.0,0.0,0.0,0.0,0.0,0.0,0.0,0.0,0.0,0.0,0.0,0.0,0.0,0.0,0.0,0.0,0.0,-3.7818,-3.8357,-3.9174,-4.0355,-4.0399,-4.0952,-4.2088,-4.3879,-4.5237,-4.6139,-4.6411,-4.6708,-4.6961,-4.4137,-4.2659,-4.2344,-4.0942,-4.0317,-4.0279,-3.9675,-3.9414,-3.9373,-3.9323,-3.8309,0.0,0.0,0.0,0.0,0.0,0.0,0.0,0.0,-3.4049,-3.3947,-3.3847,-3.3807,-3.3807,-3.3807,-3.3972,-3.4192,-3.4192,-3.522,-3.6633,-3.7973,0.0,0.0,-4.3592,-4.4967,-4.6208,-4.811,-4.8452,0.0,0.0,0.0,0.0,0.0,-5.5738,-5.7216,-5.7807,-5.7862,-5.7815,-5.7745,-5.7792,-5.7862,-5.7862,-5.795,-5.7997,-5.7997,-5.7997,-5.7997,-5.7997,-5.7997,-5.7997,-5.7997,-5.7997,-5.7997,-5.7997,-5.7997,-5.7997,-5.7997,-5.8565,-5.8529,-5.7997,-5.7997,-5.7997,-5.7997,-5.7997,-5.7997,-5.7997,-5.7997,-5.7997,-5.7997,-5.7997,-5.7997,-5.7997,-5.7997,-5.7997,-5.7997,0.0,0.0,0.0,0.0,0.0,0.0,0.0,0.0,0.0,0.0,0.0,0.0,0.0,0.0,0.0,0.0,0.0,0.0,-3.6377,-3.7861,-3.8813,-3.8899,-4.029,-4.1149,-4.1286,-4.3568,-4.518,-4.6008,-4.6855,-4.6902,-4.6146,-4.4459,-4.3227,-4.2344,-4.1548,-4.1188,-4.1056,-3.9326,-3.8553,-3.8486,-3.841,-3.7382,-3.5991,0.0,0.0,0.0,0.0,0.0,0.0,0.0,-3.3698,-3.3712,-3.378,-3.3807,-3.3825,-3.3807,-3.438,-3.5023,-3.5004,-3.5628,-3.6505,0.0,0.0,0.0,-4.4986,-4.5772,-4.6485,-4.8778,0.0,-4.938,-5.0253,0.0,0.0,-5.406,-5.6332,-5.7997,-5.7997,-5.7997,-5.7997,-5.7997,-5.7997,-5.7997,-5.7997,-5.7997,-5.7997,-5.7997,-5.7997,-5.7997,-5.7997,-5.7997,-5.7997,-5.7997,-5.7997,-5.7997,-5.7997,-5.7997,-5.7997,-5.7997,-5.7997,-5.7997,-5.7997,-5.7997,-5.7997,-5.7997,-5.7997,-5.7997,-5.7997,-5.7997,-5.7997,-5.7997,-5.7997,-5.7997,-5.7997,-5.7997,-5.7997,-5.7997,0.0,0.0,0.0,0.0,0.0,0.0,0.0,0.0,0.0,0.0,0.0,0.0,0.0,0.0,0.0,0.0,0.0,0.0,-3.7129,-3.7163,-3.7721,-3.8915,-3.9421,-3.9938,-4.0433,-4.2113,-4.4002,-4.6152,-4.5805,-4.5211,-4.4421,-4.3322,-4.2356,-4.1548,-4.1302,-4.0514,-3.9326,-3.8768,-3.8165,-3.757,-3.7513,-3.6859,-3.5935,0.0,0.0,0.0,0.0,0.0,0.0,0.0,0.0,0.0,-3.3766,-3.4573,-3.533,-3.4156,-3.4798,-3.5661,-3.4486,-3.6028,0.0,0.0,0.0,0.0,0.0,-4.7895,0.0,0.0,-5.1459,-5.1088,-5.1328,0.0,0.0,-5.4082,-5.5856,-5.7354,-5.7923,-5.7997,-5.7997,-5.7997,-5.7997,-5.7997,-5.7997,-5.7997,-5.7997,-5.7997,-5.7997,-5.7997,-5.7997,-5.7997,-5.7997,-5.7997,-5.7997,-5.7997,-5.7997,-5.7997,-5.7997,-5.7997,-5.7997,-5.7997,-5.7997,-5.7997,-5.7997,-5.7997,-5.7997,-5.7997,-5.7997,-5.7997,-5.7997,-5.7997,-5.7997,-5.7997,-5.7997,-5.7997,-5.7997,-5.7997,0.0,0.0,0.0,0.0,0.0,0.0,0.0,0.0,0.0,0.0,-3.65,-3.7238,0.0,0.0,0.0,0.0,0.0,0.0,-3.7184,-3.6799,-3.7183,-3.8536,-3.8903,-3.9525,-4.0517,-4.1999,-4.3221,-4.417,-4.4284,-4.3774,-4.2662,-4.2813,-4.2446,-4.1681,-4.2052,-4.1223,-3.955,-3.8803,-3.8003,-3.7235,-3.7167,-3.6592,-3.581,0.0,0.0,0.0,0.0,0.0,0.0,0.0,0.0,0.0,-3.3359,0.0,-3.4688,-3.4009,-3.4743,-3.5789,-3.5752,0.0,0.0,0.0,0.0,0.0,0.0,0.0,0.0,0.0,0.0,-5.238,-5.2752,-5.3445,0.0,-5.5078,-5.6373,-5.7446,-5.7923,-5.7997,-5.7997,-5.7997,-5.7997,-5.7997,-5.7997,-5.7997,-5.7997,-5.7997,-5.7997,-5.7997,-5.7997,-5.7997,-5.7997,-5.7997,-5.7997,-5.7997,-5.7997,-5.807,-5.8115,-5.8115,-5.8246,-5.829,-5.8268,-5.8088,-5.7997,-5.7997,-5.7997,-5.7997,-5.7997,-5.7997,-5.7997,-5.7997,-5.7997,-5.7997,-5.7997,-5.7997,-5.7997,-5.7997,0.0,0.0,0.0,0.0,0.0,0.0,0.0,0.0,0.0,0.0,-3.6135,-3.6923,0.0,0.0,0.0,0.0,0.0,0.0,0.0,-3.6731,-3.7084,-3.7969,-3.8769,-3.9881,-4.1288,-4.2654,-4.2602,-4.1078,-4.2491,-4.2397,-4.1025,-4.2614,-4.2991,-4.2325,-4.3102,-4.2491,-4.0749,-3.8999,-3.7777,-3.7012,-3.6964,-3.6351,-3.5532,-3.6335,0.0,0.0,0.0,0.0,0.0,0.0,0.0,0.0,-3.2803,-3.27,-3.2949,-3.3592,-3.4417,-3.561,0.0,0.0,0.0,0.0,0.0,0.0,0.0,0.0,0.0,0.0,0.0,-5.328,-5.4121,-5.4899,-5.5719,-5.6542,-5.7428,-5.7997,-5.7997,-5.7997,-5.7997,-5.7997,-5.7997,-5.7997,-5.7997,-5.7997,-5.7997,-5.7997,-5.7997,-5.7997,-5.7997,-5.7997,-5.7997,-5.7997,-5.7997,-5.802,-5.8042,-5.8209,-5.8301,-5.8341,-5.8574,-5.8716,-5.8677,-5.8246,-5.802,-5.7997,-5.7997,-5.7997,-5.7997,-5.7997,-5.7997,-5.7997,-5.7997,-5.7997,-5.7997,-5.7997,-5.7997,-5.7997,0.0,0.0,0.0,0.0,0.0,0.0,0.0,0.0,0.0,0.0,0.0,0.0,0.0,0.0,0.0,0.0,0.0,0.0,0.0,-3.7084,-3.7084,-3.7969,-3.9849,-4.1289,-4.2199,-4.1794,-4.1372,-4.0953,-4.0719,-4.0408,-4.0106,-4.1158,-4.1559,-4.1454,-4.1609,-4.0681,-3.8943,-3.7189,-3.5871,-3.4951,-3.4927,-3.4697,-3.4358,-3.4562,-3.4273,0.0,0.0,0.0,0.0,0.0,0.0,0.0,-3.3334,-3.3797,-3.4311,-3.3854,-3.4811,-3.6138,0.0,0.0,0.0,0.0,0.0,0.0,0.0,0.0,0.0,0.0,0.0,-5.3219,-5.3405,-5.4616,-5.5625,-5.5831,-5.706,-5.7997,-5.7997,-5.7997,-5.7997,-5.7997,-5.7997,-5.7997,-5.7997,-5.7997,-5.7997,-5.7997,-5.7997,-5.7997,-5.7997,-5.7997,-5.7997,-5.7997,-5.7997,-5.8088,-5.8231,-5.8297,-5.8406,-5.8614,-5.8656,-5.8716,-5.8696,-5.8381,-5.816,-5.7997,-5.7997,-5.7997,-5.7997,-5.7997,-5.7997,-5.7997,-5.7997,-5.7997,-5.7997,-5.7997,-5.7997,-5.7997,0.0,0.0,0.0,0.0,0.0,0.0,0.0,0.0,0.0,0.0,0.0,0.0,0.0,0.0,0.0,0.0,0.0,0.0,0.0,-3.718,-3.745,-3.9123,-4.1006,-4.2016,-4.1963,-4.1325,-4.0575,-3.9693,-3.8519,-3.8772,-4.0401,-4.1267,-4.1919,-4.2393,-4.19,-4.0726,-3.8995,-3.7163,-3.5882,-3.5057,-3.5,-3.4828,-3.4629,-3.473,-3.4305,-3.3643,-3.3643,0.0,0.0,0.0,0.0,0.0,0.0,0.0,-3.32,-3.3575,-3.4069,-3.5009,0.0,0.0,0.0,0.0,0.0,0.0,0.0,0.0,0.0,0.0,0.0,-5.3775,-5.3775,-5.4766,-5.5721,-5.6106,-5.6877,-5.7556,-5.7941,-5.7997,-5.7997,-5.7997,-5.7997,-5.7997,-5.7997,-5.7997,-5.7997,-5.7997,-5.7997,-5.7997,-5.7997,-5.7997,-5.7997,-5.7997,-5.8092,-5.8186,-5.8301,-5.8516,-5.8702,-5.8843,-5.8944,-5.8944,-5.8823,-5.8471,-5.8253,-5.8138,-5.8024,-5.7997,-5.7997,-5.7997,-5.7997,-5.7997,-5.7997,-5.7997,-5.7997,-5.7997,-5.7997,-5.7997,0.0,0.0,0.0,0.0,0.0,0.0,0.0,0.0,0.0,0.0,0.0,0.0,0.0,0.0,0.0,0.0,0.0,0.0,0.0,-3.7238,-3.7988,-4.04,-4.1771,-4.2143,-4.1437,-4.1021,-4.0037,-3.8456,-3.6941,-3.7935,-4.1305,-4.1699,-4.2529,-4.3649,-4.2434,-4.1116,-3.9656,-3.7432,-3.6182,-3.5655,-3.5503,-3.531,-3.5138,-3.5261,-3.4555,-3.3456,-3.3414,-3.34,-3.3391,-3.3234,0.0,0.0,0.0,0.0,-3.1696,-3.3223,-3.3209,-3.3652,0.0,0.0,0.0,0.0,0.0,0.0,0.0,0.0,0.0,0.0,0.0,-5.4114,-5.4136,-5.4818,-5.557,-5.6271,-5.662,-5.7042,-5.7703,-5.7905,-5.7997,-5.7997,-5.7997,-5.7997,-5.7997,-5.7997,-5.7997,-5.7997,-5.7997,-5.7997,-5.7997,-5.7997,-5.7997,-5.7997,-5.8186,-5.8323,-5.8363,-5.8784,-5.9004,-5.9043,-5.9215,-5.9215,-5.9043,-5.86,-5.8366,-5.8279,-5.8115,-5.8042,-5.7997,-5.7997,-5.7997,-5.7997,-5.7997,-5.7997,-5.7997,-5.7997,-5.7997,-5.7997,0.0,0.0,0.0,0.0,0.0,0.0,0.0,0.0,0.0,0.0,-3.6692,-3.6731,-3.6865,-3.6769,0.0,0.0,0.0,0.0,-3.6865,0.0,0.0,-4.0419,-4.1179,-4.1561,-4.1485,-4.0539,-3.9597,-3.8665,-3.7804,-3.9127,-4.2443,-4.0927,-4.1494,-4.3691,-4.1285,-4.0056,-3.9592,-3.631,-3.4827,-3.4677,-3.4547,-3.4435,-3.435,-3.4241,-3.3666,-3.2882,-3.2708,-3.2642,-3.262,-3.2432,-3.2828,0.0,0.0,0.0,-3.2328,-3.3251,-3.3528,0.0,0.0,0.0,0.0,0.0,0.0,0.0,0.0,0.0,0.0,0.0,0.0,-5.3036,-5.3163,-5.3844,-5.4452,-5.4671,-5.5904,-5.684,-5.695,-5.7556,-5.7997,-5.7997,-5.7997,-5.7997,-5.7997,-5.7997,-5.7997,-5.7997,-5.7997,-5.7997,-5.7997,-5.7997,-5.7997,-5.7997,-5.8186,-5.8406,-5.8635,-5.8884,-5.9082,-5.9253,-5.929,-5.929,-5.9253,-5.9024,-5.8684,-5.8301,-5.8257,-5.8142,-5.7997,-5.7997,-5.7997,-5.7997,-5.7997,-5.7997,-5.7997,-5.7997,-5.7997,-5.7997,0.0,0.0,0.0,0.0,0.0,0.0,0.0,0.0,0.0,0.0,0.0,-3.6885,-3.7373,-3.6596,0.0,0.0,0.0,0.0,-3.6673,-3.7526,0.0,-4.0439,-4.0245,-4.0337,-4.0825,-3.9366,-3.8194,-3.7367,-3.6539,-3.8175,-4.2078,-4.1743,-4.2915,-4.5194,-4.2614,-4.0862,-3.9667,-3.665,-3.5066,-3.4545,-3.4502,-3.492,-3.551,-3.4659,-3.4284,-3.4066,-3.2998,-3.2608,-3.258,-3.2296,-3.2723,-3.3393,-3.3393,0.0,0.0,0.0,0.0,0.0,0.0,0.0,0.0,0.0,0.0,0.0,0.0,0.0,0.0,0.0,-5.2698,-5.2721,-5.285,-5.3248,-5.3697,-5.4217,-5.4943,-5.5611,-5.6051,-5.6418,-5.6657,-5.6657,-5.6657,-5.6657,-5.6657,-5.6657,-5.6657,-5.6657,-5.6657,-5.6657,-5.6657,-5.6657,-5.6657,-5.6657,-5.6971,-5.7184,-5.7305,-5.7659,-5.8091,-5.8633,-5.9047,-5.9253,-5.9309,-5.9197,-5.8985,-5.8681,-5.8409,-5.8253,-5.816,-5.8042,-5.7997,-5.7997,-5.7997,-5.7997,-5.7997,-5.7997,-5.7997,-5.7997,0.0,0.0,0.0,0.0,0.0,0.0,0.0,0.0,0.0,0.0,0.0,0.0,-3.7603,0.0,0.0,0.0,0.0,0.0,-3.6365,0.0,0.0,0.0,-3.9257,-3.918,-3.9382,-3.8244,-3.7132,-3.6103,-3.5654,-3.7689,-4.1996,-4.2859,-4.4681,-4.7112,-4.4544,-4.234,-4.0363,-3.753,-3.6087,-3.5716,-3.5335,-3.5859,-3.6801,-3.608,-3.5875,-3.5786,-3.3985,-3.3305,-3.3191,-3.2451,-3.2723,-3.3357,-3.3158,-3.227,0.0,0.0,0.0,0.0,0.0,0.0,0.0,0.0,0.0,0.0,0.0,0.0,0.0,0.0,-5.215,-5.234,-5.2403,-5.27,-5.3156,-5.376,-5.41,-5.4514,-5.51,-5.5401,-5.5548,-5.5548,-5.5592,-5.5614,-5.5614,-5.5614,-5.5614,-5.5614,-5.5614,-5.5614,-5.5614,-5.5614,-5.5614,-5.5636,-5.6004,-5.6209,-5.6267,-5.6687,-5.7206,-5.7807,-5.8353,-5.8634,-5.8689,-5.8896,-5.8915,-5.8763,-5.8505,-5.8363,-5.8279,-5.807,-5.7997,-5.7997,-5.7997,-5.7997,-5.7997,-5.7997,-5.7997,-5.7997,0.0,0.0,0.0,0.0,0.0,0.0,0.0,0.0,0.0,0.0,0.0,0.0,-3.675,-3.6,-3.55,-3.55,-3.55,0.0,0.0,0.0,0.0,0.0,0.0,0.0,-3.6916,-3.7486,-3.7057,-3.5537,-3.6255,-3.8819,-4.3038,-4.3846,-4.6019,-4.9125,-4.6455,-4.4169,-4.2137,-3.8693,-3.786,-3.8732,-3.7333,-3.7002,-3.7501,-3.8615,-3.86,-3.7696,-3.5769,-3.5026,-3.4701,-3.2829,-3.2723,-3.3266,-3.2506,-3.2198,-3.1999,0.0,0.0,0.0,0.0,0.0,0.0,0.0,0.0,0.0,0.0,0.0,0.0,0.0,-5.0943,-5.1532,-5.1402,-5.2158,-5.2824,-5.2878,-5.3521,-5.4032,-5.4068,-5.4856,-5.5418,-5.5418,-5.5507,-5.5614,-5.5614,-5.5614,-5.5614,-5.5614,-5.5614,-5.5614,-5.5614,-5.5614,-5.5677,-5.58,-5.6064,-5.6267,-5.6384,-5.6724,-5.6925,-5.6962,-5.7,-5.7018,-5.7056,-5.7807,-5.8164,-5.8165,-5.8527,-5.8532,-5.8279,-5.807,-5.7997,-5.7997,-5.7997,-5.7997,-5.7997,-5.7997,-5.7997,-5.7997,0.0,0.0,0.0,0.0,0.0,0.0,0.0,0.0,0.0,0.0,0.0,0.0,0.0,-3.5981,-3.55,-3.55,-3.55,0.0,0.0,0.0,0.0,0.0,0.0,0.0,-3.6712,-3.6952,-3.6567,-3.55,-3.5788,-3.7815,-4.1458,-4.2874,-4.4444,-4.6042,-4.5696,-4.4777,-4.3311,-3.9993,-3.8632,-3.8684,-3.8234,-3.8671,-3.9584,-3.9555,-3.979,-3.9845,-3.8022,-3.6849,-3.5998,-3.5164,-3.457,-3.4027,-3.323,-3.2252,-3.1179,-2.9896,-3.0643,0.0,0.0,0.0,0.0,0.0,0.0,0.0,0.0,0.0,0.0,0.0,-5.0134,-5.0737,-5.0675,-5.1821,-5.2761,-5.2676,-5.2998,-5.3225,-5.3225,-5.3525,-5.3752,-5.3859,-5.3902,-5.3964,-5.4051,-5.4069,-5.4069,-5.4069,-5.4069,-5.4069,-5.4069,-5.4096,-5.4202,-5.4324,-5.457,-5.4858,-5.5114,-5.5693,-5.6009,-5.608,-5.6553,-5.6833,-5.6906,-5.7206,-5.7338,-5.7357,-5.7882,-5.8359,-5.8704,-5.8341,-5.8186,-5.8164,-5.8047,-5.7997,-5.7997,-5.7997,-5.7997,-5.7997,0.0,0.0,0.0,0.0,0.0,0.0,0.0,0.0,-3.5692,-3.6231,0.0,0.0,0.0,0.0,-3.55,-3.55,-3.55,-3.55,-3.55,-3.55,0.0,0.0,0.0,0.0,-3.6308,-3.6846,-3.6596,-3.55,-3.6058,-3.7623,-4.0131,-4.1566,-4.2945,-4.4218,-4.3991,-4.413,-4.4355,-4.1628,-4.0415,-4.0285,-4.003,-4.0492,-4.1366,-4.2004,-4.226,-4.2169,-4.1381,-3.9881,-3.8231,-3.7856,-3.6781,-3.5332,-3.3946,-3.1982,-3.0002,-2.8971,-3.0181,-3.1974,-3.2518,0.0,0.0,0.0,0.0,0.0,0.0,0.0,0.0,0.0,-4.8898,-4.9556,-4.9803,-5.0998,-5.2003,-5.2127,-5.2445,-5.269,-5.269,-5.2717,-5.2783,-5.2934,-5.2977,-5.3042,-5.3185,-5.3185,-5.3185,-5.3185,-5.3185,-5.3185,-5.3185,-5.3274,-5.3402,-5.3639,-5.3889,-5.4145,-5.4409,-5.4884,-5.5146,-5.5199,-5.569,-5.5971,-5.6061,-5.6343,-5.6455,-5.6494,-5.7192,-5.7921,-5.8591,-5.8384,-5.8301,-5.8297,-5.807,-5.7997,-5.7997,-5.7997,-5.7997,-5.7997,0.0,0.0,0.0,0.0,0.0,0.0,0.0,0.0,-3.5519,-3.5538,0.0,0.0,0.0,0.0,0.0,-3.5577,-3.5577,-3.5558,-3.55,-3.55,-3.55,-3.55,-3.625,0.0,-3.5519,-3.7084,-3.7142,-3.55,-3.7142,-3.8373,-3.9246,-4.0054,-4.1766,-4.4047,-4.1593,-4.2294,-4.517,-4.3446,-4.3158,-4.3814,-4.2813,-4.2435,-4.2818,-4.605,-4.6163,-4.471,-4.5735,-4.4172,-4.1523,-4.0831,-3.9286,-3.7191,-3.4558,-3.1401,-2.8672,-2.8636,-2.9789,-3.1071,0.0,0.0,0.0,0.0,0.0,0.0,0.0,0.0,0.0,0.0,-4.7132,-4.8008,-4.8695,-4.9597,-5.0439,-5.1108,-5.1919,-5.2462,-5.2498,-5.2559,-5.2654,-5.2783,-5.2893,-5.306,-5.3185,-5.3185,-5.3185,-5.3185,-5.3185,-5.3185,-5.3185,-5.3274,-5.3502,-5.3907,-5.4146,-5.4342,-5.4409,-5.4409,-5.4409,-5.4409,-5.4409,-5.4409,-5.4428,-5.5199,-5.5555,-5.5612,-5.6474,-5.7191,-5.775,-5.8124,-5.8304,-5.8297,-5.8092,-5.802,-5.802,-5.7997,-5.7997,-5.7997,0.0,0.0,0.0,0.0,0.0,-3.6423,-3.5615,-3.55,-3.5712,0.0,0.0,0.0,-3.6442,-3.693,-3.7315,-3.7315,-3.7315,-3.6796,-3.5577,-3.55,-3.55,-3.55,-3.5712,-3.5731,-3.55,-3.5942,-3.5962,-3.55,-3.5962,-3.6615,-3.745,-3.8296,-3.9392,-4.0689,-4.0554,-4.1346,-4.2678,-4.0998,-4.1691,-4.3893,-4.2971,-4.4086,-4.6312,-4.6606,-4.7646,-4.8911,-4.8571,-4.7713,-4.6626,-4.5823,-4.3598,-4.0384,-3.579,-3.2494,-3.0224,-2.9626,-3.1021,-3.2614,-3.2035,0.0,0.0,0.0,0.0,0.0,0.0,0.0,0.0,0.0,-4.4151,-4.5548,-4.692,-4.7847,-4.8684,-4.9438,-5.0723,-5.1828,-5.2426,-5.2503,-5.2554,-5.2654,-5.2783,-5.2868,-5.2912,-5.31,-5.3164,-5.3063,-5.3143,-5.3185,-5.3185,-5.3499,-5.3794,-5.4036,-5.4252,-5.4375,-5.4409,-5.4409,-5.4409,-5.4409,-5.4409,-5.4409,-5.4409,-5.4634,-5.4728,-5.4784,-5.561,-5.6063,-5.6311,-5.745,-5.8283,-5.8784,-5.8385,-5.8209,-5.8186,-5.8047,-5.7997,-5.7997,0.0,0.0,0.0,-3.9123,-3.8623,-3.8123,-3.7661,-3.7296,-3.7373,0.0,0.0,0.0,-3.8296,-3.9065,-3.9296,-3.8604,-3.82,-3.743,-3.6096,-3.5692,-3.55,-3.55,-3.55,-3.5654,-3.5981,-3.6,-3.6,-3.6,-3.6,-3.6077,-3.6212,-3.6712,-3.7411,-3.8219,-3.8354,-3.9084,-4.0123,-3.8777,-4.0441,-4.4018,-4.469,-4.6078,-4.7862,-4.8905,-4.9801,-5.0621,-5.1288,-5.0466,-4.906,-4.9134,-4.6276,-4.1962,-3.7794,-3.4874,-3.2777,-3.1636,-3.3013,-3.4643,-3.3502,-3.4715,-3.6272,-3.6146,0.0,0.0,-3.7451,-3.8681,0.0,0.0,-4.2955,-4.4077,-4.5707,-4.6377,-4.7083,-4.8203,-4.9202,-5.0198,-5.1339,-5.1774,-5.2019,-5.2114,-5.2516,-5.2806,-5.2806,-5.2977,-5.3082,-5.2999,-5.3082,-5.3188,-5.3357,-5.3678,-5.3944,-5.4182,-5.4321,-5.4409,-5.4409,-5.4409,-5.4409,-5.4409,-5.4409,-5.4409,-5.4409,-5.4409,-5.4409,-5.4428,-5.4916,-5.5293,-5.5668,-5.6518,-5.7491,-5.8419,-5.8298,-5.8249,-5.8249,-5.8047,-5.7997,-5.7997,0.0,0.0,-4.0496,-4.0496,-4.0573,-4.0612,-4.0516,-3.99,-3.9727,0.0,-4.0112,-4.015,-4.1227,-4.1777,-4.1489,-3.9996,-3.8892,-3.7873,-3.6904,-3.6,-3.5538,-3.5635,-3.5558,-3.5923,-3.6827,-3.6654,-3.6615,-3.6692,-3.6615,-3.6192,-3.55,-3.55,-3.5885,-3.6538,-3.5827,-3.6385,-3.7815,-3.7334,-3.9712,-4.4038,-4.6628,-4.7866,-4.8515,-5.1804,-5.2156,-5.1208,-5.362,-5.2589,-5.026,-5.1262,-4.7985,-4.3016,-4.0453,-3.812,-3.6009,-3.4322,-3.5457,-3.6921,-3.5462,-3.6202,-3.7507,-3.8112,-3.717,0.0,-3.9278,-3.8989,-3.897,0.0,0.0,-4.2882,-4.4584,-4.4892,-4.5399,-4.692,-4.7391,-4.817,-4.9876,-5.0728,-5.1203,-5.1328,-5.2043,-5.2506,-5.2506,-5.2638,-5.2703,-5.2703,-5.2816,-5.3083,-5.3564,-5.3776,-5.4018,-5.4272,-5.434,-5.4392,-5.4392,-5.4409,-5.4409,-5.4409,-5.4409,-5.4409,-5.4409,-5.4409,-5.4409,-5.4409,-5.4392,-5.4786,-5.5463,-5.5539,-5.6388,-5.7669,-5.7996,-5.8172,-5.8219,-5.8065,-5.802,-5.7997,0.0,-3.9361,-4.0496,-4.0496,-4.1085,-4.1316,-4.0612,-4.0362,-4.0573,-4.1431,-4.2027,-4.3451,-4.6317,-4.4932,-4.3682,-4.3355,-4.1285,-3.9381,-3.7853,-3.6346,-3.5788,-3.6442,-3.5846,-3.6212,-3.7719,-3.6423,-3.6058,-3.6692,-3.6058,-3.5654,-3.55,-3.55,-3.5577,-3.5731,-3.5577,-3.6038,-3.7084,-3.895,-4.1107,-4.3361,-4.4549,-4.7462,-5.1161,-5.1875,-5.3191,-5.4641,-5.4538,-5.4493,-5.4242,-5.2792,-5.0221,-4.7087,-4.4004,-4.1567,-3.9386,-3.7118,-3.7587,-3.872,-3.8066,-3.8815,-3.9556,-3.8793,-3.8368,0.0,-3.6118,-3.7015,-3.8191,0.0,0.0,-3.9786,-4.1994,-4.2393,-4.2718,-4.3679,-4.5472,-4.7518,-4.9785,-5.0257,-5.0347,-5.0369,-5.0624,-5.0755,-5.0631,-5.0809,-5.0873,-5.0842,-5.1682,-5.2596,-5.3565,-5.3737,-5.3907,-5.4127,-5.4272,-5.4307,-5.4307,-5.4375,-5.4409,-5.4409,-5.4409,-5.4409,-5.4409,-5.4409,-5.4409,-5.4409,-5.4342,-5.44,-5.4588,-5.5081,-5.6295,-5.7828,-5.7742,-5.8002,-5.8403,-5.8223,-5.8088,-5.7997,-3.7353,-3.9046,-4.065,-4.1066,-4.1873,-4.2585,-4.2978,-4.267,-4.3008,-4.472,-4.6086,-4.7048,-4.7471,-4.6721,-4.5682,-4.4412,-4.2374,-4.0431,-3.8757,-3.745,-3.6731,-3.6692,-3.6731,-3.7334,-3.8623,-3.6969,-3.65,-3.7353,-3.6115,-3.55,-3.55,-3.55,-3.5942,-3.6712,-3.5865,-3.6423,-3.8027,-3.843,-4.0085,-4.2758,-4.6124,-4.9529,-5.2692,-5.3953,-5.5511,-5.6896,-5.6049,-5.5722,-5.5325,-5.2841,-5.1134,-4.9536,-4.6637,-4.4836,-4.3372,-4.1215,-4.1074,-4.1352,-4.0219,-4.0311,-4.0606,-4.0034,-3.9208,0.0,0.0,-3.7433,-3.7845,-3.8708,-3.8839,0.0,0.0,0.0,-4.1506,-4.2701,-4.3914,-4.5254,-4.6887,-4.8134,-4.9039,-4.9456,-4.9618,-4.9803,-5.0075,-5.0264,-5.0329,-5.0301,-5.1028,-5.1719,-5.238,-5.2568,-5.292,-5.3527,-5.3564,-5.3788,-5.42,-5.4234,-5.4252,-5.4252,-5.4252,-5.4252,-5.4252,-5.4252,-5.4252,-5.4252,-5.4199,-5.42,-5.4219,-5.4521,-5.5399,-5.6575,-5.6812,-5.7342,-5.796,-5.7663,-5.7739,-5.7973,-3.6846,-3.8623,-4.0535,-4.1393,-4.2547,-4.3797,-4.5152,-4.4893,-4.5451,-4.8029,-4.9586,-4.9856,-4.8279,-4.8394,-4.7894,-4.6163,-4.3739,-4.1777,-4.0593,-3.8931,-3.7834,-3.745,-3.7642,-3.8315,-3.9515,-3.768,-3.7038,-3.7757,-3.6231,-3.55,-3.55,-3.55,-3.6288,-3.77,-3.65,-3.7219,-3.9227,-3.8142,-3.9654,-4.325,-4.8548,-5.1298,-5.2529,-5.5415,-5.6953,-5.753,-5.7137,-5.656,-5.5547,-5.2955,-5.1892,-5.124,-4.88,-4.7694,-4.6941,-4.5138,-4.4649,-4.434,-4.2733,-4.231,-4.2186,-4.1643,-4.0475,-3.947,0.0,0.0,0.0,-3.9803,-3.9522,0.0,0.0,0.0,0.0,0.0,0.0,0.0,0.0,-4.516,0.0,-4.7949,-4.8242,-4.8608,-4.9222,-4.9065,-4.9177,-4.9856,-4.9955,-5.0378,-5.1176,-5.1378,-5.1856,-5.2702,-5.2652,-5.2934,-5.3587,-5.3773,-5.3866,-5.3866,-5.4034,-5.4109,-5.4109,-5.4109,-5.4109,-5.4109,-5.4073,-5.4073,-5.4073,-5.4055,-5.441,-5.5043,-5.5748,-5.6506,-5.7225,-5.7042,-5.7328,-5.7822,-3.6712,-3.818,-3.9688,-4.0516,-4.2604,-4.422,-4.4412,-4.5017,-4.6383,-4.8913,-4.9413,-5.0298,-5.2279,-5.1241,-5.0894,-5.2087,-4.7182,-4.4259,-4.4844,-4.0566,-3.8623,-4.0015,-3.8007,-3.795,-4.0304,-3.7969,-3.675,-3.6846,-3.5942,-3.55,-3.55,-3.55,-3.5981,-3.6865,-3.7469,-3.8315,-3.9381,-4.0681,-4.3192,-4.6586,-4.951,-4.9894,-4.9125,-5.3222,-5.4857,-5.5107,-5.6503,-5.6945,-5.6569,-5.4767,-5.3642,-5.2619,-5.0612,-4.9584,-4.8782,-4.7219,-4.7111,-4.7406,-4.6765,-4.6649,-4.6091,-4.3565,-4.3162,-4.2381,-3.8618,0.0,-3.9174,-3.809,0.0,0.0,0.0,0.0,0.0,0.0,0.0,0.0,-4.0836,-4.149,-4.2871,-4.4839,-4.5472,-4.5885,-4.6248,-4.4856,-4.5164,-4.8203,-4.739,-4.8086,-5.1212,-5.1398,-5.1489,-5.1651,-5.167,-5.1707,-5.1801,-5.2635,-5.3044,-5.3044,-5.3773,-5.4109,-5.4109,-5.4109,-5.4109,-5.4091,-5.4055,-5.4,-5.4,-5.3888,-5.3944,-5.4205,-5.5006,-5.5708,-5.6325,-5.7006,-5.7217,-5.7272,-3.6,-3.7777,-3.9246,-3.9084,-4.1162,-4.3028,-4.3528,-4.6817,-4.9298,-4.9394,-5.1529,-5.3087,-5.3183,-5.2568,-5.2433,-5.3145,-5.001,-4.7528,-4.6432,-4.3874,-4.2066,-4.1296,-4.0239,-4.0162,-4.1239,-3.8757,-3.745,-3.745,-3.6135,-3.55,-3.55,-3.55,-3.6712,-3.8892,-3.8796,0.0,-4.3662,-4.2874,-4.3932,-4.6317,-4.8375,-4.8759,-4.8779,-5.503,-5.7396,-5.7492,-5.8204,-5.8146,-5.7492,-5.5761,-5.4645,-5.3808,-5.2993,-5.1545,-5.0085,-4.9754,-4.9148,-4.8387,-4.7523,-4.7682,-4.7447,-4.4783,-4.4256,-4.3511,-4.0326,-3.9552,-3.95,-3.9432,0.0,0.0,0.0,0.0,0.0,0.0,-3.9309,0.0,0.0,0.0,-4.169,0.0,0.0,-4.2822,-4.4198,-4.3703,-4.4217,-4.6519,-4.5581,-4.6166,-4.9006,-4.9208,-4.9724,-5.0778,-5.0725,-5.0931,-5.1452,-5.2306,-5.2734,-5.2734,-5.3535,-5.3926,-5.3926,-5.3926,-5.3926,-5.3926,-5.3888,-5.387,-5.387,-5.3832,-5.3832,-5.3907,-5.426,-5.4873,-5.5652,-5.631,-5.6779,-5.7186,-3.5788,-3.7315,-3.845,-3.8065,-3.9912,-4.197,-4.3547,-4.7625,-5.0423,-5.0125,-5.2741,-5.4549,-5.426,-5.403,-5.4164,-5.4876,-5.2972,-5.0952,-4.9106,-4.7086,-4.522,-4.3596,-4.2423,-4.1904,-4.2162,-3.9662,-3.8123,-3.7642,-3.6192,-3.5615,-3.5827,-3.5596,-3.7046,-3.9823,-3.9931,-4.2297,-4.6124,0.0,-4.6067,-4.8172,-4.9606,-5.0741,-5.2106,-5.6973,-5.9242,-5.9838,-5.9588,-5.9127,-5.8377,-5.6646,-5.5665,-5.5107,-5.4645,-5.3222,-5.1778,-5.1919,-5.1097,-4.9934,-4.8846,-4.8959,-4.8681,-4.5661,-4.4781,-4.3976,-4.1348,-4.0438,-4.0294,-4.0781,-4.0645,0.0,0.0,0.0,-3.9211,-3.9093,0.0,-3.8557,0.0,-3.8973,0.0,0.0,0.0,0.0,-4.2687,-4.234,-4.2913,-4.5124,-4.3918,-4.4375,-4.729,-4.762,-4.8308,-4.9652,-4.974,-5.0079,-5.0711,-5.1509,-5.1973,-5.2063,-5.3106,-5.3591,-5.3591,-5.3833,-5.3889,-5.3813,-5.3813,-5.3813,-5.3813,-5.3813,-5.3851,-5.3926,-5.3926,-5.4354,-5.5063,-5.5817,-5.6416,-5.6995,-3.65,-3.6731,-3.7038,-3.7853,-3.9411,-4.167,-4.5017,-4.6394,-4.8212,-5.1404,-5.1942,-5.326,-5.6522,-5.6137,-5.6607,-5.9088,-5.628,-5.4337,-5.426,-4.9606,-4.7182,-4.7875,-4.3981,-4.22,-4.3047,-4.0566,-3.843,-3.6731,-3.5904,-3.5904,-3.6635,-3.5865,-3.6423,-3.818,-4.0642,-4.272,-4.4586,-4.7836,-5.1144,-5.428,-5.5126,-5.7434,-6.0146,-5.7926,-5.8619,-6.0646,-5.98,-5.9473,-5.9204,-5.7511,-5.6945,-5.6637,-5.5011,-5.4434,-5.4222,-5.3385,-5.3115,-5.2865,-5.199,-5.1582,-5.0397,-4.6235,-4.5,-4.3917,-4.0593,-4.1127,-4.2075,-4.1268,-4.226,-4.3019,-4.2202,-4.2108,-4.1362,-3.8915,-3.9431,0.0,0.0,0.0,0.0,0.0,0.0,0.0,0.0,-3.9771,-4.0157,-4.4224,-4.2218,-4.2722,-4.7078,-4.7557,-4.7833,-4.8168,-4.8669,-4.8946,-4.8983,-4.9782,-5.0347,-5.0678,-5.2327,-5.3097,-5.3044,-5.3906,-5.4107,-5.3813,-5.3813,-5.3813,-5.3813,-5.3813,-5.4,-5.4279,-5.4279,-5.4298,-5.449,-5.5807,-5.632,-5.6521,-3.7444,-3.7963,-3.8278,-3.8038,-3.895,-4.0843,-4.422,-4.7394,-5.0433,-5.326,-5.5088,-5.7011,-5.9261,-5.9773,-6.005,-6.0339,-5.9319,-5.7953,-5.6272,-5.2953,-5.1202,-5.1471,-4.7432,-4.5566,-4.6394,-4.3393,-4.095,-3.92,-3.8411,-3.7853,-3.7546,-3.6692,-3.7507,-3.9727,-4.1162,-4.3989,0.0,0.0,0.0,0.0,-5.5145,-5.7742,-6.0704,-5.9838,-6.005,-6.0762,-6.0473,-6.0358,-6.0262,-5.9704,-5.8781,-5.7857,-5.7819,-5.628,-5.4549,-5.478,-5.4068,-5.3145,-5.2837,-5.3131,-5.2598,-4.8903,-4.7481,-4.6117,-4.2747,-4.2852,-4.3254,-4.1847,-4.3321,-4.4441,-4.3015,-4.2326,-4.1502,-4.0065,-3.9695,-3.9071,0.0,0.0,0.0,0.0,0.0,0.0,0.0,0.0,-4.0326,-4.2662,-4.181,-4.2705,-4.624,-4.7065,-4.7726,-4.8357,-4.893,-4.9241,-4.9241,-4.9811,-5.0272,-5.0619,-5.171,-5.261,-5.3339,-5.3641,-5.4012,-5.4463,-5.4463,-5.4463,-5.4463,-5.4463,-5.4528,-5.4639,-5.4639,-5.4639,-5.4831,-5.6396,-5.6829,-5.6837,-3.9106,-3.9183,-3.9103,-3.8923,-4.0104,-4.2008,-4.4797,-4.8856,-5.2395,-5.4626,-5.7146,-5.9377,-6.1069,-6.1493,-6.1647,-6.1685,-6.1435,-6.0165,-5.7627,-5.5934,-5.4607,-5.3703,-5.076,-4.924,-4.9442,-4.6451,-4.3874,-4.1862,-4.0739,-3.9738,-3.8873,-3.8027,-3.8507,-4.015,-4.1604,-4.4586,-4.8663,-5.1029,-5.3203,0.0,-5.6838,-5.8819,-6.08,-6.08,-6.08,-6.08,-6.08,-6.08,-6.08,-6.08,-6.0089,-5.9223,-5.9435,-5.8011,-5.6319,-5.6549,-5.5857,-5.4953,-5.4645,-5.4741,-5.4184,-5.1068,-4.9644,-4.8144,-4.4759,-4.4855,-4.5259,-4.3904,-4.4913,-4.5913,-4.5432,-4.3893,-4.2412,-4.1566,-4.0227,-3.8762,0.0,-3.6746,0.0,0.0,0.0,0.0,0.0,0.0,-3.9643,-4.1773,-4.131,-4.2237,-4.5235,-4.6612,-4.7587,-4.8194,-4.9065,-4.9544,-4.9544,-4.9746,-5.0054,-5.0463,-5.1209,-5.2141,-5.3223,-5.3527,-5.4078,-5.4791,-5.4791,-5.4791,-5.4791,-5.4791,-5.4866,-5.4966,-5.4966,-5.4966,-5.5161,-5.6729,-5.7442,-5.7824,-4.129,-4.0417,-3.9684,-4.0588,-4.272,-4.4893,-4.6692,-5.0452,-5.3741,-5.5588,-5.8011,-6.0242,-6.2043,-6.1512,-6.1647,-6.3108,-6.257,-6.1108,-5.8646,-5.8377,-5.728,-5.4972,-5.3876,-5.2972,-5.2173,-4.9567,-4.7009,-4.4489,-4.2777,-4.147,-4.0554,-3.9746,-3.9361,-3.9477,-4.1931,0.0,-4.7269,-5.226,-5.5915,-5.8511,-6.0146,-6.08,-6.08,-6.08,-6.08,-6.08,-6.08,-6.08,-6.08,-6.08,-6.08,-6.0666,-5.9838,-5.9531,-5.9358,-5.8588,-5.8338,-5.8127,-5.728,-5.6464,-5.5241,-5.2769,-5.1471,-4.9962,-4.6672,-4.7144,-4.8048,-4.7201,-4.7115,-4.7663,-4.9067,-4.6682,-4.4182,-4.3258,-4.095,-3.845,-3.6019,-3.6308,-3.65,0.0,0.0,0.0,0.0,0.0,-3.8173,-4.1423,-4.0755,0.0,0.0,-4.6145,-4.7376,-4.7704,-4.9049,-4.9792,-4.983,-4.9558,-4.9684,-5.0214,-5.083,-5.168,-5.2747,-5.3638,-5.4318,-5.4851,-5.4851,-5.4851,-5.4851,-5.4851,-5.5023,-5.5314,-5.5314,-5.5371,-5.5613,-5.6857,-5.8153,-5.9324,-4.1618,-4.2784,-4.3857,-4.4096,-4.4237,-4.5089,-4.7423,-4.9817,-5.2856,-5.7088,-5.9281,-6.1358,-6.3705,-6.4339,-6.3993,-6.2531,-6.2762,-6.2454,-6.1204,-5.9358,-5.8858,-6.01,-5.6876,-5.5261,-5.5673,-5.1972,-4.9086,-4.7124,-4.4797,-4.2912,-4.145,-4.0585,-4.0189,-4.0246,0.0,-4.4239,-4.8009,-5.1212,-5.5126,-5.93,-6.0358,-6.08,-6.08,-6.08,-6.08,-6.08,-6.08,-6.08,-6.08,-6.08,-6.08,-6.0762,-6.0531,-6.0012,-5.9454,-5.9261,-5.8781,-5.8261,-5.803,-5.78,-5.7319,-5.6011,-5.4107,-5.2164,-5.0625,-5.0615,-5.05,-4.9067,-5.026,-5.0952,-4.8817,-4.7721,-4.624,-4.3547,-4.095,-3.9073,-3.8411,-3.793,0.0,-3.8277,0.0,0.0,0.0,-3.7777,-3.8988,-3.9873,-4.0825,-4.2228,-4.4182,-4.539,-4.6647,-4.7962,-4.8777,-4.9489,-5.008,-4.983,-4.987,-5.0214,-5.1006,-5.1993,-5.3089,-5.3983,-5.4775,-5.5466,-5.5466,-5.5466,-5.5466,-5.5466,-5.552,-5.5596,-5.5596,-5.6383,-5.7539,-5.7638,-5.8809,-6.0376,-4.3694,-4.5829,-4.7594,-4.7614,-4.7914,-4.8635,-5.0067,-5.1481,-5.378,-5.778,-6.0089,-6.1897,-6.3339,-6.4589,-6.4743,-6.332,-6.3262,-6.2647,-6.1069,-6.0666,-6.0473,-6.0435,-5.9184,-5.8377,-5.8107,-5.5049,-5.2241,-4.975,-4.7221,-4.4739,-4.2354,-4.1489,-4.0681,0.0,0.0,-4.3874,-4.6759,-5.1529,-5.5857,-5.9588,-6.0454,-6.08,0.0,-6.08,-6.08,-6.08,-6.08,-6.08,-6.08,-6.08,-6.08,-6.08,-6.08,-6.0454,-6.0069,-6.0069,-5.9742,-5.9396,-5.9396,-5.9108,-5.8704,-5.8223,-5.6742,-5.5011,-5.3395,-5.3049,-5.2664,-5.1337,-5.1625,-5.1741,-5.0548,-4.8817,-4.6336,-4.2566,-4.1085,-4.0008,-3.8892,-3.8642,0.0,0.0,-3.7623,0.0,0.0,-3.7315,-3.8315,-3.87,-4.0277,-4.1643,-4.2585,-4.4517,-4.6201,-4.7528,-4.8624,-4.9567,-5.0402,-5.0123,-5.0123,-5.044,-5.1144,-5.2104,-5.3241,-5.4107,-5.4934,-5.5703,-5.5703,-5.5703,-5.5703,-5.5703,-5.5703,-5.5703,-5.5703,-5.6761,-5.8277,-5.8091,-5.9108,-6.0572,-4.6568,-4.8944,-5.0653,-5.0487,-5.202,-5.3407,-5.3848,-5.4536,-5.5876,-5.8319,-6.0839,-6.2466,-6.2601,-6.3897,-6.4724,-6.4609,-6.3801,-6.2358,-6.0146,-6.1858,-6.1781,-5.9069,-6.0858,-6.1262,-5.9877,-5.7857,-5.5261,-5.2077,-4.9288,-4.622,-4.2912,-4.2162,0.0,0.0,0.0,0.0,0.0,-5.2683,-5.7107,-5.9435,-6.0416,-6.08,-6.08,-6.08,-6.08,-6.08,-6.08,-6.08,-6.08,-6.08,-6.08,-6.08,-6.08,-6.08,-6.08,-6.08,-6.08,-6.08,-6.08,-6.0242,-5.9665,-5.9665,-5.9069,-5.7857,-5.553,-5.4914,-5.4587,-5.3703,-5.2375,-5.1722,-5.2972,-4.9837,-4.574,-4.167,-4.1546,-4.12,-3.8988,0.0,0.0,0.0,0.0,0.0,-3.7276,-3.7096,0.0,-3.795,-3.9457,-4.0439,-4.0669,-4.3498,-4.5701,-4.7019,-4.8471,-4.9702,-5.0693,-5.0421,-5.0421,-5.0702,-5.1398,-5.2242,-5.3241,-5.4203,-5.503,-5.5703,-5.5703,-5.5703,-5.5703,-5.5703,-5.5703,-5.5703,-5.5818,-5.6876,-5.8319,-5.8415,-5.9273,-6.0409,-4.8671,-5.0704,-5.195,-5.0566,-5.243,-5.501,-5.7784,-5.7885,-5.83,-6.0127,-6.257,-6.4436,-6.5147,-6.5493,-6.5378,-6.4666,-6.3801,-6.3096,-6.2666,-6.1762,-6.1589,-6.2397,-6.1531,-6.1235,-6.1639,-5.7877,-5.4953,-5.2972,-4.9048,-4.5365,-4.2019,-4.1865,-4.1258,0.0,0.0,0.0,-4.9846,-5.3953,-5.678,-5.8646,-6.0185,-6.08,-6.08,-6.08,-6.08,-6.08,-6.08,-6.08,-6.08,-6.08,-6.08,-6.08,-6.08,-6.08,-6.08,-6.08,-6.08,-6.08,-6.08,-6.0685,-6.0569,-6.0569,-5.9935,-5.8992,-5.7896,-5.7069,-5.631,-5.5434,-5.503,-5.4491,-5.3395,-5.0298,-4.6971,-4.4105,-4.3201,-4.272,-4.2277,-4.172,0.0,0.0,0.0,-3.9996,0.0,0.0,0.0,0.0,0.0,-4.0104,-4.1508,-4.2143,-4.4124,-4.7778,-4.8182,-4.9086,-5.0693,-5.0634,-5.0634,-5.0731,-5.22,-5.3007,-5.326,-5.478,-5.5568,-5.5703,-5.5703,-5.5703,-5.5703,-5.5703,-5.5703,-5.5761,-5.6503,-5.7396,-5.8377,-5.905,-5.9892,-6.0722,-5.2338,-5.3386,-5.4082,-5.3735,-5.5485,-5.7493,-5.9106,-6.1003,-6.205,-6.1531,-6.2531,-6.3455,-6.3878,-6.5109,-6.5551,-6.4686,-6.4224,-6.3608,-6.2724,-6.232,-6.207,-6.2012,-6.207,-6.1897,-6.1435,-5.9396,-5.6665,-5.3203,-5.0298,-4.6682,-4.247,-4.2,-4.1335,-4.0593,0.0,-4.6317,0.0,-5.3818,-5.6319,-5.8454,-6.0127,-6.08,-6.08,-6.08,-6.08,-6.08,-6.08,-6.08,-6.08,-6.08,-6.08,-6.08,-6.08,-6.08,-6.08,-6.08,-6.08,-6.08,-6.08,-6.08,-6.08,-6.08,-6.0473,-5.9858,-5.8588,-5.7973,-5.73,-5.5972,-5.5703,-5.5049,-5.2933,-5.0471,-4.8086,-4.599,-4.4566,-4.372,-4.372,-4.3008,-4.2297,0.0,0.0,0.0,0.0,0.0,0.0,0.0,0.0,-3.9354,-4.1046,-4.1546,-4.3335,-4.6701,-4.7644,-4.8721,-5.001,-5.0481,-5.0914,-5.1337,-5.2606,-5.3433,-5.3914,-5.5145,-5.5703,-5.5703,-5.5703,-5.5703,-5.5703,-5.5703,-5.5703,-5.578,-5.6656,-5.753,-5.8396,-5.9204,-6.005,-6.08,-5.5617,-5.6038,-5.6472,-5.698,-5.853,-5.9852,-6.039,-6.3571,-6.5166,-6.3178,-6.3217,-6.3435,-6.3435,-6.5224,-6.6147,-6.5474,-6.5089,-6.4243,-6.2724,-6.2897,-6.2454,-6.1127,-6.2166,-6.232,-6.1358,-6.08,-5.8377,-5.401,-5.1779,-4.8269,-4.3605,-4.2566,-4.1893,-4.1708,-4.4239,-4.7548,-5.1395,-5.3953,-5.6395,-5.8684,-6.0185,-6.08,-6.08,-6.08,-6.08,-6.08,-6.08,-6.08,-6.08,-6.08,-6.08,-6.08,-6.08,-6.08,-6.08,-6.08,-6.08,-6.08,-6.08,-6.08,-6.08,-6.08,-6.08,-6.0416,-5.8896,-5.8415,-5.7857,-5.6299,-5.5818,-5.4914,-5.2365,-5.0971,-4.9471,-4.725,-4.5893,-4.497,-4.4624,-4.4028,-4.3047,0.0,0.0,0.0,-3.9931,0.0,0.0,0.0,0.0,-3.8931,-4.0419,-4.1143,-4.2777,-4.5518,-4.7067,-4.8259,-4.9125,-5.0164,-5.1106,-5.1904,-5.2779,-5.3664,-5.453,-5.5318,-5.5703,-5.5703,-5.5703,-5.5703,-5.5703,-5.5703,-5.5799,-5.6049,-5.6934,-5.78,-5.8646,-5.9473,-6.0204,-6.08,-5.689,-5.7937,-5.8744,-5.8085,-5.9432,-6.137,-6.3675,-6.509,-6.5801,-6.557,-6.6878,-6.7821,-6.7821,-6.8032,-6.8129,-6.8038,-6.6667,-6.5378,-6.4436,-6.3012,-6.2139,-6.1985,-6.1358,-6.1666,-6.3051,-6.08,-5.8646,-5.6637,-5.2655,-4.8865,-4.5325,-4.372,-4.3739,-4.5229,-4.7778,-5.0433,-5.3126,-5.5673,-5.778,-5.9473,-6.0416,-6.08,-6.08,-6.08,-6.08,-6.08,-6.08,-6.08,-6.08,-6.08,-6.08,-6.08,-6.08,-6.08,-6.08,-6.08,-6.08,-6.08,-6.08,-6.08,-6.08,-6.08,-6.08,-6.055,-5.9608,-5.8819,-5.803,-5.708,-5.6252,-5.4914,-5.2365,-5.2423,-5.1548,-4.7538,-4.7375,-4.7201,-4.5691,-4.5421,-4.5017,-4.4066,0.0,0.0,-4.1508,-3.8173,0.0,0.0,-3.9188,-3.9573,-4.0458,-4.0573,-4.2151,-4.5498,-4.6528,-4.7413,-4.8221,-4.9875,-5.1106,-5.1904,-5.2779,-5.3664,-5.453,-5.5318,-5.5703,-5.5703,-5.5703,-5.5703,-5.5703,-5.5703,-5.6175,-5.6964,-5.7838,-5.8665,-5.9492,-6.0358,-6.0723,-6.08,-5.9315,-5.8915,-5.9194,-6.0921,-6.135,-6.2515,-6.559,-6.7269,-6.8186,-6.8186,-6.8321,-6.8385,-6.8385,-6.8385,-6.8385,-6.8385,-6.7802,-6.6609,-6.4724,-6.3974,-6.2916,-6.1389,-6.1493,-6.1877,-6.257,-6.157,-5.9973,-5.778,-5.4549,-5.1221,-4.7855,-4.6663,-4.7009,-4.8769,-5.1318,-5.328,-5.4838,-5.6896,-5.8454,-5.9588,-6.0454,-6.08,-6.08,-6.08,-6.08,-6.08,-6.08,-6.08,-6.08,-6.08,-6.08,-6.08,-6.08,-6.08,-6.08,-6.08,-6.08,-6.08,-6.08,-6.08,-6.08,-6.08,-6.08,-6.0569,-5.9704,-5.8877,-5.805,-5.7176,-5.631,-5.5088,-5.3049,-5.2538,-5.1722,-4.9529,-4.8567,-4.7875,-4.7182,-4.6682,0.0,-4.447,0.0,-4.1989,0.0,-3.9354,-3.8392,-3.9919,-3.8161,-3.7834,-3.9688,-4.0246,-4.1381,-4.3258,-4.6124,-4.7548,-4.7394,-4.9586,-5.1375,-5.2673,-5.3029,-5.3914,-5.5222,-5.5549,-5.5703,-5.5703,-5.5703,-5.5703,-5.5742,-5.6272,-5.6695,-5.7137,-5.8492,-5.9223,-5.9608,-6.0473,-6.08,-6.08,-6.1229,-6.0457,-6.0677,-6.3599,-6.375,-6.4494,-6.7417,-6.8917,-6.9783,-7.0014,-6.9533,-6.9148,-6.9148,-6.9148,-6.9148,-6.9148,-6.8917,-6.7802,-6.5493,-6.4878,-6.3589,-6.1281,-6.1543,-6.1851,-6.2101,-6.2101,-6.1235,-5.9415,-5.6876,-5.4241,-5.1587,-5.024,-5.0394,-5.1924,-5.4203,-5.5684,-5.6588,-5.83,-5.9358,-5.9935,-6.055,-6.08,-6.08,-6.08,-6.08,-6.08,-6.08,-6.08,-6.08,-6.08,-6.08,-6.08,-6.08,-6.08,-6.08,-6.08,-6.08,-6.08,-6.08,-6.08,-6.08,-6.08,-6.08,-6.0646,-6.0012,-5.9069,-5.7973,-5.6849,-5.6126,-5.5261,-5.3837,-5.2876,-5.1933,-5.0866,-4.9663,-4.8606,-4.7855,-4.7471,-4.6528,-4.4547,-4.3143,-4.2085,-4.1489,-3.9892,0.0,-4.0092,-3.8161,-3.7988,-4.0296,-4.07,-4.1508,-4.2874,-4.6067,-4.7586,-4.7259,-4.9779,-5.1779,-5.3203,-5.3453,-5.4337,-5.5703,-5.5703,-5.5703,-5.5703,-5.5703,-5.5703,-5.5761,-5.6637,-5.7157,-5.7511,-5.8954,-5.9665,-5.9954,-6.0569,-6.08,-6.08,-6.222,-6.2943,-6.3976,-6.5674,-6.6562,-6.7628,-6.9398,-6.9687,-6.9994,-7.0783,-7.0879,-7.0879,-7.0879,-7.0879,-7.0879,-7.0879,-7.0148,-6.8936,-6.7167,-6.5513,-6.3839,-6.2159,-6.1262,-6.1235,-6.2082,-6.2101,-6.2082,-6.2062,-5.9492,-5.778,-5.6849,-5.4318,-5.3606,-5.453,-5.6233,-5.7453,-5.8377,-6.005,-6.0781,-6.0781,-6.08,-6.08,-6.08,-6.08,-6.08,-6.08,-6.08,-6.08,-6.08,-6.08,-6.08,-6.08,-6.08,-6.08,-6.08,-6.08,-6.08,-6.08,-6.08,-6.08,-6.08,-6.08,-6.08,-6.08,-6.0781,-5.9492,-5.7819,-5.6069,-5.5703,-5.5453,-5.4626,-5.378,-5.2645,-5.0981,-5.0673,-4.9779,-4.7278,-4.7586,-4.7144,-4.4605,-4.2074,-4.0535,-4.0516,-3.8988,0.0,-3.9246,-4.0015,-4.1208,-4.2951,-4.2258,-4.2951,-4.5479,-4.6432,-4.7298,-4.8086,-5.0615,-5.2327,-5.3222,-5.4068,-5.4914,-5.5703,-5.5703,-5.5703,-5.5703,-5.5703,-5.5703,-5.5761,-5.6637,-5.7511,-5.8377,-5.9184,-6.0031,-6.0781,-6.08,-6.08,-6.08,-6.4073,-6.487,-6.5944,-6.7627,-6.8072,-6.8752,-7.0407,-7.0619,-7.0663,-7.086,-7.0898,-7.0898,-7.0898,-7.0898,-7.0898,-7.0898,-7.0667,-6.9802,-6.8109,-6.6936,-6.5282,-6.3012,-6.2127,-6.1831,-6.2101,-6.1524,-6.1762,-6.2916,-6.0377,-5.8704,-5.7877,-5.7069,-5.7126,-5.7953,-5.9088,-5.9742,-6.0031,-6.0569,-6.08,-6.08,-6.08,-6.08,-6.08,-6.08,-6.08,-6.08,-6.08,-6.08,-6.08,-6.08,-6.08,-6.08,-6.08,-6.08,-6.08,-6.08,-6.08,-6.08,-6.08,-6.08,-6.08,-6.08,-6.08,-6.08,-6.08,-5.9492,-5.7973,-5.6819,-5.6107,-5.5453,-5.4645,-5.3799,-5.2837,-5.1702,-5.1048,-4.999,-4.8009,-4.7952,-4.7375,-4.5421,-4.3959,-4.3085,-4.3085,-4.1566,-4.0719,-4.0989,-4.0681,-4.0746,-4.1304,-4.2181,-4.3066,-4.3874,-4.6374,-4.8125,-4.8971,-5.0923,-5.2635,-5.4087,-5.4376,-5.4914,-5.5703,-5.5703,-5.5703,-5.5703,-5.5703,-5.5703,-5.5799,-5.728,-5.805,-5.8434,-5.9838,-6.055,-6.08,-6.08,-6.08,-6.08,-6.5885,-6.6734,-6.7716,-6.9091,-6.9524,-7.0007,-7.1023,-7.1106,-7.103,-7.0979,-7.0925,-7.0898,-7.0898,-7.0898,-7.0898,-7.0898,-7.0898,-7.0341,-6.8975,-6.7763,-6.6263,-6.4359,-6.2878,-6.2101,-6.2101,-6.1581,-6.18,-6.2858,-6.157,-6.0666,-6.0185,-6.0185,-6.0454,-6.0954,-6.1493,-6.1743,-6.1743,-6.1743,-6.1743,-6.1743,-6.1743,-6.1743,-6.1743,-6.1743,-6.1743,-6.1704,-6.1396,-6.1281,-6.1243,-6.0916,-6.08,-6.08,-6.08,-6.08,-6.08,-6.08,-6.08,-6.08,-6.08,-6.08,-6.08,-6.08,-6.08,-6.0704,-6.0396,-5.9492,-5.8415,-5.7253,-5.6579,-5.5934,-5.5107,-5.426,-5.3395,-5.2519,-5.1683,-5.0433,-4.8394,-4.8105,-4.7355,-4.5355,-4.4624,-4.4047,-4.3412,-4.3278,-4.297,-4.2335,-4.2951,-4.322,-4.2912,-4.3316,-4.3989,-4.4951,-4.7644,-4.9471,-5.0337,-5.2029,-5.3414,-5.4491,-5.4799,-5.5203,-5.5703,-5.5703,-5.5703,-5.5703,-5.5703,-5.5876,-5.6299,-5.7723,-5.8492,-5.8896,-6.0262,-6.08,-6.08,-6.08,-6.08,-6.08,-6.7647,-6.858,-6.9332,-7.0166,-7.0863,-7.1313,-7.1302,-7.1201,-7.1118,-7.1106,-7.0992,-7.0912,-7.0898,-7.0898,-7.0898,-7.0898,-7.0898,-7.0571,-6.984,-6.8205,-6.6878,-6.6013,-6.3647,-6.2312,-6.2197,-6.2139,-6.2101,-6.2101,-6.2858,-6.325,-6.3288,-6.3231,-6.325,-6.3288,-6.3288,-6.3288,-6.3288,-6.3288,-6.3288,-6.3288,-6.3288,-6.3288,-6.3288,-6.3288,-6.3288,-6.3192,-6.2454,-6.2178,-6.2062,-6.1243,-6.0935,-6.0877,-6.0877,-6.0839,-6.08,-6.08,-6.08,-6.08,-6.08,-6.08,-6.08,-6.08,-6.08,-6.0589,-5.9781,-5.955,-5.905,-5.7503,-5.708,-5.6753,-5.5934,-5.5068,-5.4203,-5.3337,-5.2423,-5.0942,-4.8452,-4.8105,-4.7201,-4.4778,-4.4528,-4.3951,-4.2385,-4.4335,-4.5017,-4.3393,-4.6163,-4.7605,-4.6855,-4.5432,-4.5778,-4.8202,-4.9856,-5.1144,-5.2077,-5.3683,-5.453,-5.4587,-5.5338,-5.5703,-5.5703,-5.5703,-5.5703,-5.5703,-5.5761,-5.6252,-5.708,-5.7992,-5.8819,-5.9588,-6.0454,-6.08,-6.08,-6.08,-6.08,-6.08,-6.9517,-7.0371,-7.1021,-7.1243,-7.1404,-7.1504,-7.1465,-7.1375,-7.1269,-7.1118,-7.1068,-7.1018,-7.0912,-7.0898,-7.0898,-7.0898,-7.0898,-7.0821,-7.0629,-6.9648,-6.8417,-6.6878,-6.5647,-6.4378,-6.3051,-6.2397,-6.2101,-6.2101,-6.2281,-6.2704,-6.3288,-6.2666,-6.2704,-6.3288,-6.3288,-6.3288,-6.3288,-6.3288,-6.3288,-6.3288,-6.3288,-6.3288,-6.3288,-6.3288,-6.3288,-6.3281,-6.3089,-6.3031,-6.2974,-6.2781,-6.23,-6.1793,-6.1793,-6.1351,-6.08,-6.08,-6.08,-6.08,-6.08,-6.08,-6.08,-6.08,-6.08,-6.0742,-6.0531,-5.9973,-5.9396,-5.8992,-5.7877,-5.6945,-5.6733,-5.5491,-5.4203,-5.3337,-5.1952,-5.0317,-4.8375,-4.8105,-4.7644,-4.6432,-4.6836,-4.7048,-4.6663,-4.6605,-4.6144,-4.5094,-4.5748,-4.6105,-4.5913,-4.7355,-4.8759,-5.0029,-5.0481,-5.1722,-5.3857,-5.428,-5.4799,-5.5415,-5.5607,-5.5703,-5.5703,-5.5703,-5.5703,-5.5742,-5.6406,-5.681,-5.7118,-5.8607,-5.9338,-5.9588,-6.0454,-6.08,-6.08,-6.08,-6.08,-6.08,-7.0729,-7.127,-7.1598,-7.1598,-7.16,-7.1594,-7.1549,-7.1484,-7.1415,-7.13,-7.1224,-7.1166,-7.1093,-7.103,-7.0992,-7.0992,-7.0939,-7.0898,-7.0898,-7.0148,-6.9109,-6.7744,-6.6532,-6.5263,-6.3916,-6.307,-6.2647,-6.2647,-6.2647,-6.2878,-6.3288,-6.2858,-6.3089,-6.3897,-6.3897,-6.4128,-6.4493,-6.4493,-6.4493,-6.4493,-6.4493,-6.4493,-6.4493,-6.4493,-6.4493,-6.4436,-6.4051,-6.3897,-6.3839,-6.3435,-6.3012,-6.2647,-6.2647,-6.207,-6.1389,-6.1389,-6.1108,-6.08,-6.08,-6.08,-6.08,-6.08,-6.08,-6.08,-6.08,-6.0435,-5.9973,-5.9588,-5.8781,-5.7896,-5.7137,-5.6272,-5.4972,-5.2953,-5.1837,-5.0375,-4.7913,-4.7875,-4.7798,-4.7,-4.7605,-4.8259,-4.8663,-4.8298,-4.7855,-4.7375,-4.7711,-4.7942,-4.7942,-4.9586,-5.0587,-5.0712,-5.1828,-5.3087,-5.4491,-5.4857,-5.5261,-5.5703,-5.5703,-5.5703,-5.5703,-5.6107,-5.6291,-5.6349,-5.7223,-5.78,-5.8204,-5.9127,-5.9723,-6.0146,-6.0608,-6.08,-6.08,-6.08,-6.08,-6.08,-7.1453,-7.1598,-7.1598,-7.1598,-7.1598,-7.1598,-7.1598,-7.1549,-7.1513,-7.1494,-7.1395,-7.1313,-7.1291,-7.1201,-7.113,-7.113,-7.103,-7.0939,-7.0898,-7.0264,-6.9436,-6.8442,-6.7032,-6.5801,-6.482,-6.3935,-6.3435,-6.3288,-6.3185,-6.3185,-6.3288,-6.3185,-6.3589,-6.4397,-6.4397,-6.4801,-6.5513,-6.5647,-6.5705,-6.5724,-6.584,-6.5897,-6.5897,-6.5897,-6.5897,-6.5801,-6.5051,-6.4801,-6.4686,-6.3935,-6.3608,-6.3512,-6.3512,-6.2935,-6.2281,-6.2281,-6.1666,-6.0973,-6.0839,-6.08,-6.08,-6.08,-6.08,-6.08,-6.08,-6.08,-6.0589,-5.9858,-5.9588,-5.9069,-5.7638,-5.7176,-5.5915,-5.2635,-5.1981,-5.0769,-4.7538,-4.7778,-4.8086,-4.7548,-4.8182,-4.9029,-4.9894,-4.9856,-4.9837,-4.9952,-5.0529,-5.0933,-5.1077,-5.1856,-5.1991,-5.1308,-5.3376,-5.4549,-5.4684,-5.5357,-5.5703,-5.5703,-5.5818,-5.5895,-5.5934,-5.681,-5.7214,-5.7253,-5.8107,-5.8877,-5.9511,-5.9646,-6.0127,-6.08,-6.08,-6.08,-6.08,-6.08,-6.08,-6.08,-7.157,-7.1598,-7.1598,-7.1598,-7.1598,-7.1598,-7.1598,-7.1589,-7.1566,-7.1504,-7.1475,-7.1435,-7.1302,-7.128,-7.1269,-7.1269,-7.1247,-7.1142,-7.0912,-7.0783,-7.0014,-6.8475,-6.8148,-6.7301,-6.5724,-6.4839,-6.4051,-6.3288,-6.2627,-6.2627,-6.3288,-6.2589,-6.2724,-6.3512,-6.3512,-6.3589,-6.3762,-6.4493,-6.4801,-6.4878,-6.559,-6.5897,-6.5897,-6.5897,-6.5897,-6.5878,-6.5743,-6.5705,-6.5686,-6.5532,-6.5013,-6.4397,-6.4397,-6.382,-6.3108,-6.3108,-6.2531,-6.1735,-6.0993,-6.08,-6.08,-6.08,-6.08,-6.08,-6.08,-6.08,-6.0762,-6.0627,-6.0012,-5.9415,-5.9165,-5.7953,-5.6118,-5.3433,-5.2385,-5.0962,-4.8298,-4.8663,-4.9433,-5.0029,-5.0818,-5.1654,-5.2529,-5.1942,-5.1808,-5.2549,-5.2049,-5.2049,-5.2779,-5.3626,-5.403,-5.3914,-5.428,-5.4818,-5.5511,-5.5645,-5.5703,-5.5703,-5.6445,-5.681,-5.683,-5.7703,-5.8107,-5.8146,-5.8954,-5.9377,-5.9569,-6.0281,-6.0685,-6.08,-6.08,-6.08,-6.08,-6.08,-6.08,-6.08,-7.1559,-7.1557,-7.1547,-7.1594,-7.16,-7.1598,-7.1598,-7.1598,-7.1581,-7.1557,-7.1557,-7.154,-7.1474,-7.1436,-7.1406,-7.1406,-7.1343,-7.1247,-7.1111,-7.1074,-7.0509,-6.9256,-6.9162,-6.8341,-6.6571,-6.6147,-6.5301,-6.4012,-6.3628,-6.3397,-6.3288,-6.2916,-6.2935,-6.3288,-6.3288,-6.3288,-6.3339,-6.3743,-6.3897,-6.3974,-6.4859,-6.5205,-6.5243,-6.5724,-6.5897,-6.5897,-6.5897,-6.5897,-6.5897,-6.5897,-6.5628,-6.5301,-6.5301,-6.4705,-6.4012,-6.4012,-6.3089,-6.1908,-6.1031,-6.08,-6.08,-6.08,-6.08,-6.08,-6.08,-6.08,-6.08,-6.08,-6.0473,-6.0069,-5.9588,-5.8511,-5.7011,-5.4895,-5.3068,-5.1327,-4.9721,-4.9856,-5.025,-5.0654,-5.1818,-5.2953,-5.3818,-5.3106,-5.2972,-5.3837,-5.3087,-5.2991,-5.3857,-5.428,-5.4703,-5.5126,-5.5145,-5.5318,-5.5703,-5.5703,-5.5934,-5.6406,-5.681,-5.7253,-5.7723,-5.8569,-5.8954,-5.8992,-5.9838,-6.0204,-6.0223,-6.0627,-6.08,-6.08,-6.08,-6.08,-6.08,-6.08,-6.08,-6.08,-7.1514,-7.1494,-7.1512,-7.156,-7.1577,-7.1573,-7.16,-7.16,-7.1609,-7.1598,-7.1598,-7.1598,-7.1598,-7.1557,-7.1532,-7.1532,-7.1436,-7.1376,-7.1376,-7.1324,-7.0883,-6.996,-6.9683,-6.8897,-6.7499,-6.7275,-6.653,-6.5259,-6.485,-6.4299,-6.3633,-6.3433,-6.3325,-6.3288,-6.3313,-6.3313,-6.3308,-6.3531,-6.3608,-6.3666,-6.4339,-6.4609,-6.4647,-6.5128,-6.5416,-6.559,-6.559,-6.5724,-6.5897,-6.5897,-6.5897,-6.5897,-6.5897,-6.5436,-6.4897,-6.4897,-6.3839,-6.2435,-6.1377,-6.0954,-6.08,-6.08,-6.08,-6.08,-6.08,-6.08,-6.08,-6.08,-6.08,-6.0589,-5.9935,-5.9127,-5.7953,-5.6011,-5.4068,-5.2356,-5.1144,-5.1144,-5.1443,-5.1828,-5.2991,-5.4203,-5.528,-5.478,-5.4664,-5.5338,-5.4761,-5.4684,-5.5357,-5.5376,-5.5665,-5.628,-5.6107,-5.5992,-5.5992,-5.6203,-5.6646,-5.7311,-5.7503,-5.7934,-5.8607,-5.9435,-5.98,-5.9838,-6.0512,-6.08,-6.08,-6.08,-6.08,-6.08,-6.08,-6.08,-6.08,-6.08,-6.08,-6.08,-7.1485,-7.1494,-7.1494,-7.1514,-7.1504,-7.1542,-7.1579,-7.1607,-7.1605,-7.1598,-7.1598,-7.1598,-7.1598,-7.1598,-7.1589,-7.1589,-7.1581,-7.1581,-7.1581,-7.1568,-7.1097,-7.0045,-6.9211,-6.8728,-6.8582,-6.7785,-6.7327,-6.7192,-6.5572,-6.4725,-6.459,-6.3838,-6.3419,-6.3301,-6.3361,-6.3361,-6.3346,-6.4166,-6.4493,-6.4512,-6.457,-6.4609,-6.4532,-6.3782,-6.3993,-6.4705,-6.4705,-6.5205,-6.5897,-6.5897,-6.5897,-6.5897,-6.5897,-6.5859,-6.5801,-6.5801,-6.5147,-6.4051,-6.2447,-6.1408,-6.08,-6.08,-6.08,-6.08,-6.08,-6.08,-6.08,-6.08,-6.08,-6.0781,-6.0723,-5.9992,-5.8607,-5.6088,-5.553,-5.4587,-5.2154,-5.251,-5.3587,-5.5145,-5.5434,-5.6184,-5.7857,-5.7973,-5.7953,-5.803,-5.7973,-5.7953,-5.803,-5.803,-5.805,-5.8107,-5.7319,-5.6907,-5.6907,-5.7703,-5.8146,-5.8204,-5.8954,-5.9358,-5.9435,-6.03,-6.0704,-6.0704,-6.0762,-6.08,-6.08,-6.08,-6.08,-6.08,-6.08,-6.08,-6.08,-6.08,-6.08,-6.08,-7.1375,-7.1375,-7.1385,-7.1435,-7.1436,-7.1455,-7.1533,-7.1542,-7.1542,-7.155,-7.1531,-7.1531,-7.1531,-7.1577,-7.1594,-7.1594,-7.16,-7.1598,-7.1598,-7.16,-7.1375,-7.0891,-7.0551,-7.0096,-6.9523,-6.9192,-6.8756,-6.8214,-6.7001,-6.6397,-6.6356,-6.5465,-6.4756,-6.4228,-6.4262,-6.3943,-6.3438,-6.3785,-6.392,-6.3958,-6.4498,-6.471,-6.4748,-6.4925,-6.4843,-6.467,-6.4602,-6.4474,-6.4378,-6.4916,-6.5089,-6.5186,-6.5724,-6.5897,-6.5897,-6.5897,-6.5282,-6.4455,-6.382,-6.2647,-6.1485,-6.0935,-6.08,-6.08,-6.08,-6.08,-6.08,-6.08,-6.08,-6.08,-6.08,-6.0089,-5.9358,-5.8934,-5.7541,-5.6357,-5.5934,-5.5684,-5.578,-5.6434,-5.6973,-5.7569,-5.8242,-5.83,-5.83,-5.83,-5.83,-5.83,-5.83,-5.83,-5.83,-5.83,-5.8454,-5.83,-5.7819,-5.8127,-5.855,-5.905,-5.9358,-5.9781,-6.0319,-6.0646,-6.08,-6.08,-6.08,-6.08,-6.08,-6.08,-6.08,-6.08,-6.08,-6.08,-6.08,-6.08,-6.08,-6.08,-7.0827,-7.0885,-7.0993,-7.1306,-7.1366,-7.1386,-7.1465,-7.1465,-7.1475,-7.1514,-7.1494,-7.1494,-7.1494,-7.1542,-7.156,-7.156,-7.1577,-7.1575,-7.1575,-7.1592,-7.1557,-7.1475,-7.1455,-7.1165,-7.0515,-7.0224,-6.9808,-6.9207,-6.8305,-6.7868,-6.7828,-6.7197,-6.6595,-6.6022,-6.6044,-6.5715,-6.5134,-6.5131,-6.5131,-6.5159,-6.5457,-6.56,-6.5589,-6.5612,-6.5415,-6.5107,-6.479,-6.4439,-6.4196,-6.4511,-6.4626,-6.473,-6.5314,-6.5686,-6.5897,-6.5897,-6.5474,-6.4955,-6.4666,-6.3762,-6.2608,-6.1493,-6.1204,-6.1127,-6.0858,-6.08,-6.08,-6.08,-6.08,-6.08,-6.08,-6.03,-6.0012,-6.0339,-5.8934,-5.7915,-5.8261,-5.778,-5.7492,-5.775,-5.8319,-5.8781,-5.9069,-5.9088,-5.9088,-5.9088,-5.9088,-5.9088,-5.9088,-5.9088,-5.9088,-5.9088,-5.9627,-5.9646,-5.9088,-5.9088,-5.9358,-5.9915,-5.9915,-6.0223,-6.08,-6.08,-6.08,-6.08,-6.08,-6.08,-6.08,-6.08,-6.08,-6.08,-6.08,-6.08,-6.08,-6.08,-6.08,-6.08,-6.9841,-6.9996,-7.0266,-7.1156,-7.1291,-7.1313,-7.1385,-7.1395,-7.1416,-7.1485,-7.1494,-7.1494,-7.1494,-7.1494,-7.1494,-7.1494,-7.1494,-7.1494,-7.1494,-7.156,-7.1605,-7.1598,-7.1598,-7.1598,-7.1598,-7.074,-7.0307,-7.0307,-6.937,-6.8878,-6.8811,-6.8859,-6.883,-6.8691,-6.8761,-6.8761,-6.87,-6.8704,-6.8701,-6.8624,-6.7687,-6.7317,-6.7124,-6.5465,-6.5368,-6.6005,-6.5117,-6.5318,-6.5866,-6.4999,-6.4686,-6.4694,-6.4614,-6.5205,-6.5897,-6.5878,-6.5897,-6.5705,-6.4839,-6.4609,-6.4205,-6.2543,-6.2101,-6.187,-6.1012,-6.08,-6.08,-6.08,-6.08,-6.08,-6.08,-6.08,-6.0512,-5.9646,-5.9511,-5.9242,-5.8434,-5.8319,-5.8627,-5.9415,-5.9511,-5.9858,-6.0723,-6.08,-6.08,-6.08,-6.08,-6.08,-6.08,-6.08,-6.08,-6.08,-6.08,-6.08,-6.08,-6.08,-6.08,-6.08,-6.08,-6.08,-6.08,-6.08,-6.08,-6.08,-6.08,-6.08,-6.08,-6.08,-6.08,-6.08,-6.08,-6.08,-6.08,-6.08,-6.08,-6.08,-6.9841,-6.9996,-7.0266,-7.1156,-7.1291,-7.1322,-7.1332,-7.1343,-7.1343,-7.1364,-7.1364,-7.1364,-7.1364,-7.1395,-7.1435,-7.1435,-7.1475,-7.1494,-7.1494,-7.1523,-7.1523,-7.1541,-7.1564,-7.1598,-7.1598,-7.1356,-7.1212,-7.1212,-7.0315,-6.9873,-6.9844,-6.9206,-6.8887,-6.884,-6.8859,-6.8849,-6.884,-6.884,-6.884,-6.882,-6.8549,-6.8422,-6.8362,-6.7828,-6.736,-6.6891,-6.6036,-6.5465,-6.5126,-6.4864,-6.4775,-6.4775,-6.4752,-6.5319,-6.5859,-6.53,-6.5531,-6.5916,-6.5647,-6.5572,-6.5151,-6.339,-6.2512,-6.2043,-6.1774,-6.1243,-6.08,-6.08,-6.08,-6.08,-6.08,-6.08,-6.0704,-6.0454,-6.0416,-6.0319,-6.0089,-6.005,-6.0146,-6.0377,-6.0416,-6.0512,-6.0762,-6.08,-6.08,-6.08,-6.08,-6.08,-6.08,-6.08,-6.08,-6.08,-6.08,-6.08,-6.08,-6.08,-6.08,-6.08,-6.08,-6.08,-6.08,-6.08,-6.08,-6.08,-6.08,-6.08,-6.08,-6.08,-6.08,-6.08,-6.08,-6.08,-6.08,-6.08,-6.08,-6.08,-6.8976,-6.9361,-6.9828,-7.07,-7.1123,-7.1291,-7.1291,-7.1291,-7.1324,-7.1378,-7.1388,-7.1397,-7.146,-7.1486,-7.1523,-7.1523,-7.1567,-7.1583,-7.1583,-7.1553,-7.1553,-7.1587,-7.1587,-7.1602,-7.1592,-7.1592,-7.16,-7.1598,-7.1068,-7.0798,-7.0798,-7.0229,-6.9968,-6.9968,-6.9968,-6.9968,-6.9968,-6.997,-6.9971,-6.9971,-6.9933,-6.9924,-6.9895,-6.9498,-6.9003,-6.8392,-6.7529,-6.688,-6.6309,-6.5591,-6.5123,-6.4809,-6.4798,-6.5126,-6.5481,-6.5307,-6.5384,-6.5577,-6.5905,-6.5998,-6.5731,-6.4636,-6.3722,-6.2993,-6.2647,-6.1916,-6.13,-6.13,-6.1031,-6.08,-6.08,-6.08,-6.08,-6.08,-6.08,-6.08,-6.08,-6.08,-6.08,-6.08,-6.08,-6.08,-6.08,-6.08,-6.08,-6.08,-6.08,-6.08,-6.08,-6.08,-6.08,-6.08,-6.08,-6.08,-6.08,-6.08,-6.08,-6.08,-6.08,-6.08,-6.08,-6.08,-6.08,-6.08,-6.08,-6.08,-6.08,-6.08,-6.08,-6.08,-6.08,-6.08,-6.08,-6.08,-6.08,-6.08,-6.7642,-6.8345,-6.9088,-6.9955,-7.0718,-7.122,-7.122,-7.1297,-7.1388,-7.1501,-7.1525,-7.1559,-7.1689,-7.17,-7.17,-7.17,-7.17,-7.17,-7.17,-7.1634,-7.1641,-7.1692,-7.164,-7.1598,-7.1603,-7.1603,-7.1611,-7.1589,-7.1606,-7.1606,-7.1589,-7.1589,-7.1589,-7.1589,-7.1589,-7.1589,-7.1581,-7.1596,-7.1598,-7.1589,-7.1533,-7.1504,-7.1407,-7.0622,-7.0312,-7.0195,-6.9323,-6.9022,-6.8752,-6.7019,-6.5874,-6.5151,-6.5073,-6.5062,-6.5186,-6.5843,-6.5503,-6.5098,-6.5812,-6.6013,-6.6013,-6.6013,-6.5372,-6.4506,-6.3608,-6.2781,-6.2197,-6.212,-6.1466,-6.0877,-6.08,-6.08,-6.08,-6.08,-6.08,-6.08,-6.08,-6.08,-6.08,-6.08,-6.08,-6.08,-6.08,-6.08,-6.08,-6.08,-6.08,-6.08,-6.08,-6.08,-6.08,-6.08,-6.08,-6.08,-6.08,-6.08,-6.08,-6.08,-6.08,-6.08,-6.08,-6.08,-6.08,-6.08,-6.08,-6.08,-6.08,-6.08,-6.08,-6.08,-6.08,-6.08,-6.08,-6.08,-6.08,-6.08,-6.7642,-6.7932,-6.8304,-6.9194,-7.0051,-7.0596,-7.0596,-7.1167,-7.1628,-7.1659,-7.1659,-7.1671,-7.17,-7.17,-7.17,-7.17,-7.17,-7.17,-7.17,-7.1683,-7.1683,-7.1711,-7.1689,-7.1683,-7.1683,-7.1725,-7.1686,-7.1523,-7.1571,-7.1571,-7.1523,-7.1523,-7.1523,-7.1523,-7.1523,-7.1523,-7.1523,-7.1513,-7.1523,-7.1523,-7.1514,-7.1465,-7.1416,-7.1262,-7.1194,-7.1028,-7.0205,-6.9924,-6.9749,-6.8684,-6.8181,-6.7891,-6.728,-6.7048,-6.6893,-6.639,-6.6069,-6.5932,-6.6105,-6.6112,-6.608,-6.608,-6.5889,-6.5473,-6.4597,-6.3683,-6.2858,-6.2235,-6.1947,-6.162,-6.0935,-6.08,-6.08,-6.08,-6.08,-6.08,-6.08,-6.08,-6.08,-6.08,-6.08,-6.08,-6.08,-6.08,-6.08,-6.08,-6.08,-6.08,-6.08,-6.08,-6.08,-6.08,-6.08,-6.08,-6.08,-6.08,-6.08,-6.08,-6.08,-6.08,-6.08,-6.08,-6.08,-6.08,-6.08,-6.08,-6.08,-6.08,-6.08,-6.08,-6.08,-6.08,-6.08,-6.08,-6.08,-6.08,-6.7297,-6.764,-6.8043,-6.8507,-6.9582,-7.0408,-7.0408,-7.1135,-7.1701,-7.1748,-7.1753,-7.1769,-7.1845,-7.1848,-7.1848,-7.1848,-7.1848,-7.1848,-7.1848,-7.1776,-7.1773,-7.1845,-7.1776,-7.1761,-7.1749,-7.1831,-7.1812,-7.1646,-7.1679,-7.1679,-7.1646,-7.1646,-7.161,-7.1551,-7.1551,-7.1519,-7.1494,-7.1494,-7.1494,-7.1494,-7.1494,-7.1475,-7.1455,-7.1523,-7.1533,-7.1436,-7.1026,-7.0599,-7.0174,-6.9709,-6.9273,-6.8828,-6.8402,-6.7976,-6.7541,-6.7068,-6.6322,-6.5674,-6.5645,-6.5635,-6.5616,-6.5616,-6.5885,-6.5996,-6.545,-6.4652,-6.3897,-6.3473,-6.3049,-6.2502,-6.1657,-6.1489,-6.1339,-6.0919,-6.0816,-6.08,-6.08,-6.08,-6.08,-6.08,-6.08,-6.08,-6.08,-6.0839,-6.0819,-6.0812,-6.08,-6.08,-6.08,-6.08,-6.08,-6.08,-6.08,-6.08,-6.08,-6.08,-6.08,-6.08,-6.08,-6.08,-6.08,-6.08,-6.08,-6.08,-6.08,-6.08,-6.08,-6.08,-6.08,-6.08,-6.08,-6.08,-6.08,-6.08,-6.08,-6.08,-6.6894,-6.7393,-6.78,-6.78,-6.9142,-7.0229,-7.0229,-7.1111,-7.1761,-7.1839,-7.1826,-7.1877,-7.1992,-7.1992,-7.1992,-7.1992,-7.1992,-7.1992,-7.1992,-7.1902,-7.1879,-7.1992,-7.1882,-7.1826,-7.1826,-7.1949,-7.1921,-7.1783,-7.18,-7.1796,-7.1783,-7.1783,-7.1716,-7.1615,-7.1615,-7.159,-7.1529,-7.1529,-7.1529,-7.1529,-7.1529,-7.1529,-7.1538,-7.16,-7.1611,-7.1603,-7.1638,-7.1179,-7.0557,-7.0509,-6.9998,-6.9358,-6.9361,-6.878,-6.8073,-6.7891,-6.6709,-6.5468,-6.5248,-6.5159,-6.5109,-6.5245,-6.5682,-6.6061,-6.603,-6.5515,-6.4974,-6.482,-6.423,-6.3469,-6.2662,-6.2463,-6.2139,-6.1287,-6.1087,-6.1012,-6.0869,-6.085,-6.085,-6.085,-6.085,-6.085,-6.085,-6.0867,-6.0877,-6.0816,-6.0812,-6.08,-6.08,-6.08,-6.08,-6.08,-6.08,-6.08,-6.08,-6.08,-6.08,-6.08,-6.08,-6.08,-6.08,-6.08,-6.08,-6.08,-6.08,-6.08,-6.08,-6.08,-6.08,-6.08,-6.08,-6.08,-6.08,-6.08,-6.08,-6.08,-6.6894,-6.6972,-6.705,-6.705,-6.8435,-6.9547,-6.9547,-7.0914,-7.195,-7.1971,-7.1972,-7.1972,-7.1992,-7.1992,-7.1992,-7.1992,-7.1992,-7.1992,-7.1992,-7.1972,-7.1972,-7.1992,-7.1972,-7.1972,-7.1972,-7.1992,-7.1916,-7.1711,-7.1776,-7.1773,-7.1711,-7.1711,-7.1705,-7.1689,-7.1689,-7.1677,-7.1665,-7.1665,-7.1665,-7.1665,-7.1665,-7.1665,-7.1665,-7.1675,-7.166,-7.1629,-7.1725,-7.1707,-7.1574,-7.1398,-7.1301,-7.1213,-7.1181,-7.0516,-6.9643,-6.8927,-6.7987,-6.7018,-6.6234,-6.5548,-6.519,-6.5877,-6.5606,-6.5344,-6.601,-6.6046,-6.5705,-6.4971,-6.4707,-6.4365,-6.3508,-6.3342,-6.3053,-6.2237,-6.2102,-6.1851,-6.1167,-6.1061,-6.1061,-6.1061,-6.1061,-6.1061,-6.1061,-6.0962,-6.091,-6.0888,-6.0819,-6.08,-6.08,-6.08,-6.08,-6.08,-6.08,-6.08,-6.08,-6.08,-6.08,-6.08,-6.08,-6.08,-6.08,-6.08,-6.08,-6.08,-6.08,-6.08,-6.08,-6.08,-6.08,-6.08,-6.08,-6.08,-6.08,-6.08,-6.08,-6.08,-6.6894,-6.6894,-6.6894,-6.6894,-6.791,-6.8887,-6.9375,-7.0488,-7.1445,-7.1933,-7.1992,-7.1992,-7.1992,-7.1992,-7.1992,-7.1992,-7.1992,-7.1992,-7.1992,-7.1992,-7.1992,-7.1992,-7.1992,-7.1992,-7.1992,-7.1992,-7.1969,-7.1861,-7.1898,-7.1898,-7.1861,-7.1861,-7.1822,-7.1765,-7.1765,-7.1735,-7.17,-7.17,-7.17,-7.17,-7.17,-7.17,-7.1705,-7.1692,-7.1672,-7.1677,-7.177,-7.1796,-7.1783,-7.1704,-7.1685,-7.1719,-7.168,-7.1381,-7.0881,-7.0031,-6.8781,-6.7479,-6.66,-6.5717,-6.5015,-6.4898,-6.5324,-6.5751,-6.5615,-6.5906,-6.6089,-6.5671,-6.5573,-6.5331,-6.4492,-6.4316,-6.4024,-6.3206,-6.2645,-6.2171,-6.1824,-6.1389,-6.1099,-6.1099,-6.1125,-6.1143,-6.1099,-6.1089,-6.1051,-6.1012,-6.091,-6.0864,-6.0864,-6.0816,-6.08,-6.08,-6.08,-6.08,-6.08,-6.08,-6.08,-6.08,-6.08,-6.08,-6.08,-6.08,-6.08,-6.08,-6.08,-6.08,-6.08,-6.08,-6.08,-6.08,-6.08,-6.08,-6.08,-6.08,-6.08,-6.08]},{"header":{"parameterUnit":"m.s-1","parameterCategory":1,"la1":30.6,"la2":28.766,"lo1":-90.7593,"lo2":-88.6598,"dy":0.0162,"dx":0.0183,"nx":116,"ny":114,"refTime":"2024-05-22T06:00:00:Z","depth":0,"parameterNumber":3,"parameterNumberName":"V-component_of_WINDS"},"data":[0.0,0.0,0.0,0.0,0.0,0.0,0.0,0.0,0.0,0.0,0.0,0.0,0.0,0.0,0.0,0.0,0.0,0.0,0.0,0.0,0.0,0.0,0.0,0.0,0.0,0.0,0.0,0.0,0.0,0.0,0.0,0.0,0.0,0.0,0.0,0.0,0.0,0.0,0.0,0.0,0.0,0.0,0.0,0.0,0.0,0.0,0.0,0.0,0.0,0.0,0.0,0.0,0.0,0.0,0.0,0.0,0.0,0.0,0.0,0.0,0.0,0.0,0.0,0.0,0.0,0.0,0.0,0.0,0.0,0.0,0.0,0.0,0.0,0.0,0.0,0.0,0.0,0.0,0.0,0.0,0.0,0.0,0.0,0.0,0.0,0.0,0.0,0.0,0.0,0.0,0.0,0.0,0.0,0.0,0.0,0.0,0.0,0.0,0.0,0.0,0.0,0.0,0.0,0.0,0.0,0.0,0.0,0.0,0.0,0.0,0.0,0.0,0.0,0.0,0.0,0.0,0.0,0.0,0.0,0.0,0.0,0.0,0.0,0.0,0.0,0.0,0.0,0.0,0.0,0.0,0.0,0.0,0.0,0.0,0.0,0.0,0.0,0.0,0.0,0.0,0.0,0.0,0.0,0.0,0.0,0.0,0.0,0.0,0.0,0.0,0.0,0.0,0.0,0.0,0.0,0.0,0.0,0.0,0.0,0.0,0.0,0.0,0.0,0.0,0.0,0.0,0.0,0.0,0.0,0.0,0.0,0.0,0.0,0.0,0.0,0.0,0.0,0.0,0.0,0.0,0.0,0.0,0.0,0.0,0.0,0.0,0.0,0.0,0.0,0.0,0.0,0.0,0.0,0.0,0.0,0.0,0.0,0.0,0.0,0.0,0.0,0.0,0.0,0.0,0.0,0.0,0.0,0.0,0.0,0.0,0.0,0.0,0.0,0.0,0.0,0.0,0.0,0.0,0.0,0.0,0.0,0.0,0.0,0.0,0.0,0.0,0.0,0.0,0.0,0.0,0.0,0.0,0.0,0.0,0.0,0.0,0.0,0.0,0.0,0.0,0.0,0.0,0.0,0.0,0.0,0.0,0.0,0.0,0.0,0.0,0.0,0.0,0.0,0.0,0.0,0.0,0.0,0.0,0.0,0.0,0.0,0.0,0.0,0.0,0.0,0.0,0.0,0.0,0.0,0.0,0.0,0.0,0.0,0.0,0.0,0.0,0.0,0.0,0.0,0.0,0.0,0.0,0.0,0.0,0.0,0.0,0.0,0.0,0.0,0.0,0.0,0.0,0.0,0.0,0.0,0.0,0.0,0.0,0.0,0.0,0.0,0.0,0.0,0.0,0.0,0.0,0.0,0.0,0.0,0.0,0.0,0.0,0.0,0.0,0.0,0.0,0.0,0.0,0.0,0.0,0.0,0.0,0.0,0.0,0.0,0.0,0.0,0.0,0.0,0.0,0.0,0.0,0.0,0.0,0.0,0.0,0.0,0.0,0.0,0.0,0.0,0.0,0.0,0.0,0.0,0.0,0.0,0.0,0.0,0.0,0.0,0.0,0.0,0.0,0.0,0.0,0.0,0.0,0.0,0.0,0.0,0.0,0.0,0.0,0.0,0.0,0.0,0.0,0.0,0.0,0.0,0.0,0.0,0.0,0.0,0.0,0.0,0.0,0.0,0.0,0.0,0.0,0.0,0.0,0.0,0.0,0.0,0.0,0.0,0.0,0.0,0.0,0.0,0.0,0.0,0.0,0.0,0.0,0.0,0.0,0.0,0.0,0.0,0.0,0.0,0.0,0.0,0.0,0.0,0.0,0.0,0.0,0.0,0.0,0.0,0.0,0.0,0.0,0.0,0.0,0.0,0.0,0.0,0.0,0.0,0.0,0.0,0.0,0.0,0.0,0.0,0.0,0.0,0.0,0.0,0.0,0.0,0.0,0.0,0.0,0.0,0.0,0.0,0.0,0.0,0.0,0.0,0.0,0.0,0.0,0.0,0.0,0.0,0.0,0.0,0.0,0.0,0.0,0.0,0.0,0.0,0.0,0.0,0.0,0.0,0.0,0.0,0.0,0.0,0.0,0.0,0.0,0.0,0.0,0.0,0.0,0.0,0.0,0.0,0.0,0.0,0.0,0.0,0.0,0.0,0.0,0.0,0.0,0.0,0.0,0.0,0.0,0.0,0.0,0.0,0.0,0.0,0.0,0.0,0.0,0.0,0.0,0.0,0.0,0.0,0.0,0.0,0.0,0.0,0.0,0.0,0.0,0.0,0.0,0.0,0.0,0.0,0.0,0.0,0.0,0.0,0.0,0.0,0.0,0.0,0.0,0.0,0.0,0.0,0.0,0.0,0.0,0.0,0.0,0.0,0.0,0.0,0.0,0.0,0.0,0.0,0.0,0.0,0.0,0.0,0.0,0.0,0.0,0.0,0.0,0.0,0.0,0.0,0.0,0.0,0.0,0.0,0.0,0.0,0.0,0.0,0.0,0.0,0.0,0.0,0.0,0.0,0.0,0.0,0.0,0.0,0.0,0.0,0.0,0.0,0.0,0.0,0.0,0.0,0.0,0.0,0.0,0.0,0.0,0.0,0.0,0.0,0.0,0.0,0.0,0.0,0.0,0.0,0.0,0.0,0.0,0.0,0.0,0.0,0.0,0.0,0.0,0.0,0.0,0.0,0.0,0.0,0.0,0.0,0.0,0.0,0.0,0.0,0.0,0.0,0.0,0.0,0.0,0.0,0.0,0.0,0.0,0.0,0.0,0.0,0.0,0.0,0.0,0.0,0.0,0.0,0.0,0.0,0.0,0.0,0.0,0.0,0.0,0.0,0.0,0.0,0.0,0.0,0.0,0.0,0.0,0.0,0.0,0.0,0.0,0.0,0.0,0.0,0.0,0.0,0.0,0.0,0.0,0.0,0.0,0.0,0.0,0.0,0.0,0.0,0.0,0.0,0.0,0.0,0.0,0.0,0.0,0.0,0.0,0.0,0.0,0.0,0.0,0.0,0.0,0.0,0.0,0.0,0.0,0.0,0.0,0.0,0.0,0.0,0.0,0.0,0.0,0.0,0.0,0.0,0.0,0.0,0.0,0.0,0.0,0.0,0.0,0.0,0.0,0.0,0.0,0.0,0.0,0.0,0.0,0.0,0.0,0.0,0.0,0.0,0.0,0.0,0.0,0.0,0.0,0.0,0.0,0.0,0.0,0.0,0.0,0.0,0.0,0.0,0.0,0.0,0.0,0.0,0.0,0.0,0.0,0.0,0.0,0.0,0.0,0.0,0.0,0.0,0.0,0.0,0.0,0.0,0.0,0.0,0.0,0.0,0.0,0.0,0.0,0.0,0.0,0.0,0.0,0.0,0.0,0.0,0.0,0.0,0.0,0.0,0.0,0.0,0.0,0.0,0.0,0.0,0.0,0.0,0.0,0.0,0.0,0.0,0.0,0.0,0.0,0.0,0.0,0.0,0.0,0.0,0.0,0.0,0.0,0.0,0.0,0.0,0.0,0.0,0.0,0.0,0.0,0.0,0.0,0.0,0.0,0.0,0.0,0.0,0.0,0.0,0.0,0.0,0.0,0.0,0.0,0.0,0.0,0.0,0.0,0.0,0.0,0.0,0.0,0.0,0.0,0.0,0.0,0.0,0.0,0.0,0.0,0.0,0.0,0.0,0.0,0.0,0.0,0.0,0.0,0.0,0.0,0.0,0.0,0.0,0.0,0.0,0.0,0.0,0.0,0.0,0.0,0.0,0.0,0.0,0.0,0.0,0.0,0.0,0.0,0.0,0.0,0.0,0.0,0.0,0.0,0.0,0.0,0.0,0.0,0.0,0.0,0.0,0.0,0.0,0.0,0.0,0.0,0.0,0.0,0.0,0.0,0.0,0.0,0.0,0.0,0.0,0.0,0.0,0.0,0.0,0.0,0.0,0.0,0.0,0.0,0.0,0.0,0.0,0.0,0.0,0.0,0.0,0.0,0.0,0.0,0.0,0.0,0.0,0.0,0.0,0.0,0.0,0.0,0.0,0.0,0.0,0.0,0.0,0.0,0.0,0.0,0.0,0.0,0.0,0.0,0.0,0.0,0.0,0.0,0.0,0.0,0.0,0.0,0.0,0.0,0.0,0.0,0.0,0.0,0.0,0.0,0.0,0.0,0.0,0.0,0.0,0.0,0.0,0.0,0.0,0.0,0.0,0.0,0.0,0.0,0.0,0.0,0.0,0.0,0.0,0.0,0.0,0.0,0.0,0.0,0.0,0.0,0.0,0.0,0.0,0.0,0.0,0.0,0.0,0.0,0.0,0.0,0.0,0.0,0.0,0.0,0.0,0.0,0.0,0.0,0.0,0.0,0.0,0.0,0.0,0.0,0.0,0.0,0.0,0.0,0.0,0.0,0.0,0.0,0.0,0.0,0.0,0.0,0.0,0.0,0.0,0.0,0.0,0.0,0.0,0.0,0.0,0.0,0.0,0.0,0.0,0.0,0.0,0.0,0.0,0.0,0.0,0.0,0.0,0.0,0.0,0.0,0.0,0.0,0.0,0.0,0.0,0.0,0.0,0.0,0.0,0.0,0.0,0.0,0.0,0.0,0.0,0.0,0.0,0.0,0.0,0.0,0.0,0.0,0.0,0.0,0.0,0.0,0.0,0.0,0.0,0.0,0.0,0.0,0.0,0.0,0.0,0.0,0.0,0.0,0.0,0.0,0.0,0.0,0.0,0.0,0.0,0.0,0.0,0.0,0.0,0.0,0.0,0.0,0.0,0.0,0.0,0.0,0.0,0.0,0.0,0.0,0.0,0.0,0.0,0.0,0.0,0.0,0.0,0.0,0.0,0.0,0.0,0.0,0.0,0.0,0.0,0.0,0.0,0.0,0.0,0.0,0.0,0.0,0.0,0.0,0.0,0.0,0.0,0.0,0.0,0.0,0.0,0.0,0.0,0.0,0.0,0.0,0.0,0.0,0.0,0.0,0.0,0.0,0.0,0.0,0.0,0.0,0.0,0.0,0.0,0.0,0.0,0.0,0.0,0.0,0.0,0.0,0.0,0.0,0.0,0.0,0.0,0.0,0.0,0.0,0.0,0.0,0.0,0.0,0.0,0.0,0.0,0.0,0.0,0.0,0.0,0.0,0.0,0.0,0.0,0.0,0.0,0.0,0.0,0.0,0.0,0.0,0.0,0.0,0.0,0.0,0.0,0.0,0.0,0.0,0.0,0.0,0.0,0.0,0.0,0.0,0.0,0.0,0.0,0.0,0.0,0.0,0.0,0.0,0.0,0.0,0.0,0.0,0.0,0.0,0.0,0.0,0.0,0.0,0.0,0.0,0.0,0.0,0.0,0.0,0.0,0.0,0.0,0.0,0.0,0.0,0.0,0.0,0.0,0.0,0.0,0.0,0.0,0.0,0.0,0.0,0.0,0.0,0.0,0.0,0.0,0.0,0.0,0.0,0.0,0.0,0.0,0.0,0.0,0.0,0.0,0.0,0.0,0.0,0.0,0.0,0.0,0.0,0.0,0.0,0.0,0.0,0.0,0.0,0.0,0.0,0.0,0.0,0.0,0.0,0.0,0.0,0.0,0.0,0.0,0.0,0.0,0.0,0.0,0.0,0.0,0.0,0.0,0.0,0.0,0.0,0.0,0.0,0.0,0.0,0.0,0.0,0.0,0.0,0.0,0.0,0.0,0.0,0.0,0.0,0.0,0.0,0.0,0.0,0.0,0.0,0.0,0.0,0.0,0.0,0.0,0.0,0.0,0.0,0.0,0.0,0.0,0.0,0.0,0.0,0.0,0.0,0.0,0.0,0.0,0.0,0.0,0.0,0.0,0.0,0.0,0.0,0.0,0.0,0.0,0.0,0.0,0.0,0.0,0.0,0.0,0.0,0.0,0.0,0.0,0.0,0.0,0.0,0.0,0.0,0.0,0.0,0.0,0.0,0.0,0.0,0.0,0.0,0.0,0.0,0.0,0.0,0.0,0.0,0.0,0.0,0.0,0.0,0.0,0.0,0.0,0.0,0.0,0.0,0.0,0.0,0.0,0.0,0.0,0.0,0.0,0.0,0.0,0.0,0.0,0.0,0.0,0.0,0.0,0.0,0.0,0.0,0.0,0.0,-1.9246,-1.8152,0.0,0.0,0.0,0.0,0.0,0.0,0.0,0.0,0.0,0.0,0.0,0.0,0.0,0.0,0.0,0.0,0.0,0.0,0.0,0.0,0.0,0.0,0.0,-0.5694,-0.6159,-0.6463,-0.6596,-0.6652,-0.6708,0.0,0.0,0.0,0.0,0.0,-0.525,-0.5193,-0.5273,-0.5469,-0.6466,-0.741,-0.8311,-0.877,-0.8688,-0.8099,0.0,0.0,0.0,0.0,0.0,0.0,0.0,0.0,0.0,0.0,0.0,0.0,0.0,0.0,0.0,0.0,0.0,0.0,0.0,0.0,0.0,0.0,0.0,0.0,0.0,0.0,0.0,0.0,0.0,0.0,0.0,0.0,0.0,0.0,0.0,0.0,0.0,0.0,0.0,0.0,0.0,0.0,0.0,0.0,0.0,0.0,0.0,0.0,0.0,0.0,0.0,0.0,0.0,0.0,0.0,0.0,0.0,0.0,0.0,0.0,0.0,0.0,0.0,0.0,0.0,0.0,0.0,0.0,0.0,0.0,-2.1145,-2.0068,0.0,0.0,0.0,0.0,0.0,0.0,0.0,0.0,0.0,0.0,0.0,0.0,0.0,0.0,0.0,0.0,0.0,0.0,0.0,0.0,0.0,-0.5138,-0.5282,-0.6014,-0.653,-0.6605,-0.6774,-0.6835,-0.675,-0.6582,0.0,0.0,0.0,-0.5448,-0.531,-0.5312,-0.5668,-0.6455,-0.7274,-0.8994,-1.1447,-1.1634,-1.0738,-0.8981,-0.8818,0.0,0.0,0.0,0.0,0.0,0.0,0.0,0.0,0.0,0.0,0.0,0.0,0.0,0.0,0.0,0.0,0.0,0.0,0.0,0.0,0.0,0.0,0.0,0.0,0.0,0.0,0.0,0.0,0.0,0.0,0.0,0.0,0.0,0.0,0.0,0.0,0.0,0.0,0.0,0.0,0.0,0.0,0.0,0.0,0.0,0.0,0.0,0.0,0.0,0.0,0.0,0.0,0.0,0.0,0.0,0.0,0.0,0.0,0.0,0.0,0.0,0.0,0.0,-2.3993,-2.4253,-2.4624,-2.4624,-2.4854,-2.5106,-2.3419,-2.2577,-2.2322,-2.1159,0.0,0.0,0.0,0.0,0.0,0.0,0.0,0.0,0.0,0.0,0.0,0.0,0.0,0.0,0.0,0.0,0.0,0.0,0.0,-0.5338,-0.5976,-0.6323,-0.6676,-0.7076,-0.7133,-0.7206,-0.7372,-0.7198,0.0,0.0,-0.6469,-0.6247,-0.6055,-0.6593,-0.7192,-0.783,-0.9315,-1.1021,-1.2849,-1.2337,-1.2279,-1.25,-1.1906,-1.1538,-1.1294,0.0,0.0,0.0,0.0,0.0,0.0,0.0,0.0,0.0,0.0,0.0,0.0,0.0,0.0,0.0,0.0,0.0,0.0,0.0,0.0,0.0,0.0,0.0,0.0,0.0,0.0,0.0,0.0,0.0,0.0,0.0,0.0,0.0,0.0,0.0,0.0,0.0,0.0,0.0,0.0,0.0,-1.3783,-1.3957,0.0,0.0,0.0,0.0,0.0,0.0,0.0,0.0,0.0,0.0,0.0,0.0,0.0,-2.1957,-2.4272,-2.4164,-2.4676,-2.5647,-2.6013,-2.6215,-2.6261,-2.6261,-2.6481,-2.6848,-2.6573,0.0,-2.3277,-2.3514,0.0,0.0,0.0,0.0,0.0,0.0,0.0,0.0,0.0,0.0,0.0,0.0,0.0,0.0,0.0,0.0,0.0,0.0,0.0,0.0,0.0,-0.6691,-0.705,-0.7503,-0.7754,-0.7878,-0.7845,-0.765,-0.7394,-0.704,-0.6793,-0.6613,-0.6553,-0.732,-0.8501,-1.0133,-1.1415,-1.2782,-1.4131,-1.4013,-1.411,-1.4345,-1.3899,-1.3131,-1.2058,-1.1209,0.0,0.0,0.0,0.0,0.0,0.0,0.0,0.0,0.0,0.0,0.0,0.0,0.0,0.0,0.0,0.0,0.0,0.0,0.0,0.0,0.0,0.0,0.0,0.0,0.0,0.0,0.0,0.0,0.0,0.0,0.0,0.0,0.0,0.0,0.0,0.0,0.0,0.0,0.0,-1.3734,-1.4524,-1.4462,-1.4801,-1.4875,0.0,0.0,0.0,0.0,0.0,0.0,0.0,0.0,0.0,-2.3985,-2.3514,-2.4174,-2.6123,-2.6073,-2.648,-2.7334,-2.7517,-2.7719,-2.7939,-2.7939,-2.8031,-2.8196,-2.8196,-2.7271,-2.5609,-2.4778,-2.3473,-2.2022,0.0,0.0,0.0,0.0,-2.4063,-2.4524,0.0,0.0,0.0,0.0,0.0,0.0,0.0,0.0,0.0,0.0,0.0,0.0,-0.6648,-0.71,-0.7517,-0.79,-0.8269,-0.8387,-0.8174,-0.8006,-0.7683,-0.7209,-0.6934,-0.6768,-0.6712,-0.8043,-0.9874,-1.2248,-1.3237,-1.4209,-1.5116,-1.5327,-1.5418,-1.5404,-1.5232,-1.4338,-1.2939,-1.2198,-1.1463,-1.0728,0.0,0.0,0.0,0.0,0.0,0.0,0.0,0.0,0.0,0.0,0.0,0.0,0.0,0.0,0.0,0.0,0.0,0.0,0.0,0.0,0.0,0.0,0.0,0.0,0.0,0.0,0.0,0.0,0.0,0.0,0.0,0.0,0.0,0.0,0.0,0.0,0.0,-1.4372,-1.5078,-1.5014,-1.5698,-1.5915,0.0,0.0,0.0,0.0,0.0,0.0,-2.3009,-2.31,-2.4122,-2.6389,-2.5922,-2.6314,-2.7636,-2.7737,-2.8095,-2.87,-2.8801,-2.9012,-2.9287,-2.9186,-2.9131,-2.9131,-2.9021,-2.8514,-2.7637,-2.6189,-2.4881,-2.3818,-2.4177,-2.42,-2.4162,-2.5489,-2.6212,-2.6733,0.0,0.0,0.0,0.0,0.0,0.0,0.0,0.0,0.0,0.0,0.0,-0.6658,-0.7114,-0.7531,-0.7919,-0.8335,-0.8566,-0.86,-0.8401,-0.8184,-0.7826,-0.7218,-0.6934,-0.6698,-0.652,-0.9064,-1.1482,-1.3668,-1.4528,-1.5174,-1.564,-1.5745,-1.5785,-1.5785,-1.5772,-1.5418,-1.48,-1.3607,-1.2926,-1.2502,-1.0775,0.0,0.0,0.0,0.0,0.0,0.0,0.0,0.0,0.0,0.0,0.0,0.0,0.0,0.0,0.0,0.0,0.0,0.0,0.0,0.0,0.0,0.0,0.0,0.0,0.0,0.0,0.0,0.0,0.0,0.0,0.0,0.0,0.0,0.0,0.0,0.0,0.0,0.0,-1.6093,-1.7272,0.0,0.0,0.0,0.0,-2.0373,-2.201,-2.3405,-2.4355,-2.5272,-2.6381,-2.7693,-2.7691,-2.8086,-2.8883,-2.9259,-2.947,-2.9516,-2.992,-3.0121,-3.013,-2.9718,-2.9604,-2.9525,-2.914,-2.8797,-2.8426,-2.8414,-2.7299,-2.5791,-2.6993,-2.6937,-2.6269,-2.7218,-2.7855,-2.8232,0.0,0.0,0.0,0.0,0.0,-0.2515,-0.3187,-0.3921,-0.4661,-0.5432,-0.6194,-0.6915,-0.7531,-0.7929,-0.8401,-0.8949,-0.9058,-0.9072,-0.9001,-0.842,-0.8139,-0.8151,-0.7702,-0.813,-0.9614,-1.1373,-1.3067,-1.4548,-1.5231,-1.5618,-1.5772,-1.5778,-1.5784,-1.5784,-1.5784,-1.5712,-1.5458,-1.4469,-1.3661,-1.2939,-1.173,-1.0881,0.0,0.0,0.0,0.0,0.0,0.0,0.0,0.0,0.0,0.0,0.0,0.0,0.0,0.0,0.0,0.0,0.0,0.0,0.0,0.0,0.0,0.0,0.0,0.0,0.0,0.0,0.0,0.0,0.0,0.0,0.0,0.0,0.0,0.0,0.0,0.0,0.0,-1.6961,-1.8282,0.0,-1.8872,-2.0789,-2.2325,-2.2978,-2.4506,-2.5748,-2.6558,-2.7202,-2.7957,-2.8952,-2.8989,-2.9195,-2.9764,-2.9901,-2.9975,-2.9984,-3.013,-3.0204,-3.0195,-3.0048,-2.9975,-2.9965,-2.9828,-2.9435,-2.8929,-2.982,-2.8744,-2.6615,-2.7232,-2.7373,-2.7362,-2.8053,-2.8819,-2.9541,0.0,0.0,0.0,0.0,-0.2301,-0.2552,-0.3429,-0.4069,-0.4795,-0.5784,-0.6609,-0.7315,-0.7829,-0.8382,-0.8907,-0.9348,-0.9497,-0.9474,-0.9291,-0.8741,-0.8425,-0.8491,-0.8098,-0.8988,-1.1392,-1.2428,-1.3674,-1.5246,-1.5591,-1.5784,-1.5784,-1.5784,-1.5784,-1.5784,-1.5784,-1.5784,-1.5744,-1.5158,-1.4516,-1.3714,-1.2726,-1.2067,-1.149,0.0,0.0,0.0,0.0,0.0,0.0,0.0,0.0,0.0,0.0,0.0,0.0,0.0,0.0,0.0,0.0,0.0,0.0,0.0,0.0,0.0,0.0,0.0,0.0,0.0,0.0,0.0,0.0,0.0,0.0,0.0,0.0,0.0,0.0,0.0,-1.6914,-1.7718,-1.9469,-2.0639,-2.0668,-2.3048,-2.4807,-2.5505,-2.6582,-2.7545,-2.8333,-2.8636,-2.9094,-2.9764,-2.9782,-2.992,-3.0195,-3.0332,-3.0396,-3.0396,-3.0534,-3.0598,-3.0589,-3.0461,-3.0396,-3.0396,-3.0259,-2.9925,-2.9546,-3.0391,-2.9499,-2.761,-2.8333,-2.8754,-2.8869,-2.926,-2.9843,-3.043,0.0,0.0,0.0,-0.249,-0.2326,-0.2626,-0.3912,-0.4313,-0.4935,-0.6151,-0.7176,-0.7897,-0.811,-0.8841,-0.938,-0.9592,-0.9823,-0.9805,-0.937,-0.9084,-0.8732,-0.8136,-0.8116,-0.9194,-1.1491,-1.2037,-1.3426,-1.5688,-1.5785,-1.5784,-1.5784,-1.5784,-1.5784,-1.5784,-1.5784,-1.5784,-1.5784,-1.5784,-1.5504,-1.4934,-1.3734,-1.3373,-1.3413,0.0,0.0,0.0,0.0,0.0,0.0,0.0,0.0,0.0,0.0,0.0,0.0,0.0,0.0,0.0,0.0,0.0,0.0,0.0,0.0,0.0,0.0,0.0,0.0,0.0,0.0,0.0,0.0,0.0,0.0,0.0,0.0,0.0,-1.6103,-1.6436,-1.7089,-1.8325,-2.0888,-2.2527,-2.246,-2.5333,-2.738,-2.7831,-2.8196,-2.8764,-2.9586,-2.958,-2.9782,-3.0204,-3.0222,-3.0222,-3.0241,-3.0616,-3.0809,-3.0809,-3.1194,-3.1377,-3.1368,-3.0983,-3.0809,-3.0781,-3.0406,-3.0231,-3.0222,-3.0222,-2.9596,-2.8805,-3.0565,-3.1064,-3.083,-3.083,-3.0889,-3.0889,0.0,0.0,-0.2389,-0.2368,-0.2299,-0.2667,-0.3845,-0.425,-0.4921,-0.6341,-0.726,-0.7971,-0.8477,-0.9103,-0.9597,-0.9852,-0.9639,-0.9578,-0.9809,-0.8874,-0.8393,-0.8449,-1.0085,-1.1435,-1.2428,-1.3789,-1.4916,-1.5759,-1.5792,-1.5784,-1.5784,-1.5784,-1.5784,-1.5784,-1.5784,-1.5784,-1.5784,-1.5784,-1.5684,-1.5524,-1.4783,-1.4142,-1.3527,0.0,0.0,0.0,0.0,0.0,0.0,0.0,0.0,0.0,0.0,0.0,0.0,0.0,0.0,0.0,0.0,0.0,0.0,0.0,0.0,0.0,0.0,0.0,0.0,0.0,0.0,0.0,0.0,0.0,0.0,0.0,0.0,-1.6171,-1.6687,-1.7625,-1.8532,-1.934,-2.1872,-2.3699,-2.3975,-2.6449,-2.8223,-2.8618,-2.9021,-2.9342,-2.9562,-2.9865,-3.0213,-3.0616,-3.0626,-3.0763,-3.1047,-3.1167,-3.1222,-3.1222,-3.1322,-3.1377,-3.1377,-3.1267,-3.1222,-3.1212,-3.1102,-3.0892,-3.0688,-3.1127,-3.0627,-2.9719,-2.9986,-2.983,-2.9577,-2.999,-3.047,-3.0889,0.0,-0.2423,-0.2344,-0.2314,-0.2354,-0.271,-0.3711,-0.4187,-0.4965,-0.6375,-0.7348,-0.8146,-0.877,-0.9282,-0.9729,-0.9975,-0.9649,-0.9488,-0.9559,-0.8801,-0.8525,-0.9014,-1.0688,-1.2,-1.28,-1.4237,-1.5235,-1.5784,-1.5784,-1.5784,-1.5784,-1.5784,-1.5879,-1.5974,-1.5832,-1.5879,-1.5974,-1.5832,-1.5784,-1.5751,-1.5464,-1.5017,-1.4446,-1.3828,-1.3434,-1.314,-1.2516,-1.2496,-1.2717,-1.2241,0.0,0.0,0.0,0.0,0.0,0.0,0.0,0.0,0.0,0.0,0.0,0.0,0.0,0.0,0.0,0.0,0.0,0.0,0.0,0.0,0.0,0.0,0.0,0.0,-1.6415,-1.7261,-1.7726,-1.8432,-1.9398,-2.0826,-2.2916,-2.4603,-2.5507,-2.7428,-2.881,-2.9204,-2.9443,-2.9718,-3.0066,-3.0314,-3.0626,-3.102,-3.1038,-3.1148,-3.1377,-3.1377,-3.1377,-3.1377,-3.1377,-3.1377,-3.1377,-3.1377,-3.1377,-3.1377,-3.1377,-3.1249,-3.1102,-3.1546,-3.1241,-3.0378,0.0,0.0,0.0,0.0,-3.0343,-3.0889,0.0,-0.2336,-0.2304,-0.2304,-0.2401,-0.2757,-0.3539,-0.4131,-0.4948,-0.6294,-0.7423,-0.8321,-0.8915,-0.9376,-0.9752,-0.998,-0.9762,-0.9446,-0.9079,-0.8858,-0.9009,-0.9648,-1.0531,-1.1626,-1.2927,-1.388,-1.4885,-1.5879,-1.5893,-1.5893,-1.5879,-1.5879,-1.6028,-1.6225,-1.6014,-1.6027,-1.6225,-1.5994,-1.5879,-1.5831,-1.5798,-1.5784,-1.5712,-1.4643,-1.4396,-1.4476,-1.3387,-1.3032,-1.3032,-1.2665,0.0,0.0,0.0,0.0,0.0,0.0,0.0,0.0,0.0,0.0,0.0,0.0,0.0,0.0,0.0,0.0,0.0,0.0,0.0,0.0,0.0,0.0,0.0,0.0,-1.7526,-1.8664,-1.9025,-1.9098,-1.9901,-2.2097,-2.3725,-2.5222,-2.6736,-2.8184,-2.9214,-2.9617,-2.9681,-3.003,-3.0754,-3.0827,0.0,0.0,0.0,-3.1377,-3.1377,-3.1377,-3.1377,-3.1377,-3.1377,-3.1377,-3.1377,-3.1377,-3.1377,-3.1377,-3.1377,-3.1377,-3.1442,-3.1782,-3.1477,-3.0762,-3.0616,-3.0167,-2.9749,-2.9955,-3.0411,-3.0889,0.0,-0.2316,-0.2304,-0.2304,-0.2328,-0.2585,-0.3336,-0.3947,-0.4807,-0.6175,-0.7355,-0.8321,-0.8915,-0.9545,-0.9952,-0.9994,-0.9762,-0.9569,-0.9489,0.0,-0.9758,-1.0076,-1.101,-1.2099,-1.3335,-1.4399,-1.546,-1.6539,-1.6477,-1.6484,-1.6539,-1.6539,-1.6539,-1.6601,-1.6538,-1.654,-1.6569,-1.6335,-1.6186,-1.6166,-1.5925,-1.5784,-1.5731,-1.5317,-1.5177,-1.513,-1.4429,-1.4482,-1.4803,-1.4269,-1.3901,-1.3621,-1.338,0.0,0.0,0.0,0.0,0.0,0.0,0.0,0.0,0.0,0.0,0.0,0.0,0.0,0.0,0.0,0.0,0.0,0.0,0.0,0.0,-1.7004,-1.8097,-1.9105,-1.9814,-2.0187,-2.0543,-2.1012,-2.3327,-2.5218,-2.588,-2.8088,-2.9635,-3.0048,-3.0369,-3.0626,-3.0781,-3.1093,-3.1295,-3.1377,-3.1377,-3.1377,-3.1377,-3.1377,-3.1377,-3.1377,-3.1377,0.0,-3.1377,-3.1377,-3.1377,-3.1377,-3.1377,-3.1377,-3.1442,-3.2029,-3.1722,-3.0806,-3.0625,-3.0787,-3.1098,-3.08,-3.0772,-3.0889,-0.2314,-0.2304,-0.2335,-0.2428,-0.2495,-0.2694,-0.3089,-0.3731,-0.4618,-0.5927,-0.6876,-0.7805,-0.8745,-0.9053,-0.9259,-0.9359,-0.9233,-0.9268,0.0,-0.9676,-0.9985,-1.0529,-1.1406,-1.2149,-1.2743,-1.4273,-1.5094,-1.5035,-1.6113,-1.6437,-1.6041,-1.6493,-1.6747,-1.6902,-1.6746,-1.6757,-1.6893,-1.6449,-1.6321,-1.6246,-1.5945,-1.5784,-1.5764,-1.5665,-1.5611,-1.5578,-1.5277,-1.5271,-1.5351,-1.5057,-1.4669,-1.4275,-1.4086,-1.3447,-1.2702,0.0,0.0,0.0,0.0,0.0,0.0,0.0,0.0,0.0,0.0,0.0,0.0,0.0,0.0,-1.4703,0.0,0.0,-1.6994,-1.7996,-1.8834,-1.9619,-2.0354,-2.0581,-2.097,-2.179,-2.3724,-2.5373,-2.629,-2.8332,-2.9745,-3.0167,-3.0561,-3.0873,-3.1075,-3.1267,-3.1377,-3.1377,-3.1377,-3.1478,-3.1689,-3.1689,-3.179,-3.1983,-3.1983,-3.1882,-3.1689,-3.1689,-3.1579,-3.1377,-3.1377,-3.1377,-3.1442,-3.1772,-3.1697,-3.131,-3.0841,-3.0602,-3.0509,-3.0677,-3.0829,-3.0889,-0.2415,-0.2408,-0.243,-0.258,-0.2689,-0.2801,-0.2929,-0.3524,-0.4394,-0.567,-0.6396,-0.7239,-0.8463,-0.851,-0.8524,-0.8685,-0.8774,0.0,0.0,-0.9763,-1.0153,-1.0929,-1.1545,-1.1927,-1.2116,-1.3817,-1.4418,-1.3868,-1.5726,-1.6325,-1.5815,-1.6276,-1.6743,-1.7159,-1.6746,-1.6773,-1.717,-1.6666,-1.6462,-1.6333,-1.6039,-1.5879,-1.5784,-1.5784,-1.5784,-1.5784,-1.5784,-1.5645,-1.5404,-1.5464,-1.513,-1.4689,-1.4689,-1.4247,-1.3628,-1.3294,-1.3061,0.0,0.0,0.0,0.0,0.0,0.0,0.0,0.0,0.0,-1.4047,-1.4984,-1.532,-1.5738,-1.6693,-1.7408,-1.8096,-1.8885,-1.9546,-2.0134,-2.0608,-2.0722,-2.1272,-2.2556,-2.3822,-2.5264,-2.6934,-2.8454,-2.961,-3.0286,-3.0681,-3.1038,-3.1359,-3.1377,-3.1414,-3.1497,-3.1497,-3.1698,-3.212,-3.212,-3.2276,-3.2597,-3.2597,-3.2432,-3.212,-3.212,-3.1891,-3.1497,-3.1414,-3.1442,-3.157,-3.1515,-3.1635,-3.1717,-3.1138,-3.0325,-2.9602,-3.0144,-3.046,-3.0587,0.0,-0.2735,-0.2715,-0.2605,-0.2607,-0.2719,-0.3033,-0.3491,-0.4238,-0.5393,-0.6277,-0.7138,-0.8063,-0.8458,-0.8675,-0.8699,-0.9039,0.0,-0.9933,-1.0286,-1.0702,-1.1142,-1.1233,-1.1727,-1.2587,-1.3018,-1.3996,-1.5626,-1.6066,-1.6625,-1.7255,-1.6311,-1.6465,-1.7422,-1.6409,-1.6575,-1.7521,-1.7226,-1.6951,-1.6633,-1.6339,-1.6066,-1.5784,-1.5784,-1.5784,-1.5784,-1.5784,-1.5645,-1.5438,-1.5691,-1.5565,-1.5297,-1.5297,-1.5102,-1.4697,-1.3994,0.0,-1.3313,-1.321,-1.3387,-1.3694,-1.3995,-1.3974,-1.4198,0.0,0.0,-1.5444,-1.6328,-1.675,-1.7079,-1.7408,-1.819,-1.8891,-1.9259,-2.0027,-2.0601,-2.0668,-2.0902,-2.1132,-2.1292,-2.2522,-2.4417,-2.7282,-2.8047,-2.901,-3.0627,-3.1093,-3.1332,-3.1377,-3.1377,-3.1552,-3.1918,-3.1937,-3.2129,-3.2524,-3.2533,-3.2551,-3.2597,-3.2597,-3.257,-3.2533,-3.2533,-3.2313,-3.1918,-3.1543,-3.1772,-3.2294,-3.1983,-3.1717,-3.1497,-3.1698,-3.0863,-2.9607,-2.962,-2.9596,-2.9549,0.0,-0.2842,-0.2827,-0.2688,-0.2718,-0.2813,-0.2963,-0.333,-0.392,-0.4867,-0.5605,-0.6365,-0.7241,-0.7739,-0.8063,-0.8155,-0.8656,-0.919,-0.9738,-1.0277,-1.0759,-1.1179,-1.1194,-1.1336,-1.1575,-1.2559,-1.3143,-1.3284,-1.4752,-1.5694,-1.6073,-1.6073,-1.6604,-1.7565,-1.7095,-1.7147,-1.7555,-1.7088,-1.682,-1.6667,-1.6199,-1.5939,-1.5784,-1.5784,-1.5678,-1.5578,-1.5578,-1.5391,0.0,0.0,-1.513,-1.4917,-1.509,-1.4943,-1.4603,-1.4146,-1.4018,0.0,-1.4245,-1.4389,0.0,0.0,-1.4845,-1.5248,-1.6114,-1.6213,-1.6406,-1.7288,-1.7569,-1.7802,-1.8277,-1.8811,-1.9332,0.0,-2.0327,-2.0735,-2.0902,-2.1036,-2.1418,-2.2153,-2.209,-2.2832,-2.5023,-2.7724,-2.9404,-2.9595,-3.0691,-3.1377,-3.1377,-3.1377,-3.157,-3.1992,-3.201,-3.2313,-3.2955,-3.2964,-3.3074,-3.3303,-3.3303,-3.3184,-3.2964,-3.2964,-3.2615,-3.1992,-3.1818,-3.1801,-3.1772,-3.146,-3.1267,-3.1129,-3.1064,-3.0447,-2.9715,-3.0045,-2.987,-2.9362,0.0,-0.2893,-0.286,-0.2719,-0.2805,-0.2916,-0.2942,-0.3163,-0.3636,-0.4508,-0.4999,-0.567,-0.667,-0.7199,-0.755,-0.7712,-0.8259,-0.8864,-0.9395,-1.0112,-1.0679,-1.1094,-1.1165,-1.1096,-1.09,-1.2048,-1.2418,-1.1864,-1.3699,-1.4731,-1.5013,-1.5334,-1.5974,-1.6882,-1.6564,-1.6573,-1.6748,-1.6337,-1.6174,-1.6199,-1.578,-1.566,-1.5771,-1.5738,-1.5531,-1.5277,-1.5277,-1.5037,0.0,0.0,-1.4456,-1.4329,-1.4673,-1.4576,-1.4389,-1.4342,-1.4476,-1.4689,-1.4948,0.0,0.0,-1.535,-1.5705,-1.6172,-1.6547,-1.6794,-1.7174,-1.7976,-1.821,-1.8397,-1.8844,-1.9299,-1.974,-2.0167,-2.0548,-2.0869,-2.1082,-2.1109,-2.1481,-2.2459,-2.2034,-2.2026,-2.2893,-2.6703,-2.8839,-2.8025,-3.0106,-3.1249,-3.0852,-3.1284,-3.1744,-3.2157,-3.2285,-3.268,-3.3376,-3.3386,-3.3532,-3.3817,-3.3817,-3.3661,-3.3386,-3.3276,-3.2835,-3.2166,-3.2056,-3.1763,-3.1377,-3.1129,-3.1,-3.0879,-3.0629,-3.0201,-2.9751,-3.0242,-2.995,-2.9282,0.0,0.0,-0.286,-0.2719,-0.2805,-0.2942,-0.3077,-0.3102,-0.3491,-0.4572,-0.4701,-0.5244,-0.6567,-0.7162,-0.7493,-0.7498,-0.8047,-0.859,-0.8976,-0.9823,-1.0466,-1.0886,-1.109,-1.1194,-1.1194,-1.1411,-1.202,-1.3038,-1.3336,-1.3991,-1.4959,-1.3879,-1.3986,-1.5013,-1.3938,-1.3923,-1.4763,-1.4746,-1.4918,-1.5152,-1.5133,-1.5402,-1.5751,-1.5518,-1.5231,-1.5022,-1.5022,0.0,0.0,-1.374,-1.3633,-1.368,-1.4021,-1.4108,0.0,-1.4821,-1.4988,0.0,0.0,0.0,-1.5872,-1.6166,-1.646,-1.6827,-1.7408,-1.7549,-1.7729,-1.835,-1.8698,-1.8905,-1.8918,-1.9626,-2.0153,-2.0227,-2.0722,-2.1096,-2.1109,-2.1109,-2.1109,-2.1172,-2.2278,-2.265,0.0,-2.4551,-2.6352,-2.6168,-2.9424,-3.0779,-2.9469,-3.1035,-3.2166,-3.256,-3.2973,-3.3386,-3.3789,-3.3798,-3.3798,-3.3817,-3.3817,-3.3807,-3.378,-3.3404,-3.2991,-3.256,-3.2175,-3.1763,-3.1377,-3.1377,-3.1184,-3.0879,-3.0879,-3.0383,-2.9725,-2.9797,-2.9502,-2.8961,0.0,0.0,0.0,-0.3214,-0.3257,-0.3344,-0.3485,-0.3428,-0.3553,-0.4042,-0.4534,0.0,0.0,0.0,0.0,0.0,0.0,-0.8581,-0.8957,-0.9809,-1.0441,-1.0669,-1.1009,-1.1194,-1.1194,-1.1406,-1.1699,-1.202,-1.2235,-1.2836,-1.3737,-1.3372,-1.3685,-1.4568,-1.4199,-1.4212,-1.4481,-1.432,-1.4352,-1.4524,-1.4172,-1.4522,-1.5257,-1.5032,-1.4576,-1.4089,0.0,0.0,0.0,-1.3119,-1.2919,-1.2872,-1.3533,0.0,0.0,-1.478,-1.5008,-1.5135,0.0,0.0,-1.6286,-1.6974,-1.7215,-1.7495,-1.829,-1.847,-1.8584,-1.8991,-1.8838,-1.8758,-1.9145,-1.9299,-1.9559,-2.014,-2.0561,-2.0889,-2.1082,-2.1109,-2.1109,-2.1109,-2.1475,0.0,0.0,0.0,0.0,-2.5113,-2.796,-2.959,-2.9321,-3.003,-3.1154,-3.2579,-3.2022,-3.2345,-3.3807,-3.3817,-3.3817,-3.3817,-3.3817,-3.3817,-3.3807,-3.367,-3.3395,-3.2991,-3.2579,-3.2166,-3.1772,-3.1497,-3.1313,-3.1249,-3.1249,-3.092,-3.041,-3.0483,-3.0365,-3.0038,0.0,0.0,0.0,0.0,0.0,0.0,0.0,0.0,0.0,0.0,0.0,0.0,0.0,0.0,0.0,0.0,0.0,0.0,-0.8736,-0.9445,-0.9951,-1.023,-1.057,-1.0749,-1.0749,-1.0886,-1.1066,-1.1298,-1.1425,-1.1899,-1.2633,-1.2633,-1.2936,-1.3448,-1.3448,-1.3451,-1.3364,-1.3168,-1.3291,-1.3568,-1.3069,-1.344,-1.4208,-1.4038,-1.3522,0.0,0.0,0.0,-1.2175,-1.2155,-1.2167,0.0,0.0,0.0,0.0,-1.4801,-1.512,-1.5464,-1.6395,-1.6636,-1.6851,-1.7682,-1.7903,-1.8083,-1.8764,-1.8844,-1.8851,-1.9152,-1.8824,-1.8577,-1.8844,-1.8824,-1.9025,-1.98,-2.0174,-2.0535,-2.1042,-2.1109,-2.1109,-2.1109,-2.1109,-2.1109,0.0,0.0,0.0,-2.3662,-2.6866,-2.8533,-2.7971,-2.9211,-3.0535,-3.1971,-3.1444,-3.1983,-3.3807,-3.3817,-3.3817,-3.3817,-3.3817,-3.3817,-3.3817,-3.3817,-3.3596,-3.3202,-3.278,-3.2368,-3.1974,-3.1552,-3.1377,-3.1377,-3.1377,-3.1139,-3.0791,-3.0664,-3.0727,-3.0627,0.0,0.0,0.0,0.0,0.0,0.0,0.0,0.0,0.0,0.0,0.0,0.0,0.0,0.0,0.0,0.0,0.0,0.0,0.0,0.0,0.0,-0.9555,-0.9833,-0.9994,-0.9994,-0.9994,-1.0289,-1.0849,-1.0849,-1.1146,-1.1723,-1.1723,-1.1723,-1.1723,-1.1723,-1.1614,-1.1439,-1.1439,-1.1771,-1.2228,-1.1781,-1.2097,-1.2795,-1.265,0.0,0.0,0.0,0.0,0.0,0.0,0.0,0.0,0.0,0.0,0.0,0.0,0.0,-1.6079,-1.6991,-1.7246,-1.7481,-1.8297,-1.851,-1.8584,-1.8858,-1.8767,-1.8633,-1.8804,-1.8611,-1.8317,0.0,0.0,-1.8611,-1.9259,-1.9613,-2.0107,-2.0989,-2.1109,-2.1109,0.0,0.0,0.0,0.0,0.0,0.0,-2.1964,0.0,-2.7622,-2.5516,-2.839,-3.0344,-3.0874,-3.1241,-3.2149,-3.3817,-3.3817,-3.3817,-3.3817,-3.3817,-3.3747,-3.3669,-3.3747,-3.3537,-3.3093,-3.2722,-3.2377,-3.2001,-3.1561,-3.1377,-3.1377,-3.1377,-3.1148,-3.0818,-3.0447,-3.0574,-3.0763,0.0,0.0,0.0,0.0,0.0,0.0,0.0,0.0,0.0,0.0,0.0,0.0,0.0,0.0,0.0,0.0,0.0,0.0,0.0,0.0,0.0,0.0,0.0,-0.9994,-0.9994,-0.9994,-1.0075,-1.0236,-1.0236,-1.0317,-1.0474,-1.0474,-1.0474,-1.0474,-1.0474,-1.0445,-1.0398,-1.0398,-1.0546,-1.0806,0.0,-1.0998,-1.177,0.0,0.0,0.0,0.0,0.0,0.0,0.0,0.0,0.0,0.0,0.0,-1.5357,0.0,0.0,-1.6958,-1.74,-1.7802,-1.8257,-1.8704,-1.898,-1.9169,-1.9174,-1.9359,-1.9244,-1.8381,-1.7843,-1.7472,0.0,0.0,0.0,-1.9182,-1.9613,0.0,-2.0989,-2.1109,0.0,-2.1109,0.0,-2.1436,-2.1436,-2.1637,0.0,0.0,-2.4189,-2.534,-2.5432,-2.6401,-2.8198,-3.0804,-3.0169,-3.1076,-3.3738,-3.3817,-3.3817,-3.3817,-3.3817,-3.3233,-3.2158,-3.3312,-3.311,-3.1975,-3.2408,-3.2533,-3.2386,-3.1671,-3.1377,-3.1377,-3.1377,-3.1322,-3.1231,-3.1167,-3.1167,-3.1212,0.0,0.0,0.0,0.0,0.0,0.0,0.0,0.0,0.0,0.0,0.0,0.0,0.0,0.0,0.0,0.0,0.0,0.0,0.0,0.0,0.0,0.0,-0.9214,-0.9444,-0.9444,-0.9497,-0.9587,-0.9677,0.0,0.0,-0.9994,-0.9994,-0.9994,-0.9994,-0.9994,-0.9994,-0.9994,-0.9994,0.0,0.0,0.0,0.0,0.0,0.0,0.0,0.0,0.0,0.0,0.0,0.0,0.0,-1.4231,-1.5042,-1.5609,-1.6107,-1.6817,0.0,-1.7635,-1.8056,-1.8424,-1.8751,-1.9045,-1.9132,-1.9167,-1.9144,-1.8968,-1.8607,-1.786,-1.7301,0.0,0.0,0.0,0.0,0.0,0.0,0.0,-2.0795,-2.1029,-2.1156,0.0,-2.1521,0.0,-2.173,-2.1891,-2.2104,0.0,-2.37,-2.4564,-2.47,-2.5588,-2.7026,-2.9066,-2.8551,-2.9647,-3.2727,-3.3451,-3.3817,-3.3807,-3.3094,-3.2368,-3.1508,-3.1728,-3.1649,-3.1535,-3.1542,-3.1967,-3.2533,-3.1717,-3.1377,-3.1377,-3.1377,-3.1377,-3.1359,-3.1185,-3.1231,-3.135,0.0,0.0,0.0,0.0,0.0,0.0,0.0,0.0,0.0,0.0,-0.4366,0.0,0.0,0.0,0.0,0.0,0.0,0.0,0.0,0.0,0.0,0.0,-0.8685,-0.8703,-0.8703,-0.8883,-0.9028,0.0,0.0,0.0,0.0,0.0,0.0,0.0,0.0,0.0,0.0,0.0,0.0,0.0,0.0,0.0,0.0,0.0,0.0,0.0,0.0,0.0,0.0,0.0,-1.3909,-1.4515,-1.559,-1.63,-1.6982,-1.7681,-1.8007,-1.8215,-1.8784,-1.8951,-1.9045,-1.9357,-1.926,-1.9,-1.894,-1.8259,-1.7532,-1.7267,0.0,-1.6347,-1.5958,-1.6518,-1.7224,-1.7832,0.0,-1.9745,-2.0601,-2.0949,-2.1223,-2.1581,-2.1648,-2.1789,-2.2017,-2.2078,-2.2205,-2.2458,-2.3929,-2.4509,-2.3812,-2.5227,-2.6315,-2.6859,-2.7085,-2.8508,-3.1147,-3.2727,-3.3381,-3.3164,-3.2009,-3.1296,-3.0864,-2.971,-2.9782,-3.0892,-3.0282,-3.0793,-3.198,-3.1382,-3.1111,-3.1111,-3.1313,-3.1313,-3.1074,-3.0929,-3.0956,-3.113,0.0,0.0,0.0,0.0,0.0,0.0,0.0,0.0,0.0,0.0,-0.4644,-0.4588,0.0,0.0,0.0,0.0,0.0,0.0,0.0,0.0,0.0,0.0,-0.8614,-0.8703,-0.8703,0.0,0.0,0.0,0.0,0.0,0.0,0.0,0.0,0.0,0.0,0.0,0.0,0.0,0.0,0.0,0.0,0.0,0.0,0.0,0.0,0.0,0.0,0.0,0.0,0.0,-1.4469,-1.5671,-1.6655,-1.7177,-1.7488,-1.7902,-1.8365,-1.8791,-1.8891,-1.9105,-1.9357,-1.9635,-1.9704,-1.9549,-1.9271,-1.8676,0.0,0.0,0.0,-1.5558,-1.4812,-1.5597,0.0,-1.7789,0.0,0.0,0.0,0.0,-2.1223,0.0,0.0,0.0,0.0,0.0,0.0,0.0,-2.3572,-2.3937,-2.3839,-2.4323,-2.526,-2.6859,-2.8148,-2.9067,-2.9568,-3.1147,-3.1288,-2.9995,-3.1005,-3.0154,-2.7722,-2.8708,-2.8644,-2.7765,-2.8278,-2.8737,-2.9023,-2.9441,-2.9665,-2.9796,-3.0917,-3.0714,-2.9787,-3.0909,-3.0595,-2.9787,0.0,0.0,0.0,0.0,0.0,0.0,0.0,-0.4512,-0.4558,-0.4505,-0.4787,-0.4913,-0.4667,-0.4713,-0.4993,0.0,0.0,0.0,0.0,0.0,0.0,0.0,0.0,0.0,0.0,0.0,0.0,0.0,0.0,0.0,0.0,0.0,0.0,0.0,0.0,0.0,0.0,0.0,0.0,0.0,0.0,0.0,0.0,0.0,0.0,0.0,0.0,0.0,0.0,0.0,-1.4198,-1.5959,-1.6843,-1.7445,-1.7883,-1.8347,-1.8689,-1.8958,-1.9112,-1.9259,-1.9482,-1.9758,-1.9407,-1.8966,-1.8613,0.0,0.0,0.0,0.0,-1.5176,-1.4738,0.0,0.0,0.0,0.0,0.0,0.0,0.0,0.0,0.0,0.0,0.0,0.0,0.0,0.0,0.0,-2.328,-2.3607,-2.3761,-2.4189,-2.4776,-2.5712,-2.7215,-2.8004,-2.8004,-2.9496,-2.9924,-2.9202,-2.9147,-2.83,-2.6867,-2.6859,-2.6765,-2.6719,-2.6939,-2.7393,-2.7936,-2.8078,-2.8188,-2.8188,-2.8912,-2.878,-2.8254,-2.8912,-2.9248,-2.9404,0.0,0.0,0.0,0.0,0.0,0.0,0.0,-0.4541,-0.4642,-0.4489,-0.4888,-0.5079,-0.4923,-0.4871,-0.5089,0.0,0.0,0.0,0.0,0.0,0.0,0.0,0.0,0.0,0.0,0.0,0.0,0.0,0.0,0.0,0.0,0.0,0.0,0.0,0.0,0.0,0.0,0.0,0.0,0.0,0.0,0.0,0.0,0.0,0.0,0.0,0.0,0.0,0.0,0.0,-1.3554,-1.5497,-1.6366,-1.7234,-1.8003,-1.8571,-1.8805,-1.8991,-1.9285,-1.9424,-1.9468,-1.9733,-1.9139,-1.8367,-1.7889,-1.7065,0.0,0.0,-1.4873,-1.4823,-1.4674,0.0,0.0,0.0,0.0,0.0,0.0,0.0,0.0,0.0,0.0,0.0,0.0,0.0,0.0,0.0,-2.3153,-2.3487,-2.3841,-2.4356,-2.4636,-2.4636,-2.5793,-2.6437,-2.6437,-2.7932,-2.8565,-2.8213,-2.7288,-2.6728,-2.6364,-2.507,-2.5052,-2.5999,-2.5547,-2.5864,-2.6747,-2.6669,-2.6647,-2.6655,-2.698,-2.6914,-2.6722,-2.698,-2.7652,-2.8403,0.0,0.0,0.0,0.0,0.0,0.0,0.0,-0.4619,-0.4739,-0.4925,-0.4841,-0.4879,-0.5127,-0.5154,-0.5155,0.0,0.0,0.0,0.0,0.0,0.0,0.0,0.0,0.0,0.0,0.0,0.0,0.0,0.0,0.0,0.0,0.0,0.0,0.0,0.0,0.0,0.0,0.0,0.0,0.0,0.0,0.0,0.0,0.0,0.0,0.0,0.0,0.0,0.0,0.0,0.0,-1.3983,-1.4882,-1.6321,-1.7689,-1.7996,0.0,0.0,-1.9285,-1.9424,-1.9472,-1.9757,-1.9305,-1.8615,-1.7949,0.0,0.0,0.0,-1.4531,-1.4372,-1.3808,-1.47,0.0,0.0,0.0,0.0,0.0,0.0,0.0,0.0,0.0,0.0,0.0,0.0,0.0,-2.2928,-2.3153,-2.3574,-2.4135,-2.4462,-2.4636,-2.4636,-2.471,-2.4777,-2.4777,-2.6364,-2.6437,-2.5065,-2.6291,-2.6152,-2.477,-2.4435,-2.4294,-2.4379,-2.3813,-2.362,-2.3781,-2.4807,-2.5203,-2.5338,-2.6588,-2.6321,-2.5338,-2.6647,-2.6388,-2.5607,0.0,0.0,0.0,0.0,0.0,0.0,-0.4628,-0.4733,-0.483,-0.4868,-0.4873,-0.488,-0.4942,-0.5012,-0.5062,-0.4995,0.0,0.0,0.0,0.0,0.0,0.0,0.0,0.0,0.0,0.0,0.0,0.0,0.0,0.0,0.0,0.0,0.0,0.0,0.0,0.0,0.0,0.0,0.0,0.0,0.0,0.0,0.0,0.0,0.0,0.0,0.0,0.0,0.0,0.0,0.0,0.0,-1.4103,-1.513,0.0,0.0,-1.7929,-1.8442,-1.8971,-1.9232,-1.9465,-1.9716,-1.9152,-1.8292,-1.7432,0.0,0.0,-1.4187,-1.4078,-1.4136,-1.3883,-1.4277,-1.4943,0.0,-1.6608,-1.7486,0.0,0.0,0.0,0.0,0.0,0.0,0.0,0.0,0.0,-2.2928,-2.3153,-2.3427,-2.3661,-2.4122,-2.4456,-2.4556,-2.4636,-2.4636,-2.4636,-2.5212,-2.5212,-2.4636,-2.5212,-2.5123,-2.4376,-2.4255,-2.4008,-2.3661,-2.3427,-2.322,-2.3102,-2.3516,-2.3734,-2.3802,-2.4331,-2.4196,-2.3802,-2.4392,-2.473,-2.5075,0.0,0.0,0.0,0.0,0.0,-0.4654,-0.4702,-0.4833,-0.4896,-0.4796,-0.4835,-0.4858,-0.4763,-0.489,-0.501,-0.5201,-0.6274,0.0,0.0,0.0,0.0,0.0,0.0,0.0,0.0,0.0,-0.8985,-0.8985,0.0,0.0,0.0,0.0,0.0,0.0,0.0,0.0,0.0,0.0,0.0,0.0,0.0,0.0,0.0,0.0,0.0,0.0,0.0,0.0,0.0,0.0,0.0,0.0,0.0,0.0,0.0,0.0,-1.7248,-1.7929,-1.8611,-1.8951,-1.9203,-1.9445,-1.8859,-1.792,0.0,0.0,-1.5452,-1.3828,-1.3755,-1.3953,-1.3857,-1.406,-1.4474,-1.5224,-1.5987,-1.6774,-1.7736,0.0,0.0,0.0,0.0,0.0,0.0,0.0,0.0,-2.2928,-2.3066,-2.3233,-2.3327,-2.3714,-2.4082,-2.4369,-2.4382,-2.4382,-2.4382,-2.4469,-2.4469,-2.4382,-2.4469,-2.4356,-2.4075,-2.3988,-2.3714,-2.3327,-2.3233,-2.3066,-2.2928,-2.2928,-2.2928,-2.2928,-2.2928,-2.2928,-2.2928,-2.2928,-2.3536,-2.4392,0.0,0.0,0.0,0.0,0.0,0.0,-0.4702,-0.4865,-0.4917,-0.4746,-0.4703,-0.4703,-0.4703,-0.4774,-0.5071,-0.5746,-0.6489,0.0,0.0,0.0,0.0,0.0,0.0,0.0,0.0,0.0,-0.8985,-0.8985,-0.9183,-0.9282,0.0,0.0,0.0,0.0,0.0,0.0,0.0,0.0,0.0,0.0,0.0,0.0,0.0,0.0,0.0,0.0,0.0,0.0,0.0,0.0,0.0,0.0,0.0,0.0,0.0,0.0,-1.6466,-1.7407,-1.825,-1.8497,-1.8534,-1.8752,-1.837,-1.7534,0.0,-1.5921,-1.5452,-1.3828,-1.3755,-1.3887,-1.3558,-1.4089,-1.4629,-1.4692,-1.607,-1.7218,-1.7554,0.0,0.0,0.0,0.0,0.0,0.0,0.0,0.0,-2.2928,-2.2934,0.0,-2.3307,-2.3333,-2.3474,-2.3774,-2.3781,-2.3781,-2.3781,-2.4062,-2.4062,-2.3781,-2.4068,-2.4055,-2.3768,-2.3474,-2.3333,-2.3307,-2.2999,-2.2934,-2.2928,-2.2928,-2.2928,-2.2928,-2.2928,-2.2928,-2.2928,-2.2928,-2.2934,-2.2887,0.0,0.0,0.0,0.0,0.0,0.0,0.0,-0.5123,-0.5141,-0.5125,-0.4915,-0.4789,-0.4907,-0.4731,-0.4976,-0.5911,-0.6548,0.0,0.0,0.0,0.0,0.0,0.0,0.0,0.0,-0.9048,-0.9258,-0.9409,-0.9653,-0.9795,-0.979,-0.9545,0.0,0.0,0.0,0.0,0.0,0.0,0.0,0.0,0.0,0.0,0.0,0.0,0.0,0.0,0.0,0.0,0.0,0.0,0.0,0.0,0.0,0.0,0.0,0.0,0.0,0.0,-1.6593,-1.7217,-1.7714,-1.7399,-1.726,-1.6935,-1.5792,-1.5367,-1.4878,-1.374,-1.3579,-1.3616,-1.3514,-1.4075,-1.4763,-1.546,-1.6358,0.0,0.0,0.0,0.0,0.0,0.0,0.0,0.0,0.0,-2.2928,-2.2928,-2.2928,-2.2975,-2.3006,-2.3006,-2.324,-2.3754,-2.3774,-2.3774,-2.3774,-2.3861,-2.3861,-2.3774,-2.3868,-2.3754,-2.346,-2.3374,-2.3207,-2.3006,-2.2975,-2.2928,-2.2928,-2.2928,-2.2928,-2.2928,-2.2928,-2.2928,-2.2928,-2.2928,-2.2732,-2.2545,0.0,0.0,0.0,0.0,0.0,0.0,0.0,-0.5205,-0.5104,-0.5102,-0.4932,-0.4803,-0.4794,-0.5029,-0.5473,-0.6385,-0.7082,0.0,0.0,0.0,0.0,0.0,0.0,0.0,-0.8822,-0.9152,-0.9469,-0.9762,-1.0013,-1.0156,-1.0227,-0.9979,-0.9767,-0.9554,0.0,0.0,0.0,0.0,0.0,0.0,0.0,0.0,0.0,0.0,0.0,0.0,0.0,0.0,0.0,0.0,0.0,0.0,0.0,0.0,0.0,0.0,-1.4033,0.0,0.0,-1.6217,-1.6778,-1.6599,-1.6546,-1.6314,-1.5427,-1.4951,-1.4523,-1.3675,-1.3492,-1.3492,-1.3492,-1.4083,-1.4691,-1.5212,-1.6038,0.0,0.0,0.0,0.0,0.0,0.0,0.0,0.0,-2.28,-2.2928,-2.2928,-2.2928,-2.2928,-2.2928,-2.2928,-2.304,-2.3414,-2.3427,-2.3427,-2.3427,-2.3541,-2.3541,-2.3427,-2.3547,-2.3447,-2.3153,-2.3153,-2.3046,-2.2928,-2.2928,-2.2928,0.0,-2.2928,-2.2928,-2.2928,-2.2928,-2.2928,-2.2846,-2.2739,-2.2579,-2.2385,0.0,0.0,0.0,0.0,0.0,0.0,0.0,-0.513,-0.495,-0.4829,-0.479,-0.4729,-0.4628,-0.5537,-0.6445,-0.7049,0.0,0.0,0.0,0.0,0.0,0.0,0.0,0.0,-0.8981,-0.9197,-0.9559,-1.0042,-1.0241,-1.045,-1.0659,-1.0455,-1.0241,-1.0009,-0.9762,-0.9395,0.0,0.0,0.0,0.0,0.0,0.0,0.0,0.0,0.0,0.0,0.0,0.0,0.0,0.0,0.0,0.0,0.0,0.0,0.0,0.0,0.0,0.0,0.0,0.0,0.0,0.0,0.0,-1.5698,-1.5005,-1.4648,0.0,-1.3623,-1.3492,-1.3514,-1.3587,-1.4156,-1.4538,-1.4355,-1.5415,0.0,0.0,0.0,0.0,0.0,0.0,0.0,0.0,-2.2539,-2.2928,-2.2928,-2.2928,-2.2928,-2.2928,-2.2928,-2.2928,-2.2928,-2.2928,-2.2928,-2.2928,-2.3146,-2.3146,-2.2934,-2.3153,-2.314,-2.2928,-2.2928,-2.2928,-2.2928,-2.2928,-2.2928,-2.2928,-2.2928,-2.2928,-2.2928,-2.2839,-2.2826,-2.2792,-2.2498,-2.2372,-2.2278,0.0,0.0,0.0,0.0,0.0,0.0,0.0,0.0,0.0,0.0,-0.4816,-0.5004,-0.5503,-0.5808,-0.6529,0.0,0.0,0.0,0.0,0.0,0.0,0.0,0.0,0.0,-0.8985,-0.9343,-0.9852,-1.0474,-1.0526,-1.0688,-1.1042,-1.0844,-1.0551,-1.0232,-1.0018,-0.9649,0.0,0.0,0.0,0.0,0.0,0.0,0.0,0.0,0.0,0.0,0.0,-0.9743,0.0,0.0,0.0,0.0,0.0,0.0,0.0,0.0,-1.2732,-1.2971,-1.3313,0.0,-1.4594,-1.4468,-1.4655,-1.4754,0.0,-1.415,-1.3982,0.0,0.0,0.0,-1.4426,-1.455,-1.4993,-1.6407,0.0,0.0,0.0,0.0,0.0,0.0,0.0,0.0,0.0,-2.2847,-2.2928,-2.2928,-2.2928,-2.2928,-2.2928,-2.2928,-2.2928,-2.2928,-2.2928,-2.2928,-2.2928,-2.2933,-2.2933,-2.2928,-2.2939,-2.2933,-2.2928,-2.2928,-2.2928,-2.2928,-2.2928,-2.2928,-2.2928,-2.2928,-2.2928,-2.2839,-2.2612,-2.2525,-2.2485,-2.2198,-2.1944,-2.1802,0.0,0.0,0.0,0.0,0.0,0.0,0.0,0.0,0.0,0.0,0.0,-0.4993,-0.5425,-0.6165,0.0,0.0,0.0,0.0,0.0,0.0,0.0,0.0,0.0,-0.9169,-0.9268,-0.9489,-0.9907,-1.0621,-1.0621,-1.0787,-1.1194,-1.1085,-1.0811,-1.0441,-0.9993,-0.9686,0.0,0.0,0.0,0.0,0.0,0.0,0.0,0.0,0.0,0.0,-0.9887,-0.9975,0.0,-1.1842,-1.2241,-1.2036,0.0,0.0,0.0,0.0,-1.2563,-1.261,-1.275,-1.3535,-1.4272,-1.4251,-1.4467,-1.464,-1.4465,0.0,0.0,0.0,0.0,0.0,0.0,0.0,0.0,0.0,0.0,0.0,0.0,0.0,0.0,0.0,0.0,0.0,0.0,-2.2916,-2.2928,-2.2928,-2.2928,-2.2928,-2.2928,-2.2928,-2.2928,-2.2928,-2.2928,-2.2928,-2.2928,-2.2928,-2.2928,-2.2928,-2.2928,-2.2928,-2.2928,-2.2928,-2.2928,-2.2928,-2.2928,-2.2928,-2.2921,-2.2712,-2.2659,-2.2632,-2.2331,-2.2218,-2.2184,-2.1897,-2.1748,-2.1601,0.0,0.0,0.0,0.0,0.0,0.0,0.0,0.0,0.0,0.0,0.0,0.0,0.0,0.0,0.0,0.0,0.0,0.0,0.0,0.0,0.0,0.0,-0.943,-0.9474,-0.9644,-0.9691,-1.0042,-1.0668,-1.0635,-1.0787,-1.1194,-1.1194,-1.0976,-1.0546,-0.9989,-0.9682,-0.9649,0.0,0.0,0.0,0.0,0.0,0.0,0.0,0.0,0.0,0.0,0.0,0.0,-1.2245,-1.2466,-1.196,-1.2844,0.0,0.0,0.0,0.0,0.0,-1.2757,-1.3564,-1.4384,-1.4544,-1.4698,-1.4838,0.0,0.0,0.0,0.0,0.0,0.0,0.0,0.0,0.0,0.0,0.0,0.0,0.0,0.0,0.0,0.0,0.0,0.0,-2.2919,-2.2849,-2.2862,-2.2862,-2.2841,-2.2792,-2.2792,-2.2839,-2.2928,-2.2928,-2.2928,-2.2928,-2.2928,-2.2928,-2.2928,-2.2928,-2.2928,-2.2928,-2.2928,-2.2928,-2.2839,-2.2792,-2.2792,-2.2772,-2.2706,-2.2458,-2.2352,-2.2325,-2.2031,-2.1924,-2.1884,-2.1655,-2.1547,-2.145,0.0,0.0,0.0,0.0,0.0,0.0,0.0,0.0,0.0,0.0,0.0,0.0,0.0,0.0,0.0,0.0,0.0,0.0,0.0,0.0,0.0,-1.0497,-1.011,-0.9903,-0.9942,-1.012,-1.0389,-1.0844,-1.0664,-1.0787,-1.1194,-1.1194,-1.0976,-1.0607,-1.0296,-1.0123,-0.9947,-0.9947,0.0,0.0,0.0,0.0,0.0,0.0,0.0,0.0,0.0,0.0,0.0,-1.1704,-1.1815,-1.1633,-1.2573,0.0,0.0,0.0,0.0,0.0,-1.2986,-1.3804,-1.4331,-1.3676,-1.4087,-1.4554,-1.4214,0.0,0.0,0.0,0.0,0.0,0.0,0.0,0.0,0.0,0.0,0.0,0.0,0.0,0.0,0.0,0.0,-2.2697,-2.2939,-2.2752,-2.2581,-2.2581,-2.2479,-2.2485,-2.2485,-2.2726,-2.2928,-2.2928,-2.2928,-2.2928,-2.2928,-2.2928,-2.2928,-2.2928,-2.2928,-2.2928,-2.2928,-2.2928,-2.2726,-2.2485,-2.2485,-2.2345,-2.2118,-2.2071,-2.2051,-2.2024,-2.1802,-2.1681,-2.1648,-2.1289,-2.1176,-2.1169,0.0,0.0,0.0,0.0,0.0,0.0,0.0,0.0,0.0,0.0,0.0,0.0,0.0,0.0,0.0,0.0,0.0,0.0,0.0,0.0,-1.0696,-1.0647,-1.0486,-1.0341,-1.0337,-1.0431,-1.0603,-1.0896,-1.0905,-1.1009,-1.1189,-1.0962,-1.0759,-1.0607,-1.0289,-1.0089,-0.9994,-0.9994,-0.9994,0.0,0.0,0.0,0.0,0.0,0.0,0.0,0.0,0.0,0.0,0.0,-1.1814,-1.1803,-1.2546,0.0,0.0,0.0,0.0,0.0,-1.2645,-1.3232,-1.375,-1.3478,-1.428,-1.5078,-1.492,0.0,0.0,0.0,0.0,0.0,0.0,0.0,0.0,0.0,0.0,0.0,0.0,0.0,0.0,0.0,0.0,-2.2629,-2.2769,-2.248,-2.2247,-2.2247,-2.2177,-2.2184,-2.2184,-2.2311,-2.2385,-2.2385,-2.2385,-2.2385,-2.2385,-2.2385,-2.2465,-2.2619,-2.2619,-2.2539,-2.2385,-2.2385,-2.2311,-2.2184,-2.2184,-2.2111,-2.1977,-2.1817,-2.175,-2.1724,-2.143,-2.1309,-2.1296,-2.1162,-2.1109,-2.1109,0.0,0.0,0.0,0.0,0.0,0.0,0.0,0.0,0.0,0.0,0.0,0.0,0.0,0.0,0.0,0.0,0.0,0.0,0.0,-1.0394,-1.0809,-1.0682,-1.0787,-1.0809,-1.0682,-1.0635,-1.0729,-1.0967,-1.117,-1.1293,-1.1331,-1.0868,-1.0668,-1.0556,-1.0236,-1.0042,-0.9994,-0.9994,-1.0038,0.0,0.0,0.0,0.0,0.0,0.0,0.0,0.0,0.0,0.0,0.0,0.0,0.0,0.0,0.0,0.0,-1.2371,-1.2305,-1.2331,-1.2478,-1.2852,-1.328,-1.356,0.0,-1.5388,-1.5578,-1.5607,0.0,0.0,0.0,0.0,0.0,0.0,0.0,0.0,0.0,0.0,0.0,-2.1864,-2.2272,-2.2827,-2.2638,-2.2468,-2.2468,-2.2097,-2.1907,-2.1907,-2.1909,-2.1884,-2.1884,-2.1951,-2.1984,-2.1984,-2.1984,-2.1984,-2.1984,-2.1984,-2.2098,-2.2318,-2.2318,-2.2205,-2.1984,-2.1984,-2.1951,-2.1884,-2.1884,-2.1844,-2.1764,-2.1543,-2.145,-2.1494,-2.1196,-2.1109,-2.1109,-2.1109,-2.1109,-2.1109,0.0,0.0,0.0,0.0,0.0,0.0,0.0,0.0,0.0,0.0,0.0,0.0,0.0,0.0,0.0,0.0,0.0,0.0,0.0,-1.0658,-1.1186,-1.0991,-1.1167,-1.1162,-1.0887,-1.07,-1.0796,-1.1175,-1.1387,-1.159,-1.1761,-1.1156,-1.0764,-1.0611,-1.0393,-1.0184,-0.9994,-0.9994,-1.012,-1.0274,-1.0069,0.0,0.0,0.0,0.0,0.0,0.0,0.0,0.0,0.0,0.0,0.0,0.0,0.0,-1.2325,-1.2311,-1.2305,-1.2425,-1.2993,-1.318,-1.334,-1.3929,-1.4286,0.0,-1.5436,-1.5777,0.0,-1.6668,0.0,0.0,0.0,0.0,0.0,0.0,0.0,0.0,0.0,0.0,-2.2146,-2.2174,-2.2132,-2.2146,-2.2146,-2.1852,-2.1613,-2.1613,-2.1615,-2.1648,-2.1648,-2.1837,-2.1984,-2.1984,-2.1984,-2.1984,-2.1984,-2.1984,-2.1997,-2.2017,-2.2017,-2.2004,-2.1984,-2.1984,-2.1837,-2.1648,-2.1648,-2.143,-2.1169,-2.1149,-2.1142,-2.1136,-2.1116,-2.1109,-2.1109,-2.1109,-2.1109,-2.1109,0.0,0.0,0.0,0.0,0.0,0.0,0.0,0.0,0.0,0.0,0.0,0.0,0.0,0.0,0.0,0.0,0.0,0.0,0.0,-1.0181,-1.0479,-1.0573,-1.0088,-0.9989,-1.0454,-1.0934,-1.1216,-1.1397,-1.1477,-1.1619,-1.1798,-1.1047,-1.065,-1.0607,-1.0265,-1.007,-0.9994,-1.0125,-1.025,-1.0332,-1.0378,0.0,0.0,0.0,0.0,0.0,0.0,0.0,0.0,0.0,-1.1335,-1.1818,-1.2187,-1.2305,-1.2305,-1.2305,-1.2305,-1.2351,-1.2585,-1.2926,-1.3353,-1.3941,-1.4258,0.0,0.0,-1.6344,-1.7036,-1.751,-1.7736,0.0,0.0,0.0,0.0,0.0,0.0,0.0,-2.1416,-2.1665,-2.1859,-2.2111,-2.1922,-2.1796,-2.1796,-2.1488,-2.1292,-2.1292,-2.1273,-2.1276,-2.1276,-2.1383,-2.1443,-2.1443,-2.1443,-2.1443,-2.1443,-2.1443,-2.1443,-2.1443,-2.1623,-2.1617,-2.1443,-2.1443,-2.1383,-2.1276,-2.1276,-2.1216,-2.1109,-2.1109,-2.1109,-2.1109,-2.1109,-2.1109,-2.1109,-2.1109,-2.1109,-2.1109,0.0,0.0,0.0,0.0,0.0,0.0,0.0,0.0,0.0,0.0,0.0,0.0,0.0,0.0,0.0,0.0,0.0,0.0,-0.9385,-0.9563,-0.9676,-0.9781,-0.9513,-0.9549,-1.0007,-1.0991,-1.1594,-1.1771,-1.1733,-1.1754,-1.1709,-1.1005,-1.0636,-1.0607,-1.0255,-1.0099,-1.0089,-1.0168,-1.0239,-1.032,-1.0583,-1.0444,0.0,0.0,0.0,0.0,0.0,0.0,0.0,0.0,-1.1558,-1.1855,-1.2194,-1.2305,-1.2305,-1.2305,-1.2365,-1.2445,-1.2445,-1.2819,-1.3333,-1.3821,0.0,0.0,-1.6028,-1.6813,-1.7564,-1.8167,-1.8478,0.0,0.0,0.0,0.0,0.0,-2.0909,-2.125,-2.1398,-2.1418,-2.1544,-2.1734,-2.1607,-2.1418,-2.1418,-2.1235,-2.1109,-2.1109,-2.1109,-2.1109,-2.1109,-2.1109,-2.1109,-2.1109,-2.1109,-2.1109,-2.1109,-2.1109,-2.1109,-2.1109,-2.1316,-2.1303,-2.1109,-2.1109,-2.1109,-2.1109,-2.1109,-2.1109,-2.1109,-2.1109,-2.1109,-2.1109,-2.1109,-2.1109,-2.1109,-2.1109,-2.1109,-2.1109,0.0,0.0,0.0,0.0,0.0,0.0,0.0,0.0,0.0,0.0,0.0,0.0,0.0,0.0,0.0,0.0,0.0,0.0,-0.8356,-0.8785,-0.8916,-0.8713,-0.9719,-1.0069,-0.9579,-1.0863,-1.1737,-1.2274,-1.2281,-1.2021,-1.1505,-1.1085,-1.0778,-1.0607,-1.0407,-1.0317,-1.0284,-1.0033,-1.006,-1.0312,-1.0517,-1.0499,-1.032,0.0,0.0,0.0,0.0,0.0,0.0,0.0,-1.2599,-1.2562,-1.2378,-1.2305,-1.2311,-1.2305,-1.2556,-1.279,-1.2784,-1.3012,-1.3287,0.0,0.0,0.0,-1.6931,-1.717,-1.7438,-1.8663,0.0,-1.9327,-1.929,0.0,0.0,-2.0212,-2.0712,-2.1109,-2.1109,-2.1109,-2.1109,-2.1109,-2.1109,-2.1109,-2.1109,-2.1109,-2.1109,-2.1109,-2.1109,-2.1109,-2.1109,-2.1109,-2.1109,-2.1109,-2.1109,-2.1109,-2.1109,-2.1109,-2.1109,-2.1109,-2.1109,-2.1109,-2.1109,-2.1109,-2.1109,-2.1109,-2.1109,-2.1109,-2.1109,-2.1109,-2.1109,-2.1109,-2.1109,-2.1109,-2.1109,-2.1109,-2.1109,-2.1109,0.0,0.0,0.0,0.0,0.0,0.0,0.0,0.0,0.0,0.0,0.0,0.0,0.0,0.0,0.0,0.0,0.0,0.0,-0.8572,-0.8154,-0.7975,-0.8183,-0.8334,-0.8626,-0.9103,-1.0646,-1.1533,-1.1721,-1.158,-1.1377,-1.1075,-1.0801,-1.056,-1.0407,-1.0346,-1.0195,-1.0033,-1.0162,-1.0226,-1.0331,-1.0536,-1.0482,-1.0304,0.0,0.0,0.0,0.0,0.0,0.0,0.0,0.0,0.0,-1.2415,-1.2712,-1.2859,-1.2432,-1.2665,-1.2979,-1.2552,-1.3113,0.0,0.0,0.0,0.0,0.0,-1.7907,0.0,0.0,-1.9304,-1.9292,-1.9319,0.0,0.0,-2.0153,-2.0537,-2.0875,-2.1082,-2.1109,-2.1109,-2.1109,-2.1109,-2.1109,-2.1109,-2.1109,-2.1109,-2.1109,-2.1109,-2.1109,-2.1109,-2.1109,-2.1109,-2.1109,-2.1109,-2.1109,-2.1109,-2.1109,-2.1109,-2.1109,-2.1109,-2.1109,-2.1109,-2.1109,-2.1109,-2.1109,-2.1109,-2.1109,-2.1109,-2.1109,-2.1109,-2.1109,-2.1109,-2.1109,-2.1109,-2.1109,-2.1109,-2.1109,0.0,0.0,0.0,0.0,0.0,0.0,0.0,0.0,0.0,0.0,-0.6477,-0.6566,0.0,0.0,0.0,0.0,0.0,0.0,-0.7777,-0.732,-0.7186,-0.7491,-0.765,-0.8221,-0.9261,-1.0618,-1.1278,-1.1115,-1.1298,-1.1168,-1.0785,-1.0823,-1.0681,-1.0441,-1.0485,-1.0421,-1.0182,-1.0261,-1.0227,-1.0151,-1.0395,-1.0492,-1.0523,0.0,0.0,0.0,0.0,0.0,0.0,0.0,0.0,0.0,-1.239,0.0,-1.2625,-1.2378,-1.2645,-1.3026,-1.3013,0.0,0.0,0.0,0.0,0.0,0.0,0.0,0.0,0.0,0.0,-1.9519,-1.9527,-1.9849,0.0,-2.0388,-2.0658,-2.0909,-2.1082,-2.1109,-2.1109,-2.1109,-2.1109,-2.1109,-2.1109,-2.1109,-2.1109,-2.1109,-2.1109,-2.1109,-2.1109,-2.1109,-2.1109,-2.1109,-2.1109,-2.1109,-2.1109,-2.0849,-2.0722,-2.0722,-2.0412,-2.0284,-2.0348,-2.0856,-2.1109,-2.1109,-2.1109,-2.1109,-2.1109,-2.1109,-2.1109,-2.1109,-2.1109,-2.1109,-2.1109,-2.1109,-2.1109,-2.1109,0.0,0.0,0.0,0.0,0.0,0.0,0.0,0.0,0.0,0.0,-0.6412,-0.6552,0.0,0.0,0.0,0.0,0.0,0.0,0.0,-0.6518,-0.6539,-0.6695,-0.7624,-0.8705,-0.9912,-1.0734,-1.1018,-1.0671,-1.1286,-1.1261,-1.0562,-1.0971,-1.0918,-1.0602,-1.0796,-1.0742,-1.0538,-1.0359,-1.0166,-1.0004,-1.0251,-1.0552,-1.0906,-1.1152,0.0,0.0,0.0,0.0,0.0,0.0,0.0,0.0,-1.2428,-1.2145,-1.2033,-1.2268,-1.2569,-1.3005,0.0,0.0,0.0,0.0,0.0,0.0,0.0,0.0,0.0,0.0,0.0,-1.9788,-1.9765,-2.0253,-2.0625,-2.065,-2.0902,-2.1109,-2.1109,-2.1109,-2.1109,-2.1109,-2.1109,-2.1109,-2.1109,-2.1109,-2.1109,-2.1109,-2.1109,-2.1109,-2.1109,-2.1109,-2.1109,-2.1109,-2.1109,-2.1046,-2.0982,-2.0399,-2.0075,-2.0017,-1.9386,-1.9078,-1.9136,-2.0412,-2.1046,-2.1109,-2.1109,-2.1109,-2.1109,-2.1109,-2.1109,-2.1109,-2.1109,-2.1109,-2.1109,-2.1109,-2.1109,-2.1109,0.0,0.0,0.0,0.0,0.0,0.0,0.0,0.0,0.0,0.0,0.0,0.0,0.0,0.0,0.0,0.0,0.0,0.0,0.0,-0.6539,-0.6539,-0.6695,-0.8198,-0.939,-1.0131,-1.0711,-1.1086,-1.1213,-1.0958,-1.0686,-1.0372,-1.0596,-1.0603,-1.0384,-1.0567,-1.0568,-1.0344,-1.0095,-1.0243,-1.0602,-1.0678,-1.1023,-1.1496,-1.1564,-1.1927,0.0,0.0,0.0,0.0,0.0,0.0,0.0,-1.3005,-1.2889,-1.2743,-1.2573,-1.2799,-1.3153,0.0,0.0,0.0,0.0,0.0,0.0,0.0,0.0,0.0,0.0,0.0,-1.9502,-1.9504,-1.9946,-2.0315,-2.0321,-2.0768,-2.1109,-2.1109,-2.1109,-2.1109,-2.1109,-2.1109,-2.1109,-2.1109,-2.1109,-2.1109,-2.1109,-2.1109,-2.1109,-2.1109,-2.1109,-2.1109,-2.1109,-2.1109,-2.0856,-2.0335,-2.0144,-1.9826,-1.9328,-1.92,-1.9078,-1.9142,-1.996,-2.0596,-2.1109,-2.1109,-2.1109,-2.1109,-2.1109,-2.1109,-2.1109,-2.1109,-2.1109,-2.1109,-2.1109,-2.1109,-2.1109,0.0,0.0,0.0,0.0,0.0,0.0,0.0,0.0,0.0,0.0,0.0,0.0,0.0,0.0,0.0,0.0,0.0,0.0,0.0,-0.6556,-0.6603,-0.6898,-0.8389,-0.9363,-0.9688,-1.0495,-1.0967,-1.1008,-1.0637,-1.0525,-1.0637,-1.072,-1.0695,-1.057,-1.069,-1.0627,-1.0449,-1.0481,-1.0416,-1.0384,-1.0575,-1.1065,-1.1671,-1.1368,-1.1896,-1.2746,-1.2746,0.0,0.0,0.0,0.0,0.0,0.0,0.0,-1.2537,-1.2595,-1.2611,-1.2829,0.0,0.0,0.0,0.0,0.0,0.0,0.0,0.0,0.0,0.0,0.0,-1.9573,-1.9573,-1.9933,-2.0281,-2.0421,-2.0702,-2.0949,-2.1089,-2.1109,-2.1109,-2.1109,-2.1109,-2.1109,-2.1109,-2.1109,-2.1109,-2.1109,-2.1109,-2.1109,-2.1109,-2.1109,-2.1109,-2.1109,-2.0786,-2.0462,-2.0075,-1.9437,-1.8932,-1.8553,-1.8232,-1.8232,-1.8617,-1.9635,-2.0272,-2.0659,-2.0976,-2.1109,-2.1109,-2.1109,-2.1109,-2.1109,-2.1109,-2.1109,-2.1109,-2.1109,-2.1109,-2.1109,0.0,0.0,0.0,0.0,0.0,0.0,0.0,0.0,0.0,0.0,0.0,0.0,0.0,0.0,0.0,0.0,0.0,0.0,0.0,-0.6566,-0.6698,-0.7078,-0.8451,-0.915,-0.8997,-1.018,-1.0634,-1.0349,-1.0115,-1.0254,-1.073,-1.0687,-1.0752,-1.0782,-1.0728,-1.0681,-1.0626,-1.0822,-1.0503,-0.993,-1.039,-1.0964,-1.1502,-1.1118,-1.1646,-1.2634,-1.2743,-1.2779,-1.2859,-1.3259,0.0,0.0,0.0,0.0,-1.2206,-1.2587,-1.2458,-1.2498,0.0,0.0,0.0,0.0,0.0,0.0,0.0,0.0,0.0,0.0,0.0,-1.9897,-1.9838,-2.002,-2.0295,-2.0481,-2.0608,-2.0762,-2.1002,-2.1076,-2.1109,-2.1109,-2.1109,-2.1109,-2.1109,-2.1109,-2.1109,-2.1109,-2.1109,-2.1109,-2.1109,-2.1109,-2.1109,-2.1109,-2.0462,-2.0011,-1.9954,-1.8676,-1.7969,-1.784,-1.726,-1.726,-1.784,-1.9182,-1.9884,-2.0138,-2.0722,-2.0982,-2.1109,-2.1109,-2.1109,-2.1109,-2.1109,-2.1109,-2.1109,-2.1109,-2.1109,-2.1109,0.0,0.0,0.0,0.0,0.0,0.0,0.0,0.0,0.0,0.0,-0.6511,-0.6518,-0.6542,-0.6525,0.0,0.0,0.0,0.0,-0.6542,0.0,0.0,-0.7082,-0.8518,-0.9071,-0.8676,-0.9686,-0.9919,-0.9372,-0.8945,-0.9033,-0.9604,-0.9826,-1.0058,-1.0187,-1.0007,-1.0173,-1.0562,-1.0198,-0.9986,-0.9943,-1.0521,-1.0816,-1.0954,-1.1415,-1.1592,-1.1644,-1.2067,-1.2245,-1.2359,-1.2898,-1.3222,0.0,0.0,0.0,-1.2734,-1.3056,-1.2828,0.0,0.0,0.0,0.0,0.0,0.0,0.0,0.0,0.0,0.0,0.0,0.0,-2.016,-1.9877,-2.0064,-2.0223,-1.9966,-2.0347,-2.0688,-2.0728,-2.0949,-2.1109,-2.1109,-2.1109,-2.1109,-2.1109,-2.1109,-2.1109,-2.1109,-2.1109,-2.1109,-2.1109,-2.1109,-2.1109,-2.1109,-2.0462,-1.9826,-1.9264,-1.8425,-1.7711,-1.713,-1.7071,-1.7071,-1.713,-1.7905,-1.8926,-2.0075,-2.0202,-2.0589,-2.1109,-2.1109,-2.1109,-2.1109,-2.1109,-2.1109,-2.1109,-2.1109,-2.1109,-2.1109,0.0,0.0,0.0,0.0,0.0,0.0,0.0,0.0,0.0,0.0,0.0,-0.6545,-0.659,-0.6494,0.0,0.0,0.0,0.0,-0.6508,-0.6617,0.0,-0.7085,-0.7914,-0.8344,-0.8399,-0.8863,-0.8993,-0.8756,-0.8436,-0.8463,-0.88,-0.8968,-0.9367,-0.9916,-0.9643,-0.9763,-1.012,-0.9692,-0.9642,-0.9906,-1.0056,-1.0635,-1.1367,-1.0886,-1.1098,-1.1688,-1.1726,-1.1828,-1.2019,-1.2763,-1.3221,-1.3492,-1.3492,0.0,0.0,0.0,0.0,0.0,0.0,0.0,0.0,0.0,0.0,0.0,0.0,0.0,0.0,0.0,-2.0493,-2.0436,-2.0155,-2.0041,-2.001,-2.0069,-2.0133,-2.0241,-2.0401,-2.0535,-2.0621,-2.0621,-2.0621,-2.0621,-2.0621,-2.0621,-2.0621,-2.0621,-2.0621,-2.0621,-2.0621,-2.0621,-2.0621,-2.0621,-1.9617,-1.8926,-1.8619,-1.7559,-1.7001,-1.6813,-1.7141,-1.7201,-1.7007,-1.7324,-1.7963,-1.8996,-1.9756,-2.0272,-2.0596,-2.0982,-2.1109,-2.1109,-2.1109,-2.1109,-2.1109,-2.1109,-2.1109,-2.1109,0.0,0.0,0.0,0.0,0.0,0.0,0.0,0.0,0.0,0.0,0.0,0.0,-0.663,0.0,0.0,0.0,0.0,0.0,-0.6453,0.0,0.0,0.0,-0.7364,-0.766,-0.7744,-0.7955,-0.802,-0.788,-0.7741,-0.7839,-0.8116,-0.8282,-0.8736,-0.9531,-0.9316,-0.9435,-0.983,-0.9488,-0.9375,-0.9403,-0.9841,-1.0494,-1.1163,-1.0644,-1.1054,-1.1844,-1.1744,-1.1794,-1.1998,-1.2742,-1.3221,-1.3477,-1.3397,-1.3038,0.0,0.0,0.0,0.0,0.0,0.0,0.0,0.0,0.0,0.0,0.0,0.0,0.0,0.0,-2.0608,-2.0551,-2.0444,-2.0164,-2.0007,-2.0234,-2.016,-2.0111,-2.0328,-2.0301,-2.0355,-2.0355,-2.0234,-2.0173,-2.0173,-2.0173,-2.0173,-2.0173,-2.0173,-2.0173,-2.0173,-2.0173,-2.0173,-2.0113,-1.8943,-1.8263,-1.8147,-1.6926,-1.6404,-1.6576,-1.7008,-1.709,-1.6829,-1.6888,-1.7172,-1.7755,-1.9221,-1.9954,-2.0138,-2.0849,-2.1109,-2.1109,-2.1109,-2.1109,-2.1109,-2.1109,-2.1109,-2.1109,0.0,0.0,0.0,0.0,0.0,0.0,0.0,0.0,0.0,0.0,0.0,0.0,-0.6521,-0.6388,-0.63,-0.63,-0.63,0.0,0.0,0.0,0.0,0.0,0.0,0.0,-0.6592,-0.7159,-0.7119,-0.6426,-0.6515,-0.6932,-0.7637,-0.7781,-0.8166,-0.8773,-0.8925,-0.9388,-0.9971,-0.9827,-0.9046,-0.81,-1.031,-1.0479,-0.9524,-1.1301,-1.1893,-1.184,-1.2142,-1.2317,-1.2416,-1.2849,-1.3221,-1.344,-1.3133,-1.3009,-1.2928,0.0,0.0,0.0,0.0,0.0,0.0,0.0,0.0,0.0,0.0,0.0,0.0,0.0,-2.026,-2.0364,-2.0638,-2.048,-2.0277,-2.0298,-2.0478,-2.0673,-2.0687,-2.0646,-2.0651,-2.0651,-2.0409,-2.0173,-2.0173,-2.0173,-2.0173,-2.0173,-2.0173,-2.0173,-2.0173,-2.0173,-2.0059,-1.9828,-1.8827,-1.8147,-1.7845,-1.6802,-1.6323,-1.6334,-1.6344,-1.635,-1.6361,-1.6576,-1.6747,-1.6885,-1.8453,-1.9514,-2.0138,-2.0849,-2.1109,-2.1109,-2.1109,-2.1109,-2.1109,-2.1109,-2.1109,-2.1109,0.0,0.0,0.0,0.0,0.0,0.0,0.0,0.0,0.0,0.0,0.0,0.0,0.0,-0.6385,-0.63,-0.63,-0.63,0.0,0.0,0.0,0.0,0.0,0.0,0.0,-0.6515,-0.6724,-0.6654,-0.63,-0.6351,-0.6668,-0.7264,-0.756,-0.7987,-0.8585,-0.8418,-0.8653,-0.9107,-0.8273,-0.8476,-0.9377,-0.9888,-1.0226,-1.0514,-1.0923,-1.0801,-1.0444,-1.0455,-1.1003,-1.1827,-1.228,-1.3054,-1.3748,-1.3426,-1.3031,-1.2558,-1.1927,-1.2109,0.0,0.0,0.0,0.0,0.0,0.0,0.0,0.0,0.0,0.0,0.0,-1.9811,-1.9986,-2.0089,-2.0217,-2.0385,-2.0551,-2.0477,-2.0431,-2.0431,-2.0412,-2.0365,-2.0137,-2.0019,-1.9908,-1.9673,-1.9679,-1.9679,-1.9679,-1.9679,-1.9679,-1.9679,-1.9489,-1.9194,-1.8904,-1.7995,-1.7099,-1.6391,-1.6431,-1.6325,-1.6081,-1.6484,-1.6498,-1.6317,-1.6404,-1.6441,-1.6515,-1.7696,-1.8401,-1.8862,-2.0017,-2.0462,-2.0526,-2.0912,-2.1109,-2.1109,-2.1109,-2.1109,-2.1109,0.0,0.0,0.0,0.0,0.0,0.0,0.0,0.0,-0.6334,-0.6429,0.0,0.0,0.0,0.0,-0.63,-0.63,-0.63,-0.63,-0.63,-0.63,0.0,0.0,0.0,0.0,-0.6443,-0.6538,-0.6494,-0.63,-0.6399,-0.6634,-0.7031,-0.7329,-0.7717,-0.8245,-0.7856,-0.8079,-0.8672,-0.7856,-0.8452,-0.9904,-0.9795,-1.0284,-1.1036,-1.0912,-1.0782,-1.0661,-1.027,-1.106,-1.2284,-1.23,-1.298,-1.374,-1.3372,-1.276,-1.2083,-1.1558,-1.2003,-1.2675,-1.2891,0.0,0.0,0.0,0.0,0.0,0.0,0.0,0.0,0.0,-1.9323,-1.952,-1.9744,-1.996,-2.0288,-2.0665,-2.0659,-2.0622,-2.0622,-2.05,-2.0328,-1.9989,-1.9873,-1.97,-1.9424,-1.9424,-1.9424,-1.9424,-1.9424,-1.9424,-1.9424,-1.9062,-1.8583,-1.7948,-1.712,-1.636,-1.5601,-1.5997,-1.6074,-1.5893,-1.6232,-1.6248,-1.6075,-1.6156,-1.6188,-1.6266,-1.6941,-1.7501,-1.7983,-1.9464,-2.0075,-2.0144,-2.0849,-2.1109,-2.1109,-2.1109,-2.1109,-2.1109,0.0,0.0,0.0,0.0,0.0,0.0,0.0,0.0,-0.6303,-0.6306,0.0,0.0,0.0,0.0,0.0,-0.6313,-0.6313,-0.631,-0.63,-0.63,-0.63,-0.63,-0.6433,0.0,-0.6303,-0.6539,-0.6549,-0.63,-0.6549,-0.6766,-0.6876,-0.7018,-0.7318,-0.7767,-0.7287,-0.7696,-0.8678,-0.874,-0.8977,-0.9463,-1.0081,-1.0482,-1.0725,-1.1322,-1.1992,-1.2504,-1.1775,-1.2614,-1.3843,-1.2874,-1.2955,-1.3399,-1.2921,-1.2211,-1.1621,-1.1606,-1.2036,-1.2514,0.0,0.0,0.0,0.0,0.0,0.0,0.0,0.0,0.0,0.0,-1.8744,-1.8972,-1.9674,-1.9787,-1.9996,-2.0584,-2.0976,-2.1196,-2.1211,-2.0902,-2.0608,-2.0328,-2.004,-1.9707,-1.9424,-1.9424,-1.9424,-1.9424,-1.9424,-1.9424,-1.9424,-1.9062,-1.8292,-1.6997,-1.6425,-1.5903,-1.5601,-1.5601,-1.5601,-1.5601,-1.5601,-1.5601,-1.5607,-1.5893,-1.5996,-1.6012,-1.6194,-1.6805,-1.7794,-1.9378,-2.0005,-2.0144,-2.0786,-2.1046,-2.1046,-2.1109,-2.1109,-2.1109,0.0,0.0,0.0,0.0,0.0,-0.6463,-0.632,-0.63,-0.6337,0.0,0.0,0.0,-0.6467,-0.6512,-0.658,-0.658,-0.658,-0.6488,-0.6313,-0.63,-0.63,-0.63,-0.6337,-0.634,-0.63,-0.6378,-0.6381,-0.63,-0.6381,-0.6497,-0.6603,-0.6753,-0.6946,-0.7129,-0.7105,-0.7337,-0.7766,-0.7506,-0.8151,-0.928,-0.9477,-0.9774,-1.0108,-1.0226,-1.0128,-0.9896,-0.9606,-1.0468,-1.1679,-1.1266,-1.2347,-1.3856,-1.3694,-1.3005,-1.2211,-1.197,-1.2533,-1.3177,-1.2943,0.0,0.0,0.0,0.0,0.0,0.0,0.0,0.0,0.0,-1.7782,-1.8287,-1.8957,-1.9271,-1.9546,-1.9974,-2.0494,-2.094,-2.1181,-2.1146,-2.0967,-2.0608,-2.0328,-2.0162,-2.0046,-1.9655,-1.9482,-1.9642,-1.954,-1.9424,-1.9424,-1.8421,-1.7479,-1.6649,-1.607,-1.572,-1.5601,-1.5601,-1.5601,-1.5601,-1.5601,-1.5601,-1.5601,-1.5666,-1.5693,-1.5709,-1.5946,-1.6208,-1.6546,-1.7839,-1.8447,-1.8676,-1.989,-2.0399,-2.0462,-2.0912,-2.1109,-2.1109,0.0,0.0,0.0,-0.6898,-0.681,-0.6722,-0.6641,-0.6576,-0.659,0.0,0.0,0.0,-0.6753,-0.6888,-0.6929,-0.6807,-0.6736,-0.66,-0.6405,-0.6334,-0.63,-0.63,-0.63,-0.6327,-0.6385,-0.6388,-0.6388,-0.6388,-0.6388,-0.6402,-0.6426,-0.6515,-0.6597,-0.6739,-0.6763,-0.6892,-0.7075,-0.6837,-0.7724,-0.9256,-0.8991,-0.9322,-0.9955,-0.9728,-0.9624,-0.9496,-0.9217,-1.0382,-1.2005,-1.1005,-1.2022,-1.3634,-1.3337,-1.33,-1.3243,-1.2782,-1.3338,-1.3996,-1.3536,-1.4026,-1.4655,-1.4604,0.0,0.0,-1.5179,-1.5628,0.0,0.0,-1.7355,-1.7808,-1.8467,-1.8738,-1.9023,-1.9536,-1.9879,-2.0281,-2.0742,-2.0918,-2.0885,-2.0594,-2.0422,-2.027,-2.027,-1.9873,-1.9649,-1.9815,-1.9649,-1.9359,-1.8829,-1.783,-1.7009,-1.6371,-1.5833,-1.5601,-1.5601,-1.5601,-1.5601,-1.5601,-1.5601,-1.5601,-1.5601,-1.5601,-1.5601,-1.5607,-1.5747,-1.592,-1.6028,-1.6741,-1.744,-1.8209,-1.9719,-2.0342,-2.0342,-2.0912,-2.1109,-2.1109,0.0,0.0,-0.7095,-0.7095,-0.7109,-0.7115,-0.7098,-0.6991,-0.696,0.0,-0.7028,-0.7034,-0.7223,-0.7366,-0.7316,-0.7007,-0.6858,-0.6678,-0.6549,-0.6388,-0.6306,-0.6323,-0.631,-0.6375,-0.6535,-0.6504,-0.6497,-0.6511,-0.6497,-0.6422,-0.63,-0.63,-0.6368,-0.6484,-0.6358,-0.6457,-0.6668,-0.6583,-0.7584,-0.916,-0.8642,-0.9034,-0.9981,-0.9543,-0.9784,-1.036,-0.9817,-1.1298,-1.3232,-1.1423,-1.1797,-1.2946,-1.2513,-1.3172,-1.4048,-1.3693,-1.4012,-1.4451,-1.4103,-1.4306,-1.4775,-1.5157,-1.483,0.0,-1.587,-1.5752,-1.5695,0.0,0.0,-1.7326,-1.8013,-1.8138,-1.8343,-1.8957,-1.9147,-1.9462,-2.0088,-2.0431,-2.0558,-2.0348,-2.0238,-2.0287,-2.0287,-1.9943,-1.977,-1.977,-1.9747,-1.919,-1.7987,-1.7343,-1.6773,-1.614,-1.5839,-1.5661,-1.5661,-1.5601,-1.5601,-1.5601,-1.5601,-1.5601,-1.5601,-1.5601,-1.5601,-1.5601,-1.5661,-1.5774,-1.6035,-1.6122,-1.6904,-1.8252,-1.9758,-2.0386,-2.0545,-2.0919,-2.1046,-2.1109,0.0,-0.6896,-0.7095,-0.7095,-0.7244,-0.7285,-0.7115,-0.7071,-0.7109,-0.7305,-0.7411,-0.7662,-0.8167,-0.7923,-0.7702,-0.7645,-0.7233,-0.69,-0.6675,-0.645,-0.6351,-0.6467,-0.6361,-0.6426,-0.6651,-0.6463,-0.6399,-0.6511,-0.6399,-0.6327,-0.63,-0.63,-0.6313,-0.634,-0.6313,-0.6395,-0.6539,-0.6868,-0.7341,-0.7939,-0.7955,-0.8529,-0.9367,-0.9264,-0.9559,-0.9881,-0.9678,-1.0038,-1.0728,-1.1282,-1.1422,-1.1522,-1.2982,-1.2609,-1.1995,-1.3601,-1.3218,-1.2487,-1.362,-1.3555,-1.3379,-1.4024,-1.4107,0.0,-1.441,-1.4955,-1.5382,0.0,0.0,-1.6074,-1.702,-1.7182,-1.7314,-1.7647,-1.8372,-1.9199,-2.0051,-2.0241,-2.0278,-2.0223,-2.0005,-1.9993,-2.02,-1.9695,-1.9528,-1.9771,-1.9323,-1.8754,-1.7923,-1.759,-1.7126,-1.6419,-1.614,-1.6022,-1.6022,-1.572,-1.5601,-1.5601,-1.5601,-1.5601,-1.5601,-1.5601,-1.5601,-1.5601,-1.5903,-1.605,-1.6105,-1.684,-1.7211,-1.7473,-1.8345,-1.9126,-1.9896,-2.0475,-2.0856,-2.1109,-0.6586,-0.6885,-0.7122,-0.7241,-0.7383,-0.7509,-0.753,-0.7476,-0.7584,-0.7885,-0.8126,-0.8296,-0.837,-0.8238,-0.8055,-0.7831,-0.7472,-0.7129,-0.6834,-0.6603,-0.6518,-0.6511,-0.6518,-0.6583,-0.681,-0.6519,-0.6477,-0.6586,-0.6409,-0.63,-0.63,-0.63,-0.6378,-0.6515,-0.6364,-0.6463,-0.6705,-0.6776,-0.7068,-0.7539,-0.8133,-0.8733,-0.935,-0.9513,-0.9788,-1.0032,-0.9883,-0.9825,-0.9942,-1.1051,-1.1278,-1.1266,-1.1953,-1.2119,-1.2283,-1.3591,-1.3395,-1.3038,-1.4094,-1.4127,-1.3932,-1.4324,-1.4368,0.0,0.0,-1.4698,-1.5194,-1.5296,-1.5495,0.0,0.0,0.0,-1.6769,-1.7252,-1.7743,-1.8284,-1.8884,-1.9447,-1.9813,-1.9981,-1.9733,-1.9744,-2.0168,-1.98,-1.9635,-1.9814,-1.8952,-1.8188,-1.7526,-1.708,-1.6622,-1.611,-1.6121,-1.6188,-1.6312,-1.6129,-1.607,-1.607,-1.607,-1.607,-1.607,-1.607,-1.607,-1.607,-1.6248,-1.6312,-1.6318,-1.6799,-1.7069,-1.7364,-1.7981,-1.8632,-1.9253,-2.0066,-2.073,-2.1172,-0.6538,-0.681,-0.7102,-0.7299,-0.7502,-0.7723,-0.7911,-0.7916,-0.8014,-0.8469,-0.8743,-0.8791,-0.8513,-0.8533,-0.8445,-0.814,-0.7712,-0.7366,-0.7112,-0.6865,-0.6671,-0.6603,-0.6637,-0.6756,-0.6923,-0.6644,-0.6573,-0.6658,-0.6429,-0.63,-0.63,-0.63,-0.6439,-0.6647,-0.6477,-0.6563,-0.6873,-0.6725,-0.7037,-0.7675,-0.856,-0.9045,-0.9262,-0.9771,-1.0042,-1.0144,-1.0011,-0.9909,-0.9919,-1.0593,-1.0912,-1.1067,-1.0707,-1.134,-1.2413,-1.321,-1.3279,-1.3292,-1.404,-1.4259,-1.432,-1.4339,-1.4482,-1.4561,0.0,0.0,0.0,-1.5229,-1.5469,0.0,0.0,0.0,0.0,0.0,0.0,0.0,0.0,-1.7675,0.0,-1.9069,-1.9125,-1.9208,-1.9513,-1.9327,-1.9309,-1.945,-1.8306,-1.7408,-1.7061,-1.657,-1.6164,-1.5799,-1.6034,-1.6247,-1.6447,-1.644,-1.6404,-1.6404,-1.6455,-1.6478,-1.6478,-1.6478,-1.6478,-1.6478,-1.6596,-1.6596,-1.6596,-1.6655,-1.696,-1.7355,-1.7912,-1.836,-1.8801,-1.9711,-2.0371,-2.0903,-0.6515,-0.6732,-0.6953,-0.7098,-0.7512,-0.7797,-0.7831,-0.7887,-0.8126,-0.8625,-0.8713,-0.8869,-0.9218,-0.9035,-0.8974,-0.9184,-0.8319,-0.7804,-0.7857,-0.7153,-0.681,-0.7011,-0.6702,-0.6692,-0.7061,-0.6695,-0.6521,-0.6538,-0.6378,-0.63,-0.63,-0.63,-0.6385,-0.6542,-0.6607,-0.6756,-0.69,-0.7173,-0.7665,-0.8214,-0.873,-0.8798,-0.8662,-0.9384,-0.9673,-0.9717,-0.9899,-0.9977,-0.9975,-0.9842,-0.97,-0.9752,-1.0355,-0.9919,-0.9648,-1.1883,-1.1256,-1.0131,-1.1606,-1.2064,-1.2189,-1.2389,-1.3402,-1.4232,-1.3818,0.0,-1.4404,-1.3958,0.0,0.0,0.0,0.0,0.0,0.0,0.0,0.0,-1.3862,-1.4185,-1.4971,-1.6542,-1.7683,-1.8074,-1.7291,-1.7163,-1.745,-1.8142,-1.6898,-1.6323,-1.6702,-1.67,-1.6482,-1.6162,-1.6168,-1.6179,-1.6209,-1.6155,-1.6154,-1.6154,-1.6376,-1.6478,-1.6478,-1.6478,-1.6478,-1.6537,-1.6785,-1.6961,-1.6961,-1.725,-1.7268,-1.7091,-1.7409,-1.8034,-1.8846,-1.9212,-1.9562,-2.0,-0.6388,-0.6661,-0.6876,-0.6892,-0.7258,-0.7587,-0.7675,-0.8255,-0.8693,-0.871,-0.9086,-0.9361,-0.9378,-0.9269,-0.9245,-0.9371,-0.8818,-0.8381,-0.8187,-0.7736,-0.7417,-0.7282,-0.7095,-0.7082,-0.7272,-0.6834,-0.6603,-0.6603,-0.6412,-0.63,-0.63,-0.63,-0.6515,-0.6858,-0.6841,0.0,-0.7699,-0.756,-0.7746,-0.8167,-0.853,-0.8598,-0.8601,-0.9703,-1.012,-1.0137,-1.0263,-1.0253,-1.0137,-0.9832,-0.9635,-0.9548,-0.9881,-0.9437,-0.917,-1.0916,-1.0671,-1.012,-1.13,-1.1723,-1.1775,-1.1634,-1.2169,-1.2579,-1.185,-1.2187,-1.2549,-1.2244,0.0,0.0,0.0,0.0,0.0,0.0,-1.2441,0.0,0.0,0.0,-1.3395,0.0,0.0,-1.5745,-1.636,-1.6177,-1.6532,-1.7625,-1.5862,-1.5167,-1.616,-1.6107,-1.6036,-1.601,-1.6176,-1.6303,-1.647,-1.6618,-1.669,-1.669,-1.6944,-1.7067,-1.7067,-1.7067,-1.7067,-1.7067,-1.725,-1.7309,-1.7309,-1.7426,-1.7426,-1.7321,-1.7434,-1.7697,-1.8082,-1.8705,-1.9274,-1.9831,-0.6351,-0.658,-0.678,-0.6712,-0.7037,-0.74,-0.7678,-0.8397,-0.8948,-0.8838,-0.93,-0.9618,-0.9568,-0.9527,-0.9551,-0.9676,-0.934,-0.8984,-0.8659,-0.8303,-0.7974,-0.7736,-0.7528,-0.7436,-0.7434,-0.6993,-0.6722,-0.6637,-0.6422,-0.632,-0.6358,-0.6317,-0.6532,-0.6977,-0.7041,-0.7458,-0.8133,0.0,-0.8123,-0.844,-0.8747,-0.8947,-0.9188,-1.0046,-1.0446,-1.0551,-1.0507,-1.0426,-1.0293,-0.9988,-0.9815,-0.9717,-0.9635,-0.9384,-0.9246,-1.0092,-1.0222,-1.0159,-1.0773,-1.1247,-1.1407,-1.0857,-1.1165,-1.1322,-1.0405,-1.0647,-1.1033,-1.0879,-1.1081,0.0,0.0,0.0,-1.092,-1.0979,0.0,-1.0647,0.0,-1.09,0.0,0.0,0.0,0.0,-1.4907,-1.4476,-1.4671,-1.5924,-1.4376,-1.3779,-1.4797,-1.5243,-1.5463,-1.5358,-1.5922,-1.6272,-1.6477,-1.6736,-1.6699,-1.6415,-1.6744,-1.6897,-1.6897,-1.6973,-1.7185,-1.7485,-1.7485,-1.7485,-1.7485,-1.7485,-1.7303,-1.7003,-1.7003,-1.6942,-1.7032,-1.8204,-1.8945,-1.9486,-0.6477,-0.6518,-0.6573,-0.6675,-0.6949,-0.7301,-0.7887,-0.818,-0.8555,-0.9122,-0.9217,-0.9391,-0.9903,-0.9835,-0.9981,-1.0419,-0.9924,-0.9581,-0.9568,-0.8747,-0.8319,-0.8442,-0.7804,-0.7441,-0.759,-0.7153,-0.6776,-0.6518,-0.6371,-0.6371,-0.6501,-0.6364,-0.6463,-0.6732,-0.7166,-0.7533,-0.7862,-0.8435,-0.9018,-0.9571,-0.972,-1.0127,-1.0605,-1.0149,-1.027,-1.0694,-1.0544,-1.0487,-1.0439,-1.0141,-0.9977,-0.9923,-0.97,-0.9598,-0.9561,-0.9473,-0.9425,-0.9381,-0.9284,-1.0085,-1.0712,-0.9722,-1.0337,-1.1001,-1.0121,-1.0159,-1.0393,-1.0241,-1.0782,-1.1276,-1.116,-1.0743,-1.0265,-0.9748,-0.9103,0.0,0.0,0.0,0.0,0.0,0.0,0.0,0.0,-1.131,-1.1089,-1.2212,-1.2056,-1.1999,-1.212,-1.4257,-1.5024,-1.3983,-1.5229,-1.5903,-1.5916,-1.6175,-1.5754,-1.4652,-1.5066,-1.5288,-1.5398,-1.5585,-1.6349,-1.7485,-1.7485,-1.7485,-1.7485,-1.7485,-1.6767,-1.5628,-1.5628,-1.5634,-1.5882,-1.7663,-1.83,-1.8501,-0.6855,-0.695,-0.6965,-0.675,-0.6868,-0.7156,-0.7797,-0.8357,-0.8893,-0.9391,-0.9713,-1.0053,-1.0449,-1.0472,-1.0588,-1.0639,-1.046,-1.0219,-0.9859,-0.9337,-0.9028,-0.9076,-0.8364,-0.8035,-0.818,-0.7651,-0.7221,-0.6912,-0.6773,-0.6675,-0.662,-0.6511,-0.6614,-0.696,-0.7258,-0.7756,0.0,0.0,0.0,0.0,-0.9724,-1.0181,-1.0704,-1.0551,-1.0588,-1.0714,-1.0663,-1.0643,-1.0626,-1.0527,-1.0365,-1.0202,-1.0195,-0.9924,-0.9618,-0.9659,-0.9534,-0.9371,-0.9317,-0.9668,-0.9867,-0.9119,-0.9176,-0.9226,-0.8551,-0.8524,-0.8604,-0.8371,-0.8765,-0.9042,-0.88,-0.8563,-0.8302,-0.8015,-0.7671,-0.7506,0.0,0.0,0.0,0.0,0.0,0.0,0.0,0.0,-1.0382,-1.1631,-1.057,-1.045,-1.169,-1.2556,-1.2956,-1.2788,-1.4088,-1.4761,-1.4761,-1.5765,-1.573,-1.4575,-1.495,-1.4714,-1.4043,-1.4122,-1.4473,-1.4976,-1.4976,-1.4976,-1.4976,-1.4976,-1.4738,-1.4321,-1.4321,-1.4321,-1.4436,-1.5309,-1.6161,-1.7038,-0.7425,-0.7439,-0.7336,-0.6907,-0.7071,-0.7407,-0.7899,-0.8615,-0.9239,-0.9632,-1.0076,-1.047,-1.0768,-1.0843,-1.087,-1.0877,-1.0833,-1.0609,-1.0161,-0.9863,-0.9629,-0.9469,-0.895,-0.8682,-0.8774,-0.8191,-0.7736,-0.7334,-0.7183,-0.7007,-0.6854,-0.6705,-0.679,-0.7034,-0.7336,-0.7862,-0.8581,-0.8998,-0.9381,0.0,-1.0022,-1.0371,-1.0721,-1.0721,-1.0721,-1.0721,-1.0721,-1.0721,-1.0721,-1.0721,-1.0595,-1.0443,-1.048,-1.0229,-0.993,-0.9971,-0.9849,-0.969,-0.9635,-0.9652,-0.9554,-0.9005,-0.8754,-0.8489,-0.7892,-0.7909,-0.798,-0.7791,-0.7919,-0.8096,-0.8011,-0.774,-0.7478,-0.7329,-0.7048,-0.6922,0.0,-0.7184,0.0,0.0,0.0,0.0,0.0,0.0,-0.8879,-0.9981,-0.93,-0.9267,-1.0184,-1.1244,-1.1699,-1.1515,-1.2861,-1.3565,-1.3565,-1.4913,-1.4767,-1.3227,-1.3841,-1.3606,-1.2655,-1.2727,-1.3108,-1.3725,-1.3725,-1.3725,-1.3725,-1.3725,-1.3426,-1.3006,-1.3006,-1.3006,-1.3116,-1.3947,-1.5257,-1.6444,-0.8166,-0.7948,-0.7624,-0.7248,-0.7533,-0.7916,-0.8286,-0.8896,-0.9476,-0.9802,-1.0229,-1.0622,-1.087,-1.0846,-1.087,-1.1128,-1.1033,-1.0775,-1.0341,-1.0293,-1.01,-0.9693,-0.95,-0.934,-0.9258,-0.874,-0.8289,-0.7845,-0.7543,-0.7312,-0.7105,-0.6964,-0.6896,-0.6916,-0.7394,0.0,-0.8388,-0.9215,-0.9859,-1.0317,-1.0605,-1.0721,-1.0721,-1.0721,-1.0721,-1.0721,-1.0721,-1.0721,-1.0721,-1.0721,-1.0721,-1.0697,-1.0551,-1.0497,-1.0466,-1.0331,-1.0287,-1.0249,-1.01,-0.9893,-0.9741,-0.9364,-0.9076,-0.8753,-0.8177,-0.8313,-0.8472,-0.8323,-0.8361,-0.8404,-0.8652,-0.8231,-0.779,-0.7628,-0.7221,-0.678,-0.6392,-0.6443,-0.6477,0.0,0.0,0.0,0.0,0.0,-0.6774,-0.7351,-0.8153,0.0,0.0,-1.023,-1.1156,-1.014,-1.155,-1.2299,-1.2309,-1.3511,-1.2965,-1.0731,-1.191,-1.205,-1.1212,-1.134,-1.2166,-1.3485,-1.3485,-1.3485,-1.3485,-1.3485,-1.2766,-1.1631,-1.1631,-1.1643,-1.1821,-1.3584,-1.5242,-1.6522,-0.842,-0.8462,-0.8575,-0.8472,-0.8249,-0.8153,-0.8415,-0.8784,-0.932,-1.0066,-1.0453,-1.0819,-1.1233,-1.1345,-1.1284,-1.1026,-1.1067,-1.1012,-1.0792,-1.0466,-1.0378,-1.053,-1.0029,-0.9744,-0.9879,-0.9164,-0.8655,-0.8309,-0.7899,-0.7567,-0.7309,-0.7156,-0.7041,-0.7051,0.0,-0.7801,-0.8465,-0.9088,-0.972,-1.0456,-1.0643,-1.0721,-1.0721,-1.0721,-1.0721,-1.0721,-1.0721,-1.0721,-1.0721,-1.0721,-1.0721,-1.0714,-1.0673,-1.0582,-1.0483,-1.0449,-1.0365,-1.0273,-1.0232,-1.0192,-1.0107,-0.9876,-0.954,-0.9198,-0.8927,-0.8982,-0.8961,-0.8652,-0.8862,-0.8984,-0.8608,-0.8414,-0.8153,-0.7678,-0.7221,-0.6846,-0.6773,-0.6688,0.0,-0.6749,0.0,0.0,0.0,-0.6661,-0.6875,-0.7031,-0.7474,-0.7731,-0.779,-0.8566,-0.8962,-0.8943,-1.0257,-1.1028,-1.116,-1.2309,-1.2146,-1.0731,-1.1133,-1.0814,-0.9899,-1.0005,-1.0337,-1.0781,-1.0781,-1.0781,-1.0781,-1.0781,-1.0604,-1.0304,-1.0304,-1.045,-1.0859,-1.2251,-1.2567,-1.2421,-0.9088,-0.9272,-0.9413,-0.9309,-0.9097,-0.8959,-0.9054,-0.9135,-0.9483,-1.0188,-1.0595,-1.0914,-1.1168,-1.1389,-1.1416,-1.1165,-1.1155,-1.1046,-1.0768,-1.0697,-1.0663,-1.0656,-1.0436,-1.0293,-1.0246,-0.9707,-0.9211,-0.8828,-0.8326,-0.7889,-0.7468,-0.7316,-0.7173,0.0,0.0,-0.7736,-0.8245,-0.9086,-0.9849,-1.0507,-1.066,-1.0721,0.0,-1.0721,-1.0721,-1.0721,-1.0721,-1.0721,-1.0721,-1.0721,-1.0721,-1.0721,-1.0721,-1.066,-1.0592,-1.0592,-1.0534,-1.0473,-1.0473,-1.0422,-1.0351,-1.0266,-1.0005,-0.97,-0.9415,-0.9354,-0.9286,-0.9052,-0.9103,-0.9123,-0.8913,-0.8608,-0.817,-0.7506,-0.7244,-0.7054,-0.6858,-0.6814,0.0,0.0,-0.6634,0.0,0.0,-0.658,-0.6756,-0.6824,-0.7102,-0.7343,-0.7509,-0.78,-0.8147,-0.8381,-0.9231,-0.9803,-0.9911,-1.1055,-1.1055,-0.9919,-1.058,-1.0364,-0.9388,-0.954,-0.9686,-0.9822,-0.9822,-0.9822,-0.9822,-0.9822,-0.9822,-0.9822,-0.9822,-1.0008,-1.0407,-1.1094,-1.149,-1.1637,-0.9845,-1.0125,-1.0248,-0.9985,-0.9876,-0.9898,-0.998,-0.98,-0.9852,-1.0283,-1.0727,-1.0944,-1.0968,-1.1267,-1.1413,-1.1392,-1.125,-1.0995,-1.0605,-1.0907,-1.0894,-1.0415,-1.0731,-1.0802,-1.0558,-1.0202,-0.9744,-0.9241,-0.8746,-0.815,-0.7567,-0.7434,0.0,0.0,0.0,0.0,0.0,-0.9289,-1.007,-1.048,-1.0653,-1.0721,-1.0721,-1.0721,-1.0721,-1.0721,-1.0721,-1.0721,-1.0721,-1.0721,-1.0721,-1.0721,-1.0721,-1.0721,-1.0721,-1.0721,-1.0721,-1.0721,-1.0721,-1.0622,-1.0521,-1.0521,-1.0415,-1.0202,-0.9791,-0.9683,-0.9625,-0.9469,-0.9235,-0.912,-0.934,-0.8788,-0.8065,-0.7301,-0.7326,-0.7265,-0.6875,0.0,0.0,0.0,0.0,0.0,-0.6573,-0.6583,0.0,-0.6692,-0.6913,-0.7085,-0.7125,-0.7621,-0.8058,-0.8344,-0.8547,-0.8764,-0.8881,-0.9915,-0.9915,-0.894,-1.0107,-1.0273,-0.9388,-0.9557,-0.9703,-0.9822,-0.9822,-0.9822,-0.9822,-0.9822,-0.9822,-0.9822,-0.9842,-1.0029,-1.0283,-1.03,-1.1253,-1.2359,-0.9902,-1.0489,-1.0924,-1.0575,-1.0429,-1.0568,-1.1036,-1.0598,-1.028,-1.0602,-1.1033,-1.1362,-1.1487,-1.1548,-1.1528,-1.1402,-1.125,-1.1197,-1.105,-1.089,-1.086,-1.1002,-1.085,-1.0729,-1.0799,-1.0205,-0.969,-0.934,-0.8648,-0.805,-0.7456,-0.7429,-0.7275,0.0,0.0,0.0,-0.8733,-0.9513,-1.0012,-1.0341,-1.0612,-1.0721,-1.0721,-1.0721,-1.0721,-1.0721,-1.0721,-1.0721,-1.0721,-1.0721,-1.0721,-1.0721,-1.0721,-1.0721,-1.0721,-1.0721,-1.0721,-1.0721,-1.0721,-1.07,-1.068,-1.068,-1.0568,-1.0402,-1.0209,-1.0063,-0.9866,-0.9774,-0.9703,-0.9608,-0.9415,-0.8869,-0.8282,-0.7777,-0.7617,-0.7533,-0.7455,-0.7356,0.0,0.0,0.0,-0.7007,0.0,0.0,0.0,0.0,0.0,-0.7071,-0.7319,-0.7431,-0.778,-0.8425,-0.8496,-0.8655,-0.8881,-0.9099,-0.9099,-0.8888,-0.9439,-0.9585,-0.9391,-0.9659,-0.9798,-0.9822,-0.9822,-0.9822,-0.9822,-0.9822,-0.9822,-0.9832,-0.9899,-1.012,-1.0293,-1.0412,-1.0695,-1.1049,-1.0589,-1.0922,-1.1126,-1.0872,-1.0785,-1.0785,-1.1088,-1.1031,-1.0941,-1.085,-1.1026,-1.1189,-1.1263,-1.148,-1.1558,-1.1406,-1.1324,-1.1216,-1.106,-1.0989,-1.0945,-1.0934,-1.0945,-1.0914,-1.0833,-1.0473,-0.9992,-0.9381,-0.8869,-0.8231,-0.7489,-0.7453,-0.7288,-0.7112,0.0,-0.8167,0.0,-0.949,-0.993,-1.0307,-1.0602,-1.0721,-1.0721,-1.0721,-1.0721,-1.0721,-1.0721,-1.0721,-1.0721,-1.0721,-1.0721,-1.0721,-1.0721,-1.0721,-1.0721,-1.0721,-1.0721,-1.0721,-1.0721,-1.0721,-1.0721,-1.0721,-1.0663,-1.0555,-1.0331,-1.0222,-1.0103,-0.9869,-0.9822,-0.9707,-0.9334,-0.8899,-0.8479,-0.8109,-0.7858,-0.7709,-0.7709,-0.7584,-0.7458,0.0,0.0,0.0,0.0,0.0,0.0,0.0,0.0,-0.6939,-0.7238,-0.7326,-0.7641,-0.8235,-0.8401,-0.8591,-0.8818,-0.8844,-0.8977,-0.9052,-0.9276,-0.9422,-0.9507,-0.9724,-0.9822,-0.9822,-0.9822,-0.9822,-0.9822,-0.9822,-0.9822,-0.9836,-0.9926,-1.0144,-1.0297,-1.0439,-1.0588,-1.0721,-1.1126,-1.121,-1.1233,-1.1076,-1.098,-1.1025,-1.1125,-1.1424,-1.1491,-1.1069,-1.1076,-1.1185,-1.1185,-1.1501,-1.1664,-1.1545,-1.1477,-1.1328,-1.106,-1.109,-1.1012,-1.0778,-1.0962,-1.0989,-1.0819,-1.0721,-1.0293,-0.9523,-0.913,-0.8457,-0.7689,-0.7506,-0.7387,-0.7307,-0.7801,-0.8384,-0.9062,-0.9513,-0.9944,-1.0348,-1.0612,-1.0721,-1.0721,-1.0721,-1.0721,-1.0721,-1.0721,-1.0721,-1.0721,-1.0721,-1.0721,-1.0721,-1.0721,-1.0721,-1.0721,-1.0721,-1.0721,-1.0721,-1.0721,-1.0721,-1.0721,-1.0721,-1.0721,-1.0653,-1.0385,-1.03,-1.0202,-0.9927,-0.9842,-0.9683,-0.9292,-0.8988,-0.8723,-0.8385,-0.8092,-0.7929,-0.7868,-0.7763,-0.759,0.0,0.0,0.0,-0.7041,0.0,0.0,0.0,0.0,-0.6865,-0.7082,-0.7255,-0.7543,-0.7975,-0.8299,-0.8509,-0.8662,-0.8845,-0.9011,-0.921,-0.9306,-0.9462,-0.9615,-0.9754,-0.9822,-0.9822,-0.9822,-0.9822,-0.9822,-0.9822,-0.9839,-0.9883,-1.0039,-1.0192,-1.0341,-1.0487,-1.0616,-1.0721,-1.0608,-1.1065,-1.1419,-1.1225,-1.1149,-1.1305,-1.173,-1.1697,-1.1603,-1.1562,-1.1792,-1.1959,-1.1959,-1.1996,-1.2013,-1.2074,-1.1755,-1.1528,-1.1362,-1.1111,-1.0887,-1.086,-1.0819,-1.0873,-1.1118,-1.0721,-1.0341,-0.9923,-0.9225,-0.8561,-0.7941,-0.7709,-0.7712,-0.7924,-0.8425,-0.8893,-0.9367,-0.9879,-1.0188,-1.0487,-1.0653,-1.0721,-1.0721,-1.0721,-1.0721,-1.0721,-1.0721,-1.0721,-1.0721,-1.0721,-1.0721,-1.0721,-1.0721,-1.0721,-1.0721,-1.0721,-1.0721,-1.0721,-1.0721,-1.0721,-1.0721,-1.0721,-1.0721,-1.0677,-1.051,-1.0371,-1.0232,-1.0,-0.9856,-0.9683,-0.9292,-0.9303,-0.9089,-0.8436,-0.8353,-0.8323,-0.8005,-0.7958,-0.7887,-0.777,0.0,0.0,-0.7319,-0.6774,0.0,0.0,-0.6866,-0.6933,-0.7088,-0.7109,-0.7385,-0.7971,-0.8204,-0.836,-0.8503,-0.8794,-0.9011,-0.921,-0.9306,-0.9462,-0.9615,-0.9754,-0.9822,-0.9822,-0.9822,-0.9822,-0.9822,-0.9822,-0.9842,-0.998,-1.0198,-1.0344,-1.049,-1.0643,-1.0707,-1.0721,-1.0259,-1.072,-1.1038,-1.1154,-1.1301,-1.1446,-1.1787,-1.1937,-1.2023,-1.2023,-1.2047,-1.2135,-1.2135,-1.2135,-1.2135,-1.2135,-1.1955,-1.1745,-1.1413,-1.128,-1.1094,-1.0756,-1.0843,-1.0911,-1.1033,-1.0856,-1.0575,-1.0188,-0.9618,-0.9032,-0.8438,-0.8228,-0.8289,-0.8544,-0.9049,-0.9395,-0.9669,-1.0032,-1.0307,-1.0507,-1.066,-1.0721,-1.0721,-1.0721,-1.0721,-1.0721,-1.0721,-1.0721,-1.0721,-1.0721,-1.0721,-1.0721,-1.0721,-1.0721,-1.0721,-1.0721,-1.0721,-1.0721,-1.0721,-1.0721,-1.0721,-1.0721,-1.0721,-1.068,-1.0527,-1.0382,-1.0236,-1.0017,-0.9866,-0.9713,-0.9354,-0.9323,-0.912,-0.8733,-0.8564,-0.8442,-0.8319,-0.8231,0.0,-0.7841,0.0,-0.7404,0.0,-0.6939,-0.677,-0.6994,-0.6729,-0.6671,-0.6953,-0.7051,-0.725,-0.7628,-0.8133,-0.8384,-0.8357,-0.8743,-0.9059,-0.9347,-0.9351,-0.9507,-0.9737,-0.9795,-0.9822,-0.9822,-0.9822,-0.9822,-0.9829,-0.9859,-0.9933,-1.0011,-1.0314,-1.0443,-1.051,-1.0663,-1.0721,-1.0721,-0.9698,-1.0185,-1.0631,-1.0928,-1.1313,-1.159,-1.1887,-1.2152,-1.2305,-1.2345,-1.226,-1.2193,-1.2193,-1.2193,-1.2193,-1.2193,-1.2152,-1.1955,-1.1548,-1.144,-1.1212,-1.0806,-1.0782,-1.0836,-1.088,-1.088,-1.0729,-1.0477,-1.0029,-0.9564,-0.9096,-0.8859,-0.8886,-0.9097,-0.9557,-0.9819,-0.9978,-1.028,-1.0466,-1.0568,-1.0677,-1.0721,-1.0721,-1.0721,-1.0721,-1.0721,-1.0721,-1.0721,-1.0721,-1.0721,-1.0721,-1.0721,-1.0721,-1.0721,-1.0721,-1.0721,-1.0721,-1.0721,-1.0721,-1.0721,-1.0721,-1.0721,-1.0721,-1.0694,-1.0582,-1.0415,-1.0222,-0.996,-0.9897,-0.9744,-0.9493,-0.9323,-0.9157,-0.8912,-0.8757,-0.857,-0.8438,-0.837,-0.8204,-0.7855,-0.7607,-0.7421,-0.7316,-0.7034,0.0,-0.7024,-0.6729,-0.6698,-0.7105,-0.7177,-0.7319,-0.756,-0.8123,-0.8391,-0.8333,-0.8777,-0.913,-0.9381,-0.9425,-0.9581,-0.9822,-0.9822,-0.9822,-0.9822,-0.9822,-0.9822,-0.9832,-0.9923,-1.0014,-1.0141,-1.0395,-1.0521,-1.0571,-1.068,-1.0721,-1.0721,-0.8606,-0.9477,-1.0204,-1.0475,-1.1213,-1.1925,-1.2237,-1.2288,-1.2342,-1.2481,-1.2498,-1.2498,-1.2498,-1.2498,-1.2498,-1.2498,-1.2369,-1.2155,-1.1843,-1.1552,-1.1257,-1.089,-1.0802,-1.0729,-1.0877,-1.088,-1.0877,-1.0873,-1.049,-1.0188,-0.996,-0.9578,-0.9452,-0.9615,-0.9852,-1.0131,-1.0293,-1.0588,-1.0717,-1.0717,-1.0721,-1.0721,-1.0721,-1.0721,-1.0721,-1.0721,-1.0721,-1.0721,-1.0721,-1.0721,-1.0721,-1.0721,-1.0721,-1.0721,-1.0721,-1.0721,-1.0721,-1.0721,-1.0721,-1.0721,-1.0721,-1.0721,-1.0721,-1.0721,-1.0717,-1.049,-1.0195,-0.9886,-0.9822,-0.9778,-0.9632,-0.9483,-0.9283,-0.8932,-0.8878,-0.8777,-0.8336,-0.8391,-0.8313,-0.7865,-0.7371,-0.7102,-0.7098,-0.6875,0.0,-0.6876,-0.7011,-0.722,-0.7573,-0.7451,-0.7573,-0.7968,-0.8187,-0.834,-0.8479,-0.8982,-0.9286,-0.9384,-0.9534,-0.9683,-0.9822,-0.9822,-0.9822,-0.9822,-0.9822,-0.9822,-0.9832,-0.9923,-1.0141,-1.0293,-1.0436,-1.0585,-1.0717,-1.0721,-1.0721,-1.0721,-0.8151,-0.8684,-0.9194,-0.9429,-1.0173,-1.0889,-1.1545,-1.1818,-1.2142,-1.2494,-1.2501,-1.2501,-1.2501,-1.2501,-1.2501,-1.2501,-1.2461,-1.2308,-1.201,-1.1803,-1.1511,-1.1111,-1.0955,-1.0833,-1.088,-1.0779,-1.089,-1.1094,-1.0646,-1.0351,-1.0205,-1.0063,-1.0073,-1.0219,-1.0419,-1.0534,-1.0585,-1.068,-1.0721,-1.0721,-1.0721,-1.0721,-1.0721,-1.0721,-1.0721,-1.0721,-1.0721,-1.0721,-1.0721,-1.0721,-1.0721,-1.0721,-1.0721,-1.0721,-1.0721,-1.0721,-1.0721,-1.0721,-1.0721,-1.0721,-1.0721,-1.0721,-1.0721,-1.0721,-1.0721,-1.049,-1.0222,-1.0019,-0.9893,-0.9778,-0.9635,-0.9486,-0.9317,-0.9117,-0.9001,-0.8815,-0.8465,-0.8455,-0.8353,-0.7958,-0.7702,-0.7597,-0.7597,-0.7329,-0.718,-0.7227,-0.7173,-0.7139,-0.7237,-0.7438,-0.7594,-0.7736,-0.8177,-0.8486,-0.8635,-0.9036,-0.934,-0.9537,-0.9588,-0.9683,-0.9822,-0.9822,-0.9822,-0.9822,-0.9822,-0.9822,-0.9839,-1.01,-1.0236,-1.0304,-1.0551,-1.0677,-1.0721,-1.0721,-1.0721,-1.0721,-0.7652,-0.812,-0.8615,-0.879,-0.9539,-1.0307,-1.0773,-1.1262,-1.1727,-1.2037,-1.2347,-1.2501,-1.2501,-1.2501,-1.2501,-1.2501,-1.2501,-1.2403,-1.2162,-1.1948,-1.1684,-1.1348,-1.1087,-1.088,-1.088,-1.0789,-1.0897,-1.1084,-1.0856,-1.0697,-1.0612,-1.0612,-1.066,-1.0748,-1.0843,-1.0887,-1.0887,-1.0887,-1.0887,-1.0887,-1.0887,-1.0887,-1.0887,-1.0887,-1.0887,-1.088,-1.0826,-1.0806,-1.0799,-1.0741,-1.0721,-1.0721,-1.0721,-1.0721,-1.0721,-1.0721,-1.0721,-1.0721,-1.0721,-1.0721,-1.0721,-1.0721,-1.0721,-1.0704,-1.0649,-1.049,-1.03,-1.0031,-0.9913,-0.9863,-0.9717,-0.9568,-0.9415,-0.932,-0.9113,-0.8893,-0.8533,-0.8482,-0.835,-0.7997,-0.7868,-0.7767,-0.7655,-0.7631,-0.7577,-0.7465,-0.7573,-0.7621,-0.7567,-0.7638,-0.7756,-0.7926,-0.8401,-0.8723,-0.8876,-0.9174,-0.9418,-0.9608,-0.9663,-0.9734,-0.9822,-0.9822,-0.9822,-0.9822,-0.9822,-0.9852,-0.9927,-1.0178,-1.0314,-1.0385,-1.0626,-1.0721,-1.0721,-1.0721,-1.0721,-1.0721,-0.7185,-0.7814,-0.8436,-0.8538,-0.9251,-0.9864,-0.9942,-1.0641,-1.1184,-1.1262,-1.196,-1.2424,-1.2501,-1.2501,-1.2501,-1.2501,-1.2501,-1.2444,-1.2315,-1.2026,-1.1792,-1.164,-1.1223,-1.0917,-1.0897,-1.0887,-1.088,-1.088,-1.1084,-1.1224,-1.1231,-1.122,-1.1224,-1.1231,-1.1231,-1.1231,-1.1231,-1.1231,-1.1231,-1.1231,-1.1231,-1.1231,-1.1231,-1.1231,-1.1231,-1.1214,-1.1012,-1.0894,-1.0873,-1.0799,-1.0744,-1.0734,-1.0734,-1.0727,-1.0721,-1.0721,-1.0721,-1.0721,-1.0721,-1.0721,-1.0721,-1.0721,-1.0721,-1.0683,-1.0541,-1.05,-1.0412,-1.0075,-1.0,-0.9943,-0.9863,-0.971,-0.9557,-0.9405,-0.9303,-0.904,-0.8543,-0.8482,-0.8323,-0.7896,-0.7851,-0.775,-0.7521,-0.7818,-0.7887,-0.7651,-0.814,-0.8394,-0.8262,-0.8011,-0.8072,-0.8499,-0.8791,-0.9018,-0.9241,-0.9466,-0.9615,-0.9625,-0.9758,-0.9822,-0.9822,-0.9822,-0.9822,-0.9822,-0.9832,-0.9856,-1.0,-1.0226,-1.0371,-1.0507,-1.066,-1.0721,-1.0721,-1.0721,-1.0721,-1.0721,-0.769,-0.7785,-0.7778,-0.7724,-0.8214,-0.87,-0.9012,-0.9555,-1.0175,-1.1184,-1.1495,-1.1805,-1.2424,-1.2501,-1.2501,-1.2501,-1.2501,-1.2488,-1.2454,-1.2281,-1.2064,-1.1792,-1.1575,-1.1352,-1.1118,-1.1002,-1.088,-1.088,-1.0982,-1.1056,-1.1231,-1.105,-1.1056,-1.1231,-1.1231,-1.1231,-1.1231,-1.1231,-1.1231,-1.1231,-1.1231,-1.1231,-1.1231,-1.1231,-1.1231,-1.1158,-1.1124,-1.1114,-1.1104,-1.107,-1.0985,-1.0826,-1.0826,-1.0749,-1.0721,-1.0721,-1.0721,-1.0721,-1.0721,-1.0721,-1.0721,-1.0721,-1.0721,-1.0711,-1.0673,-1.0575,-1.0473,-1.0402,-1.0205,-0.9977,-0.994,-0.9785,-0.9557,-0.9405,-0.9161,-0.8872,-0.853,-0.8482,-0.8401,-0.8187,-0.8258,-0.8296,-0.8228,-0.8218,-0.8136,-0.7901,-0.8015,-0.813,-0.8096,-0.835,-0.8598,-0.8821,-0.8844,-0.912,-0.9496,-0.9571,-0.9663,-0.9771,-0.9805,-0.9822,-0.9822,-0.9822,-0.9822,-0.9829,-0.9883,-0.9953,-1.0007,-1.0334,-1.0463,-1.0507,-1.066,-1.0721,-1.0721,-1.0721,-1.0721,-1.0721,-0.7746,-0.7648,-0.7525,-0.7525,-0.7683,-0.792,-0.8152,-0.8698,-0.9402,-1.01,-1.0486,-1.0874,-1.134,-1.1727,-1.196,-1.196,-1.2269,-1.2501,-1.2501,-1.2369,-1.2186,-1.1945,-1.1731,-1.1508,-1.127,-1.1121,-1.1046,-1.1046,-1.1046,-1.1087,-1.1231,-1.1084,-1.1124,-1.1267,-1.1267,-1.1307,-1.1372,-1.1372,-1.1372,-1.1372,-1.1372,-1.1372,-1.1372,-1.1372,-1.1372,-1.1362,-1.1294,-1.1267,-1.1257,-1.1185,-1.1111,-1.1046,-1.1046,-1.0945,-1.0756,-1.0756,-1.0775,-1.0721,-1.0721,-1.0721,-1.0721,-1.0721,-1.0721,-1.0721,-1.0721,-1.0656,-1.0575,-1.0507,-1.0365,-1.0209,-1.0011,-0.9859,-0.9693,-0.9337,-0.914,-0.8882,-0.8448,-0.8442,-0.8428,-0.834,-0.8394,-0.8509,-0.8581,-0.8516,-0.8438,-0.8353,-0.8359,-0.8399,-0.8399,-0.8743,-0.892,-0.8885,-0.908,-0.9361,-0.9608,-0.9673,-0.9744,-0.9822,-0.9822,-0.9822,-0.9822,-0.9893,-0.9862,-0.9872,-1.009,-1.0192,-1.0263,-1.0426,-1.0531,-1.0605,-1.0687,-1.0721,-1.0721,-1.0721,-1.0721,-1.0721,-0.7589,-0.7525,-0.7525,-0.7525,-0.7525,-0.7525,-0.7525,-0.8152,-0.8622,-0.8778,-0.9399,-0.9864,-1.0019,-1.0641,-1.1107,-1.1107,-1.1727,-1.2269,-1.2501,-1.2389,-1.2244,-1.2145,-1.182,-1.1603,-1.143,-1.1274,-1.1185,-1.1231,-1.1141,-1.1141,-1.1231,-1.1141,-1.1212,-1.1355,-1.1355,-1.1426,-1.1552,-1.1575,-1.1586,-1.1589,-1.1609,-1.1619,-1.1619,-1.1619,-1.1619,-1.1603,-1.147,-1.1426,-1.1406,-1.1274,-1.1216,-1.1199,-1.1199,-1.1097,-1.0982,-1.0982,-1.0873,-1.0751,-1.0727,-1.0721,-1.0721,-1.0721,-1.0721,-1.0721,-1.0721,-1.0721,-1.0683,-1.0555,-1.0507,-1.0415,-1.0098,-1.0017,-0.9859,-0.934,-0.9224,-0.9009,-0.8436,-0.8425,-0.8479,-0.8384,-0.8496,-0.8645,-0.8798,-0.8791,-0.8788,-0.8808,-0.891,-0.8981,-0.8949,-0.9144,-0.9167,-0.8989,-0.9412,-0.9618,-0.9642,-0.9761,-0.9822,-0.9822,-0.9842,-0.9856,-0.9863,-0.9953,-1.0024,-1.0031,-1.0246,-1.0382,-1.0493,-1.0517,-1.0602,-1.0721,-1.0721,-1.0721,-1.0721,-1.0721,-1.0721,-1.0721,-0.7601,-0.7525,-0.7525,-0.7525,-0.7525,-0.7525,-0.7525,-0.7603,-0.7996,-0.87,-0.8934,-0.9246,-0.9942,-1.0097,-1.0175,-1.0175,-1.033,-1.1029,-1.2424,-1.2481,-1.2345,-1.2074,-1.2016,-1.1867,-1.1589,-1.1433,-1.1294,-1.1231,-1.1043,-1.1043,-1.1231,-1.1036,-1.106,-1.1199,-1.1199,-1.1212,-1.1243,-1.1372,-1.1426,-1.144,-1.1565,-1.1619,-1.1619,-1.1619,-1.1619,-1.1616,-1.1592,-1.1586,-1.1582,-1.1555,-1.1463,-1.1355,-1.1355,-1.1253,-1.1128,-1.1128,-1.1026,-1.0816,-1.0755,-1.0721,-1.0721,-1.0721,-1.0721,-1.0721,-1.0721,-1.0721,-1.0714,-1.069,-1.0582,-1.0477,-1.0432,-1.0219,-0.9832,-0.9422,-0.9296,-0.9043,-0.8516,-0.8581,-0.8716,-0.8821,-0.896,-0.9166,-0.9262,-0.9217,-0.9193,-0.9266,-0.9178,-0.9178,-0.9306,-0.9456,-0.9527,-0.9507,-0.9571,-0.9666,-0.9788,-0.9812,-0.9822,-0.9822,-0.9889,-0.9953,-0.9957,-1.0175,-1.0246,-1.0253,-1.0395,-1.047,-1.0504,-1.0629,-1.07,-1.0721,-1.0721,-1.0721,-1.0721,-1.0721,-1.0721,-1.0721,-0.8232,-0.8074,-0.7994,-0.792,-0.7683,-0.7525,-0.7525,-0.7525,-0.7681,-0.8074,-0.8074,-0.823,-0.8618,-0.9088,-0.9322,-0.9322,-0.9789,-1.033,-1.1104,-1.1337,-1.1404,-1.1202,-1.1651,-1.182,-1.1738,-1.1664,-1.1514,-1.1287,-1.1219,-1.1179,-1.1231,-1.1094,-1.1097,-1.1231,-1.1231,-1.1231,-1.1168,-1.124,-1.1267,-1.128,-1.1436,-1.1497,-1.1504,-1.1589,-1.1619,-1.1619,-1.1619,-1.1619,-1.1619,-1.1619,-1.1572,-1.1514,-1.1514,-1.1409,-1.1287,-1.1287,-1.1124,-1.0847,-1.0761,-1.0721,-1.0721,-1.0721,-1.0721,-1.0721,-1.0721,-1.0721,-1.0721,-1.0721,-1.0663,-1.0592,-1.0507,-1.0317,-1.0053,-0.968,-0.9357,-0.9108,-0.8767,-0.8791,-0.8804,-0.8875,-0.9137,-0.9337,-0.949,-0.9364,-0.934,-0.9493,-0.9361,-0.9344,-0.9496,-0.9571,-0.9646,-0.972,-0.9724,-0.9754,-0.9822,-0.9822,-0.9863,-0.9883,-0.9953,-1.0031,-1.0178,-1.0327,-1.0395,-1.0402,-1.0551,-1.0616,-1.0619,-1.069,-1.0721,-1.0721,-1.0721,-1.0721,-1.0721,-1.0721,-1.0721,-1.0721,-0.8781,-0.862,-0.8464,-0.8391,-0.8076,-0.7759,-0.7683,-0.7683,-0.7605,-0.7525,-0.7525,-0.7525,-0.7525,-0.8074,-0.8466,-0.8466,-0.9088,-0.9397,-0.9397,-0.9786,-1.012,-1.0222,-1.0881,-1.1221,-1.1295,-1.1333,-1.1283,-1.1067,-1.1143,-1.1121,-1.1077,-1.0971,-1.1023,-1.1231,-1.1093,-1.1093,-1.1234,-1.1202,-1.1216,-1.1226,-1.1345,-1.1392,-1.1399,-1.1484,-1.1535,-1.1565,-1.1565,-1.1589,-1.1619,-1.1619,-1.1619,-1.1619,-1.1619,-1.1538,-1.1443,-1.1443,-1.1257,-1.1009,-1.0822,-1.0748,-1.0721,-1.0721,-1.0721,-1.0721,-1.0721,-1.0721,-1.0721,-1.0721,-1.0721,-1.0683,-1.0568,-1.0426,-1.0219,-0.9876,-0.9534,-0.9232,-0.9018,-0.9018,-0.9013,-0.908,-0.9344,-0.9557,-0.9747,-0.9659,-0.9639,-0.9758,-0.9656,-0.9642,-0.9761,-0.9764,-0.9815,-0.9924,-0.9893,-0.9873,-0.9873,-0.991,-0.9988,-1.0041,-1.0075,-1.0215,-1.0334,-1.048,-1.0544,-1.0551,-1.067,-1.0721,-1.0721,-1.0721,-1.0721,-1.0721,-1.0721,-1.0721,-1.0721,-1.0721,-1.0721,-1.0721,-0.8856,-0.8778,-0.8778,-0.8781,-0.87,-0.8547,-0.8234,-0.8159,-0.8,-0.7525,-0.7525,-0.7525,-0.7525,-0.7525,-0.7603,-0.7603,-0.7681,-0.7681,-0.7681,-0.8154,-0.8808,-0.9766,-0.9804,-0.9736,-0.9791,-0.9979,-1.0137,-1.0117,-1.0239,-1.0469,-1.0809,-1.0325,-1.047,-1.1162,-1.0816,-1.0816,-1.1241,-1.1314,-1.1372,-1.1375,-1.1385,-1.1392,-1.1379,-1.1246,-1.1284,-1.1409,-1.1409,-1.1497,-1.1619,-1.1619,-1.1619,-1.1619,-1.1619,-1.1613,-1.1603,-1.1603,-1.1487,-1.1294,-1.0941,-1.0759,-1.0721,-1.0721,-1.0721,-1.0721,-1.0721,-1.0721,-1.0721,-1.0721,-1.0721,-1.0717,-1.0707,-1.0578,-1.0334,-0.989,-0.9791,-0.9625,-0.9255,-0.9259,-0.9449,-0.9724,-0.9774,-0.9907,-1.0202,-1.0222,-1.0219,-1.0232,-1.0222,-1.0219,-1.0232,-1.0232,-1.0236,-1.0246,-1.0107,-0.997,-0.997,-1.0175,-1.0253,-1.0263,-1.0395,-1.0466,-1.048,-1.0633,-1.0704,-1.0704,-1.0714,-1.0721,-1.0721,-1.0721,-1.0721,-1.0721,-1.0721,-1.0721,-1.0721,-1.0721,-1.0721,-1.0721,-0.9555,-0.9555,-0.9477,-0.9246,-0.9088,-0.8932,-0.8625,-0.8547,-0.8547,-0.831,-0.8308,-0.8308,-0.8308,-0.8076,-0.792,-0.792,-0.7683,-0.7525,-0.7525,-0.7683,-0.829,-0.949,-0.9523,-0.954,-0.9693,-0.9801,-0.9816,-0.9739,-0.9939,-1.0145,-1.0287,-1.0295,-1.0401,-1.0604,-1.0394,-1.0414,-1.0474,-1.0531,-1.0553,-1.056,-1.0649,-1.0684,-1.069,-1.0938,-1.1069,-1.104,-1.1318,-1.1369,-1.1352,-1.1447,-1.1477,-1.1494,-1.1589,-1.1619,-1.1619,-1.1619,-1.1511,-1.1365,-1.1253,-1.1046,-1.0772,-1.0744,-1.0721,-1.0721,-1.0721,-1.0721,-1.0721,-1.0721,-1.0721,-1.0721,-1.0721,-1.0595,-1.0466,-1.0392,-1.0081,-0.9937,-0.9863,-0.9819,-0.9836,-0.9951,-1.0046,-1.0151,-1.027,-1.028,-1.028,-1.028,-1.028,-1.028,-1.028,-1.028,-1.028,-1.028,-1.0307,-1.028,-1.0195,-1.0249,-1.0324,-1.0412,-1.0466,-1.0541,-1.0636,-1.0694,-1.0721,-1.0721,-1.0721,-1.0721,-1.0721,-1.0721,-1.0721,-1.0721,-1.0721,-1.0721,-1.0721,-1.0721,-1.0721,-1.0721,-0.9954,-0.9962,-0.9898,-0.9625,-0.9475,-0.9319,-0.9012,-0.9012,-0.8934,-0.8781,-0.8778,-0.8778,-0.8778,-0.8547,-0.8391,-0.8391,-0.8076,-0.7918,-0.7918,-0.7762,-0.8074,-0.8776,-0.8774,-0.8896,-0.9049,-0.9167,-0.919,-0.9111,-0.9372,-0.9538,-0.9684,-0.9818,-0.9878,-1.0014,-0.987,-0.9821,-0.988,-1.0025,-1.0025,-1.0102,-1.0221,-1.0317,-1.0388,-1.0612,-1.0727,-1.0676,-1.0915,-1.1,-1.1031,-1.1157,-1.1177,-1.1268,-1.1443,-1.1582,-1.1619,-1.1619,-1.1545,-1.1453,-1.1402,-1.1243,-1.104,-1.0843,-1.0792,-1.0778,-1.0731,-1.0721,-1.0721,-1.0721,-1.0721,-1.0721,-1.0721,-1.0633,-1.0582,-1.0639,-1.0392,-1.0212,-1.0273,-1.0188,-1.0137,-1.0248,-1.0283,-1.0365,-1.0415,-1.0419,-1.0419,-1.0419,-1.0419,-1.0419,-1.0419,-1.0419,-1.0419,-1.0419,-1.0514,-1.0517,-1.0419,-1.0419,-1.0466,-1.0565,-1.0565,-1.0619,-1.0721,-1.0721,-1.0721,-1.0721,-1.0721,-1.0721,-1.0721,-1.0721,-1.0721,-1.0721,-1.0721,-1.0721,-1.0721,-1.0721,-1.0721,-1.0721,-0.9815,-0.9837,-0.9875,-1.0,-1.0019,-0.9864,-0.9477,-0.9399,-0.9244,-0.8856,-0.8778,-0.8778,-0.8778,-0.8778,-0.8778,-0.8778,-0.8778,-0.8778,-0.8778,-0.8391,-0.8,-0.7525,-0.7525,-0.7525,-0.7525,-0.7825,-0.801,-0.801,-0.8287,-0.861,-0.8983,-0.8607,-0.8833,-0.9577,-0.9205,-0.9205,-0.9655,-1.0038,-1.0191,-1.0179,-1.0494,-1.0587,-1.0556,-1.0295,-1.028,-1.038,-1.0241,-1.0345,-1.0506,-1.0731,-1.0825,-1.0899,-1.1248,-1.1497,-1.1619,-1.1616,-1.1619,-1.1586,-1.1433,-1.1392,-1.1321,-1.0958,-1.088,-1.084,-1.0758,-1.0721,-1.0721,-1.0721,-1.0721,-1.0721,-1.0721,-1.0721,-1.067,-1.0517,-1.0493,-1.0446,-1.0304,-1.0283,-1.0337,-1.0477,-1.0493,-1.0555,-1.0707,-1.0721,-1.0721,-1.0721,-1.0721,-1.0721,-1.0721,-1.0721,-1.0721,-1.0721,-1.0721,-1.0721,-1.0721,-1.0721,-1.0721,-1.0721,-1.0721,-1.0721,-1.0721,-1.0721,-1.0721,-1.0721,-1.0721,-1.0721,-1.0721,-1.0721,-1.0721,-1.0721,-1.0721,-1.0721,-1.0721,-1.0721,-1.0721,-1.0721,-0.9815,-0.9837,-0.9875,-1.0,-1.0019,-0.9944,-0.9866,-0.9789,-0.9789,-0.9633,-0.9633,-0.9633,-0.9633,-0.9399,-0.9246,-0.9246,-0.8934,-0.8778,-0.8778,-0.8703,-0.8544,-0.8388,-0.7838,-0.7525,-0.7525,-0.7579,-0.7642,-0.7642,-0.7934,-0.8193,-0.8267,-0.8344,-0.8535,-0.8757,-0.8607,-0.8682,-0.8757,-0.891,-0.891,-0.8908,-0.9025,-0.9236,-0.9532,-0.9684,-0.9917,-1.0146,-1.0311,-1.0295,-1.0315,-1.0346,-1.0404,-1.0404,-1.0546,-1.0711,-1.08,-1.0708,-1.0746,-1.0809,-1.0765,-1.0973,-1.1122,-1.1106,-1.1023,-1.087,-1.0823,-1.0799,-1.0721,-1.0721,-1.0721,-1.0721,-1.0721,-1.0721,-1.0704,-1.066,-1.0653,-1.0636,-1.0595,-1.0588,-1.0605,-1.0646,-1.0653,-1.067,-1.0714,-1.0721,-1.0721,-1.0721,-1.0721,-1.0721,-1.0721,-1.0721,-1.0721,-1.0721,-1.0721,-1.0721,-1.0721,-1.0721,-1.0721,-1.0721,-1.0721,-1.0721,-1.0721,-1.0721,-1.0721,-1.0721,-1.0721,-1.0721,-1.0721,-1.0721,-1.0721,-1.0721,-1.0721,-1.0721,-1.0721,-1.0721,-1.0721,-1.0721,-0.7783,-0.8363,-0.8883,-0.8994,-0.9521,-1.0019,-1.0019,-1.0019,-0.9786,-0.908,-0.9003,-0.8766,-0.8063,-0.7829,-0.7675,-0.7675,-0.7443,-0.7287,-0.7287,-0.7757,-0.7757,-0.7051,-0.7051,-0.7289,-0.7762,-0.7762,-0.7683,-0.7525,-0.7705,-0.7832,-0.7832,-0.8002,-0.8049,-0.8049,-0.8049,-0.8049,-0.8049,-0.8204,-0.8359,-0.8359,-0.8509,-0.8741,-0.8969,-0.915,-0.9314,-0.946,-0.9566,-0.9548,-0.9541,-0.9729,-0.9951,-1.0192,-1.0263,-1.0315,-1.0444,-1.0417,-1.0429,-1.046,-1.0512,-1.0675,-1.0852,-1.0889,-1.1021,-1.1107,-1.1046,-1.0917,-1.0809,-1.0809,-1.0761,-1.0721,-1.0721,-1.0721,-1.0721,-1.0721,-1.0721,-1.0721,-1.0721,-1.0721,-1.0721,-1.0721,-1.0721,-1.0721,-1.0721,-1.0721,-1.0721,-1.0721,-1.0721,-1.0721,-1.0721,-1.0721,-1.0721,-1.0721,-1.0721,-1.0721,-1.0721,-1.0721,-1.0721,-1.0721,-1.0721,-1.0721,-1.0721,-1.0721,-1.0721,-1.0721,-1.0721,-1.0721,-1.0721,-1.0721,-1.0721,-1.0721,-1.0721,-1.0721,-1.0721,-1.0721,-1.0721,-1.0721,-0.4804,-0.6055,-0.7109,-0.7275,-0.8527,-0.9534,-0.9534,-0.9545,-0.9003,-0.7515,-0.7281,-0.6733,-0.517,-0.5014,-0.5014,-0.5014,-0.5014,-0.5014,-0.5014,-0.611,-0.6032,-0.4542,-0.556,-0.6736,-0.7842,-0.7842,-0.7764,-0.7603,-0.7447,-0.7447,-0.7603,-0.7603,-0.7603,-0.7603,-0.7603,-0.7603,-0.7681,-0.8078,-0.8237,-0.8315,-0.8625,-0.8859,-0.8847,-0.8671,-0.8633,-0.8619,-0.8512,-0.8398,-0.8518,-0.8972,-0.9551,-1.0028,-1.0016,-1.0087,-1.0179,-1.0281,-1.0301,-1.0238,-1.035,-1.0455,-1.0455,-1.0455,-1.0866,-1.1302,-1.1216,-1.107,-1.0897,-1.0884,-1.0769,-1.0734,-1.0721,-1.0721,-1.0721,-1.0721,-1.0721,-1.0721,-1.0721,-1.0721,-1.0721,-1.0721,-1.0721,-1.0721,-1.0721,-1.0721,-1.0721,-1.0721,-1.0721,-1.0721,-1.0721,-1.0721,-1.0721,-1.0721,-1.0721,-1.0721,-1.0721,-1.0721,-1.0721,-1.0721,-1.0721,-1.0721,-1.0721,-1.0721,-1.0721,-1.0721,-1.0721,-1.0721,-1.0721,-1.0721,-1.0721,-1.0721,-1.0721,-1.0721,-1.0721,-1.0721,-1.0721,-1.0721,-0.4804,-0.5123,-0.5376,-0.5522,-0.5821,-0.6099,-0.6099,-0.607,-0.5952,-0.5561,-0.5561,-0.5405,-0.5014,-0.5014,-0.5014,-0.5014,-0.5014,-0.5014,-0.5014,-0.5248,-0.5248,-0.4857,-0.517,-0.5248,-0.5248,-0.4937,-0.5957,-0.8544,-0.7207,-0.7207,-0.8544,-0.8544,-0.8544,-0.8544,-0.8544,-0.8544,-0.8544,-0.8622,-0.8703,-0.8703,-0.8781,-0.9012,-0.9244,-0.8908,-0.8978,-0.9193,-0.8698,-0.8586,-0.8564,-0.8585,-0.8674,-0.8787,-0.8634,-0.8901,-0.9178,-0.9109,-0.9285,-0.956,-0.9585,-0.9807,-1.0023,-1.0023,-1.0362,-1.0736,-1.0882,-1.1014,-1.1084,-1.0904,-1.0853,-1.0796,-1.0744,-1.0721,-1.0721,-1.0721,-1.0721,-1.0721,-1.0721,-1.0721,-1.0721,-1.0721,-1.0721,-1.0721,-1.0721,-1.0721,-1.0721,-1.0721,-1.0721,-1.0721,-1.0721,-1.0721,-1.0721,-1.0721,-1.0721,-1.0721,-1.0721,-1.0721,-1.0721,-1.0721,-1.0721,-1.0721,-1.0721,-1.0721,-1.0721,-1.0721,-1.0721,-1.0721,-1.0721,-1.0721,-1.0721,-1.0721,-1.0721,-1.0721,-1.0721,-1.0721,-1.0721,-1.0721,-0.2497,-0.3175,-0.3715,-0.3815,-0.4484,-0.5001,-0.5001,-0.4974,-0.47,-0.3917,-0.3839,-0.3526,-0.2666,-0.2587,-0.2587,-0.2587,-0.2587,-0.2587,-0.2587,-0.3369,-0.3447,-0.2666,-0.3369,-0.3682,-0.3525,-0.2508,-0.3449,-0.6426,-0.5563,-0.5563,-0.6426,-0.6426,-0.6816,-0.7599,-0.7599,-0.807,-0.8778,-0.8778,-0.8778,-0.8778,-0.8778,-0.8934,-0.909,-0.8703,-0.8625,-0.8771,-0.8249,-0.82,-0.8306,-0.8251,-0.8276,-0.8375,-0.8323,-0.8422,-0.8592,-0.8755,-0.8731,-0.8719,-0.8934,-0.9005,-0.9003,-0.9003,-0.9333,-0.979,-1.0513,-1.0674,-1.0693,-1.0622,-1.0551,-1.0389,-1.0111,-1.029,-1.0471,-1.0263,-1.0518,-1.0721,-1.0721,-1.0721,-1.0721,-1.0721,-1.0721,-1.0721,-1.0721,-1.0386,-1.0382,-1.0654,-1.0721,-1.0721,-1.0721,-1.0721,-1.0721,-1.0721,-1.0721,-1.0721,-1.0721,-1.0721,-1.0721,-1.0721,-1.0721,-1.0721,-1.0721,-1.0721,-1.0721,-1.0721,-1.0721,-1.0721,-1.0721,-1.0721,-1.0721,-1.0721,-1.0721,-1.0721,-1.0721,-1.0721,-1.0721,-1.0721,0.0,-0.1103,-0.2071,-0.2071,-0.3246,-0.4142,-0.4142,-0.4116,-0.3682,-0.2273,-0.2038,-0.1568,-0.0157,0.0,0.0,0.0,0.0,0.0,0.0,-0.1334,-0.149,-0.0079,-0.1333,-0.2038,-0.2038,-0.0706,-0.1334,-0.3998,-0.3684,-0.3763,-0.3998,-0.3998,-0.4779,-0.6108,-0.6108,-0.6815,-0.815,-0.815,-0.815,-0.815,-0.815,-0.815,-0.8072,-0.7683,-0.7764,-0.7842,-0.7135,-0.7011,-0.7338,-0.7956,-0.813,-0.8056,-0.8363,-0.8445,-0.8434,-0.8787,-0.8634,-0.8329,-0.8662,-0.8434,-0.8211,-0.8228,-0.8502,-0.9064,-1.0089,-1.023,-1.0146,-1.0122,-1.0101,-0.9911,-0.9505,-0.9893,-1.019,-0.9707,-1.0085,-1.0415,-1.0323,-1.0319,-1.0319,-1.0319,-1.0319,-1.0319,-1.0319,-0.9981,-0.9915,-1.0518,-1.0654,-1.0721,-1.0721,-1.0721,-1.0721,-1.0721,-1.0721,-1.0721,-1.0721,-1.0721,-1.0721,-1.0721,-1.0721,-1.0721,-1.0721,-1.0721,-1.0721,-1.0721,-1.0721,-1.0721,-1.0721,-1.0721,-1.0721,-1.0721,-1.0721,-1.0721,-1.0721,-1.0721,-1.0721,-1.0721,0.0,-0.0146,-0.0366,-0.0366,-0.0523,-0.0683,-0.0683,-0.0696,-0.0628,-0.0393,-0.0314,-0.0236,0.0,0.0,0.0,0.0,0.0,0.0,0.0,-0.0236,-0.0236,0.0,-0.0236,-0.0314,-0.0314,-0.0079,-0.1569,-0.4857,-0.3369,-0.3447,-0.4857,-0.4857,-0.4936,-0.517,-0.517,-0.5327,-0.5483,-0.5483,-0.5483,-0.5483,-0.5483,-0.5483,-0.5483,-0.5091,-0.5797,-0.6818,-0.4937,-0.4307,-0.4848,-0.7741,-0.773,-0.6857,-0.8267,-0.8893,-0.9091,-0.8998,-0.9102,-0.927,-0.9235,-0.9066,-0.8944,-0.9112,-0.9074,-0.9111,-0.9424,-0.9723,-0.9893,-0.9782,-0.9959,-1.0122,-0.9917,-0.9962,-0.9916,-0.944,-0.942,-0.9382,-0.8937,-0.8853,-0.8853,-0.8853,-0.8853,-0.8853,-0.8853,-0.9383,-0.9715,-0.9848,-1.0382,-1.0721,-1.0721,-1.0721,-1.0721,-1.0721,-1.0721,-1.0721,-1.0721,-1.0721,-1.0721,-1.0721,-1.0721,-1.0721,-1.0721,-1.0721,-1.0721,-1.0721,-1.0721,-1.0721,-1.0721,-1.0721,-1.0721,-1.0721,-1.0721,-1.0721,-1.0721,-1.0721,-1.0721,-1.0721,0.0,0.0,0.0,0.0,0.0,0.0,0.0,0.0,0.0,0.0,0.0,0.0,0.0,0.0,0.0,0.0,0.0,0.0,0.0,0.0,0.0,0.0,0.0,0.0,0.0,0.0,-0.0707,-0.2196,-0.149,-0.149,-0.2196,-0.2196,-0.2743,-0.3604,-0.3604,-0.4152,-0.5014,-0.5014,-0.5014,-0.5014,-0.5014,-0.5014,-0.4936,-0.4542,-0.4855,-0.5327,-0.4232,-0.3763,-0.3998,-0.5486,-0.5484,-0.5015,-0.5799,-0.6088,-0.6201,-0.6281,-0.685,-0.7465,-0.7588,-0.8069,-0.8487,-0.8472,-0.8528,-0.8583,-0.8566,-0.8896,-0.9288,-0.9449,-0.9581,-0.9618,-0.9279,-0.954,-0.964,-0.9164,-0.9223,-0.9222,-0.9033,-0.8764,-0.8587,-0.8587,-0.8251,-0.8117,-0.8587,-0.8518,-0.8648,-0.905,-0.9715,-1.0117,-1.0117,-1.0518,-1.0721,-1.0721,-1.0721,-1.0721,-1.0721,-1.0721,-1.0721,-1.0721,-1.0721,-1.0721,-1.0721,-1.0721,-1.0721,-1.0721,-1.0721,-1.0721,-1.0721,-1.0721,-1.0721,-1.0721,-1.0721,-1.0721,-1.0721,-1.0721,-1.0721,-1.0721]}]]